GFSGBSN_2pvu_pres_000.txt.gz
Presure
293 282 288 304 289 280 248 236 231 315 311 245 270 261 241 238 213 217 219 213 200 193 192 194 202 195 206 200 210 221 222 221 206 225 224 221 200 206 213 217 205 234 230 233 242 231 261
281 294 297 252 285 277 254 235 228 237 307 282 272 258 245 236 154 126 126 213 210 205 188 196 211 190 210 218 199 204 213 214 217 231 226 211 209 215 206 215 239 249 246 273 269 237 228
300 319 297 300 288 266 259 238 227 227 296 294 265 192 247 237 219 169 197 216 212 208 203 205 204 207 212 210 218 211 208 212 226 190 229 234 214 215 200 203 245 240 281 279 278 280 236
337 317 300 301 281 265 253 253 220 225 225 290 278 264 232 246 236 221 221 216 215 208 208 205 207 215 202 210 214 221 192 212 224 173 212 199 235 206 214 202 236 278 276 274 268 276 267
325 321 308 301 287 275 253 249 239 224 213 235 284 275 251 236 231 165 144 145 223 210 207 212 215 212 213 215 225 215 200 194 200 202 219 222 227 223 212 211 221 216 266 265 262 258 262
329 295 306 305 293 273 268 250 249 230 224 215 224 245 278 247 244 228 229 222 226 226 159 170 214 216 220 222 226 219 217 211 213 197 201 219 230 231 204 216 227 264 265 253 248 246 253
281 271 270 279 279 300 275 241 258 247 224 219 213 219 228 277 249 245 247 236 227 212 221 212 210 213 210 210 203 218 222 219 219 220 214 214 223 217 203 220 227 267 267 258 251 250 249
272 264 261 233 226 257 278 246 269 256 246 223 217 221 209 223 226 239 273 262 263 239 229 228 223 220 231 221 220 220 210 211 218 217 224 224 236 203 209 216 228 242 250 241 239 236 241
254 253 261 251 264 258 248 255 250 253 227 243 234 219 223 219 210 219 219 215 235 257 275 261 238 232 235 226 227 225 230 220 227 207 221 229 231 210 211 221 231 247 255 237 236 237 247
243 245 248 235 228 257 267 255 246 242 240 248 221 218 228 225 219 215 202 229 235 235 234 224 222 234 255 279 262 241 236 247 236 230 242 230 213 208 218 227 237 209 252 238 233 241 242
262 236 232 262 264 256 232 245 231 235 226 228 236 245 233 236 215 207 221 212 190 193 209 218 222 244 249 280 270 256 253 248 238 244 232 230 208 217 226 231 238 253 245 235 237 238 242
244 255 401 497 496 508 504 363 250 244 241 233 225 224 227 214 226 220 233 191 211 198 212 205 220 252 269 270 261 260 260 252 252 242 229 157 176 232 241 241 254 252 238 232 237 236 241
257 502 478 572 581 555 507 524 485 270 249 246 242 231 227 219 216 223 219 216 167 214 213 218 236 269 274 264 258 248 249 252 244 241 230 235 244 249 255 257 241 234 230 234 242 247 271
448 465 588 596 554 543 476 523 475 462 268 258 245 244 234 228 231 224 230 200 219 192 232 223 259 287 275 256 247 249 244 243 229 239 259 267 272 72 276 228 370 280 95 269 215 276 280
467 486 638 557 533 457 497 502 451 543 377 356 300 271 239 231 230 236 233 232 224 238 247 243 290 266 249 238 240 242 229 244 271 301 394 392 372 362 323 363 335 345 354 351 195 351 342
460 542 606 489 502 482 470 498 509 423 350 342 326 329 279 243 241 236 237 232 234 250 241 281 266 243 235 230 222 258 346 434 409 389 386 383 377 369 368 368 362 335 189 342 349 240 353
463 610 540 430 451 503 485 469 425 386 336 335 302 322 334 278 259 249 245 240 246 261 270 256 237 230 215 238 210 386 396 398 324 368 364 102 338 202 349 350 359 401 362 396 356 352 300
470 629 532 503 483 497 424 429 454 333 334 316 319 302 300 320 284 277 269 266 265 272 254 237 227 212 247 267 351 333 346 349 352 341 316 323 355 346 362 339 101 376 384 277 261 260 254
473 568 452 472 435 445 390 359 318 325 324 301 310 296 296 327 321 307 281 279 276 250 236 227 209 239 202 275 248 253 305 310 300 300 288 277 269 268 267 268 260 150 260 257 248 251 224
482 473 436 432 463 371 355 348 326 314 311 292 280 273 152 401 282 282 281 282 246 235 224 208 232 228 273 255 256 231 251 243 259 257 254 254 248 254 247 255 248 243 236 249 248 240 241
489 455 475 384 354 350 341 333 330 317 327 305 280 283 207 255 289 291 283 244 235 225 216 230 226 215 230 243 209 202 237 249 230 232 237 246 163 242 241 224 251 234 235 243 248 232 249
498 452 452 379 373 343 344 328 325 311 293 285 302 297 215 308 302 286 242 235 222 215 223 236 206 243 243 217 220 161 239 243 232 235 237 236 226 235 94 229 219 234 216 237 238 248 249
515 463 367 368 354 354 339 326 319 293 296 284 279 292 313 285 291 231 237 223 159 208 234 213 208 244 251 194 169 245 190 201 242 210 218 232 199 212 224 163 235 129 224 234 194 252 265
521 426 375 368 332 332 321 303 304 297 284 299 301 307 284 292 241 239 228 224 185 222 232 210 216 225 246 237 196 209 245 170 218 204 212 167 158 172 184 182 234 228 173 179 235 249 88
516 410 367 360 349 297 306 311 299 272 310 303 300 283 287 240 241 229 222 210 196 237 227 209 218 220 246 219 204 231 200 203 214 237 144 213 227 160 196 207 233 181 226 206 233 249 257
503 542 382 354 351 311 294 294 297 291 302 310 287 293 253 241 223 226 216 216 239 231 220 223 219 215 223 218 251 244 235 248 243 212 200 240 209 252 232 254 206 228 244 258 211 248 252
504 576 392 351 343 329 292 301 300 293 295 306 300 255 241 238 227 218 207 203 235 231 220 216 211 210 216 218 218 207 254 191 226 248 210 221 254 215 199 242 225 211 221 246 256 237 270
614 575 400 358 351 332 315 308 314 323 323 300 273 244 245 236 226 215 203 232 232 232 227 219 214 207 207 204 210 212 190 203 193 206 206 205 223 212 217 226 183 213 212 211 229 254 194
626 613 407 371 350 324 306 316 300 256 230 304 251 241 240 232 221 208 193 235 227 226 230 214 216 213 209 208 209 207 206 200 205 204 196 195 220 255 247 223 229 222 231 235 220 234 179

GFSGBSN_2pvu_pres_003.txt.gz
Presure
293 162 296 296 292 291 330 264 295 272 271 255 247 242 236 265 317 293 271 252 234 224 216 213 208 201 182 194 198 183 196 206 211 212 220 190 231 221 215 210 227 214 199 213 220 224 272
166 312 299 275 307 313 299 292 287 255 266 251 240 239 235 313 298 279 262 246 236 228 158 207 213 195 193 199 190 196 207 209 207 195 219 222 228 226 230 236 234 231 202 211 222 219 242
346 339 339 334 327 308 311 295 284 267 265 253 240 233 231 303 287 267 251 240 229 169 125 129 214 213 190 198 195 195 205 212 200 202 211 207 228 216 223 232 234 241 227 203 216 218 248
325 329 330 337 318 312 308 293 286 264 260 246 247 232 230 293 281 259 252 233 228 226 218 209 210 214 208 206 203 192 196 203 197 214 215 205 218 229 224 223 228 237 223 220 206 223 246
299 302 287 288 306 284 256 299 287 276 264 247 245 232 225 218 279 260 251 236 232 228 225 214 209 212 208 212 202 195 205 207 220 213 209 222 228 239 226 235 221 226 240 227 218 213 235
284 277 283 281 275 273 270 312 295 278 265 250 246 238 228 218 290 271 251 242 229 221 221 219 207 199 186 203 201 200 202 207 210 220 219 231 235 224 223 228 177 200 238 233 226 220 208
287 278 279 277 242 250 257 264 260 296 272 245 246 246 232 227 217 281 255 245 241 203 235 222 212 208 211 216 221 219 215 205 213 220 225 230 236 217 225 223 228 217 231 234 228 219 222
280 263 256 261 258 250 248 252 233 249 282 272 261 240 240 228 226 217 265 262 233 229 226 213 213 158 219 222 219 220 235 232 225 213 228 227 227 220 232 222 224 233 216 225 231 211 218
272 276 266 236 230 227 249 244 246 245 244 251 277 259 240 237 224 218 215 253 266 251 238 234 228 229 231 231 238 217 228 220 215 218 217 218 228 226 228 223 225 227 236 232 220 218 219
296 294 271 242 238 230 228 229 241 234 242 247 243 266 266 243 238 217 217 220 219 231 258 251 255 244 241 240 242 240 234 238 242 244 247 249 227 233 225 228 235 224 227 228 237 222 221
288 269 269 261 266 519 512 508 255 244 245 248 252 235 243 271 262 232 227 224 142 220 226 223 219 214 211 216 232 223 231 237 236 238 251 259 277 261 252 238 245 258 245 248 238 220 225
278 289 299 494 487 500 527 584 506 472 294 254 246 255 241 244 234 232 253 225 215 219 213 209 194 193 216 214 209 212 223 220 233 261 273 294 284 271 266 259 255 244 241 240 231 227 218
286 278 484 476 607 592 532 534 530 592 461 293 264 240 249 234 234 237 222 220 209 220 204 205 210 207 208 209 214 217 224 228 263 293 288 284 280 276 271 266 263 250 250 236 233 233 252
284 397 468 576 580 521 504 508 523 551 462 521 282 252 236 236 228 229 232 234 220 222 216 217 191 213 212 208 212 215 222 289 289 289 276 271 183 250 264 271 270 272 265 249 240 246 237
285 475 473 599 552 509 504 508 536 473 450 437 413 261 234 239 234 216 212 221 215 210 214 215 212 186 216 219 220 222 276 275 257 252 260 258 259 252 241 242 250 247 242 244 236 249 240
295 463 554 529 505 466 467 488 466 474 430 383 369 345 254 246 233 227 219 215 214 213 200 203 209 203 216 237 226 269 259 239 407 421 438 424 412 391 386 378 188 77 381 394 393 395 334
374 455 609 503 479 452 481 469 449 420 442 354 372 342 325 268 244 234 226 222 217 216 210 211 216 212 226 275 260 239 300 330 314 316 335 351 373 369 404 362 365 371 82 354 380 384 396
382 457 565 519 483 456 492 457 471 400 348 332 323 342 331 280 268 242 232 225 221 212 214 208 198 221 254 253 231 224 305 296 297 297 94 311 324 335 355 357 352 372 363 374 194 362 361
460 464 535 443 454 482 483 465 395 394 363 342 332 309 309 315 279 254 245 242 228 218 221 204 229 259 248 227 277 308 258 271 276 274 270 150 275 274 86 338 381 176 121 388 374 336 326
432 464 529 443 439 412 400 410 373 343 335 344 317 306 299 318 310 314 306 263 248 235 209 241 256 249 229 270 284 242 168 257 258 254 252 251 252 252 252 250 200 282 211 299 287 290 286
362 483 479 447 391 398 390 411 332 320 318 315 327 307 308 294 190 304 339 298 261 253 249 260 248 231 251 263 226 246 160 242 235 241 239 234 228 243 231 245 250 250 260 260 254 257 257
356 502 483 433 370 378 387 398 313 306 297 297 294 293 294 296 149 224 306 299 272 260 257 244 226 205 219 219 226 198 176 244 222 241 248 229 242 224 227 247 237 245 256 243 248 246 242
368 539 484 372 351 353 348 332 316 320 308 302 302 294 275 289 161 305 297 300 268 258 241 152 226 227 219 241 211 188 200 215 222 224 229 225 236 237 233 215 84 228 241 246 243 241 240
487 554 459 364 344 328 340 330 323 279 278 284 293 284 278 294 285 288 278 269 255 243 181 220 224 222 237 251 234 170 234 219 237 228 198 238 207 229 231 243 189 235 251 197 235 235 222
561 558 402 395 350 355 318 291 310 297 290 293 261 278 288 320 287 288 263 249 244 175 172 229 220 235 240 235 242 199 206 172 212 221 219 177 165 165 134 213 130 192 179 237 222 256 242
596 563 414 379 333 341 307 299 289 308 311 305 303 297 321 290 284 261 248 244 231 222 206 237 213 222 257 233 233 188 263 231 203 203 243 162 238 153 153 193 210 245 198 178 242 243 251
409 577 594 405 390 337 296 316 306 304 283 265 148 303 301 287 262 245 244 233 224 221 241 221 216 221 230 256 243 182 213 237 227 176 212 194 242 243 219 194 182 219 201 237 218 181 254
372 591 573 409 370 332 317 314 308 299 295 294 293 297 287 265 245 245 235 231 189 218 237 217 223 219 225 214 223 251 185 220 202 190 224 226 220 207 185 231 213 205 224 219 171 212 247
355 583 578 430 355 332 325 298 314 287 312 157 305 292 270 256 246 238 232 229 189 237 227 221 214 218 211 217 215 215 217 214 213 213 192 223 231 238 190 169 216 172 211 178 208 232 227

GFSGBSN_2pvu_pres_009.txt.gz
Presure
343 338 314 177 307 305 246 313 363 321 300 282 281 270 268 270 262 251 269 250 314 311 260 259 234 224 207 229 217 205 215 157 212 211 216 210 210 213 215 205 214 182 185 192 204 191 202
353 333 327 310 301 287 293 286 292 296 342 345 297 286 283 279 260 262 246 291 301 302 240 266 234 235 214 217 207 213 205 208 169 185 214 219 209 198 203 212 203 197 188 208 190 197 210
336 342 219 314 306 303 287 272 271 280 288 280 309 341 308 299 292 292 288 293 285 260 282 268 242 230 216 208 207 212 210 206 201 203 214 217 220 203 203 204 208 205 196 184 177 183 218
355 339 236 310 310 277 268 282 280 269 267 276 274 300 325 301 295 301 292 275 274 275 281 263 251 229 217 208 207 209 206 216 205 199 202 209 217 217 200 194 208 207 209 203 209 216 226
298 315 235 298 291 285 266 254 243 264 270 266 245 272 286 311 298 293 279 268 270 263 266 262 248 229 212 205 215 215 205 207 192 203 201 207 212 217 207 196 195 202 212 211 210 212 226
290 268 317 125 292 291 266 258 255 250 249 254 263 236 264 291 299 292 276 266 265 248 243 243 236 226 215 212 206 208 212 125 127 126 206 209 211 209 215 201 204 203 197 206 209 216 208
274 357 317 248 292 282 261 248 256 260 252 266 255 256 241 266 308 293 278 265 251 244 231 232 227 221 218 219 219 213 209 209 212 216 215 213 216 215 216 218 197 197 204 208 211 216 220
326 314 308 267 299 283 258 301 509 501 503 517 281 252 254 240 246 298 284 257 252 240 232 226 223 212 296 286 238 229 231 228 225 221 221 220 216 215 210 214 211 217 220 214 212 213 220
348 286 172 308 309 273 299 500 563 615 601 487 501 288 250 252 244 300 296 259 257 241 245 236 220 287 280 277 268 254 248 239 234 230 227 217 217 210 212 209 212 217 219 220 225 226 228
285 281 313 313 301 273 488 573 571 547 546 554 490 502 267 244 250 261 295 263 255 240 244 234 223 282 274 269 264 256 247 240 233 227 223 216 207 212 215 207 215 217 218 220 223 229 228
279 272 322 317 308 288 499 574 543 529 529 539 490 498 306 252 249 242 276 264 259 238 239 239 223 273 266 266 249 244 239 235 230 219 217 220 217 149 223 223 225 228 232 239 245 251 252
278 290 318 313 304 398 508 505 510 503 484 493 543 479 367 252 238 223 248 280 263 238 236 231 223 274 263 255 241 241 233 233 232 225 222 227 224 226 231 237 240 246 245 252 267 272 289
297 287 321 314 301 474 485 502 495 457 445 457 544 471 457 269 246 231 230 283 272 238 233 231 220 228 264 191 239 236 233 232 231 233 229 224 227 233 236 237 238 248 245 242 238 228 219
271 295 322 313 296 492 453 479 459 435 445 461 488 472 498 296 254 243 232 250 281 246 223 226 223 215 209 220 257 249 243 228 227 231 219 207 203 214 219 229 227 229 245 259 266 268 273
292 327 316 312 296 483 446 494 434 413 425 429 488 489 499 400 266 248 237 242 261 257 232 222 224 221 214 211 207 207 206 204 205 206 210 210 214 220 219 226 250 320 337 413 354 385 400
286 328 306 312 296 463 445 484 438 428 419 439 489 471 445 403 275 252 243 225 238 258 241 220 223 225 214 211 211 209 147 210 207 210 217 218 206 226 281 326 326 339 347 348 353 394 380
285 322 308 312 481 444 494 472 449 426 429 445 444 461 374 380 292 264 246 220 235 231 257 240 221 226 220 215 213 213 213 213 213 216 212 212 257 334 340 333 344 332 327 326 336 355 349
329 319 310 313 465 437 473 490 442 422 434 436 438 384 351 375 299 271 243 226 229 234 233 257 245 234 230 220 217 221 220 209 206 222 210 263 254 242 227 265 251 333 130 222 86 338 160
280 316 308 313 411 436 521 482 435 438 446 370 385 388 341 341 329 280 232 234 225 234 234 259 259 211 210 209 214 210 208 209 215 217 220 250 201 229 275 270 274 342 340 343 303 391 184
283 298 300 307 299 493 485 458 435 440 400 354 351 356 325 336 336 282 241 236 229 233 221 224 229 231 223 217 211 209 215 213 219 244 208 224 230 255 266 266 256 262 288 307 335 361 394
280 310 299 302 297 410 439 426 442 425 368 345 348 334 317 336 342 305 273 236 224 230 230 222 219 219 220 211 214 215 208 207 225 248 232 254 235 245 255 227 246 258 275 268 295 298 305
282 310 295 294 294 405 417 415 394 438 365 345 325 313 326 344 298 312 285 239 230 231 223 214 208 209 210 212 209 198 205 258 220 173 246 244 244 234 235 228 240 240 246 275 281 279 288
319 195 295 292 288 390 419 377 325 355 327 318 325 322 355 319 315 233 160 215 233 231 221 217 213 212 213 214 208 208 216 252 202 231 228 253 239 223 222 233 228 223 229 236 248 252 260
305 309 291 288 286 408 396 383 343 307 324 332 313 311 317 308 312 326 343 156 204 234 226 214 211 210 217 209 215 213 252 250 195 202 218 242 251 231 229 217 235 230 219 231 212 241 255
299 282 294 284 282 400 397 357 304 293 326 321 307 301 293 294 298 300 323 312 221 228 217 217 217 221 198 222 214 236 247 240 201 218 207 208 153 240 211 230 241 245 228 224 227 222 233
129 288 301 283 280 363 392 356 341 323 324 308 309 288 288 297 293 311 298 317 296 229 231 223 225 179 229 219 220 184 255 218 211 229 195 247 188 169 227 222 171 218 177 227 229 230 223
303 292 315 285 275 284 403 348 339 325 320 308 301 294 205 297 277 283 314 298 304 259 236 232 230 206 228 236 271 225 257 191 211 176 219 205 180 205 214 200 181 218 223 217 198 222 234
290 304 280 292 276 270 403 376 351 326 326 317 303 318 159 295 287 290 289 309 294 298 258 241 240 216 240 275 223 247 253 204 216 180 192 164 202 203 148 212 183 188 210 205 190 189 215
297 296 279 309 279 269 338 391 343 323 323 303 295 305 293 135 308 290 285 309 298 288 275 260 259 262 255 224 229 250 234 212 176 215 161 203 185 216 213 220 218 181 225 211 225 210 224

GFSGBSN_2pvu_pres_012.txt.gz
Presure
143 269 126 292 343 323 327 305 294 288 285 294 329 322 305 281 279 268 262 258 248 239 236 239 220 236 230 253 211 223 210 208 223 212 208 207 200 214 223 208 206 221 212 215 212 208 209
137 280 180 285 342 316 315 316 307 293 283 279 277 295 338 292 264 254 268 266 256 244 238 245 252 238 249 268 226 225 226 214 203 216 215 185 208 206 205 216 210 215 213 210 203 212 205
142 307 295 292 352 251 306 301 304 272 272 277 281 273 277 293 299 271 248 266 234 257 254 256 248 265 259 266 256 221 227 217 213 209 217 218 219 142 212 217 218 208 203 214 208 213 213
133 303 272 281 335 279 293 294 290 277 269 255 257 266 273 277 278 293 315 264 266 270 263 266 267 265 283 311 244 237 218 226 215 207 208 216 201 206 194 209 203 215 208 205 208 214 207
116 290 274 285 333 293 301 294 279 237 248 252 255 252 252 261 267 274 288 334 291 268 276 270 241 265 294 293 273 253 227 223 215 204 218 208 211 208 203 198 197 217 222 207 203 207 210
286 341 272 290 315 284 300 300 275 260 214 240 274 277 254 249 256 265 270 313 310 304 301 285 289 282 284 286 266 242 234 223 220 203 212 209 209 207 209 206 203 199 209 218 205 206 206
159 293 305 327 325 320 305 287 287 500 499 499 492 502 306 253 250 260 267 278 311 294 286 276 276 268 229 269 246 259 238 223 219 205 204 205 207 203 208 208 198 198 204 213 216 200 205
194 296 256 328 333 308 316 294 511 485 498 581 576 608 482 310 253 254 269 269 291 278 278 269 260 266 262 269 257 247 236 225 218 208 209 206 204 192 202 209 212 206 206 210 217 221 221
263 294 284 332 327 325 306 484 488 499 550 510 522 564 495 440 294 251 266 254 287 279 273 262 258 262 253 257 248 240 236 223 215 207 207 217 173 172 208 209 205 206 213 215 219 222 222
263 128 322 304 320 326 308 510 510 503 517 506 487 544 492 508 307 257 250 250 279 280 267 259 259 246 240 239 237 236 231 221 213 209 209 211 211 210 208 208 215 219 221 223 224 94 118
265 159 332 298 327 317 572 501 470 463 466 468 482 534 485 472 322 260 246 249 272 281 272 258 254 241 232 231 225 221 218 213 210 217 215 215 216 216 218 223 226 225 226 227 219 229 228
227 159 312 308 329 313 507 461 438 453 451 448 449 473 512 467 333 262 243 248 274 287 275 264 247 238 228 218 230 219 209 240 272 272 242 235 233 232 235 238 237 237 235 230 221 227 235
263 159 308 332 332 312 431 445 466 442 420 411 438 479 511 484 335 263 251 243 272 293 268 252 246 238 233 227 221 271 274 267 266 264 259 261 255 249 241 238 237 233 231 236 241 244 238
265 295 289 349 333 311 426 421 434 436 413 416 432 506 601 477 326 263 250 250 266 287 262 255 236 235 228 220 277 273 264 260 256 259 261 252 237 231 233 233 234 238 242 243 229 238 217
304 308 277 350 332 313 545 479 445 430 421 428 456 516 472 376 319 266 250 233 261 284 258 245 235 225 225 225 275 266 256 254 249 243 238 231 224 225 226 223 219 222 223 226 231 264 348
299 293 286 327 334 314 545 469 447 430 435 456 431 497 477 360 314 266 250 216 244 278 261 228 230 228 222 217 261 273 260 253 245 239 220 213 211 210 216 221 216 223 271 326 332 270 343
301 289 288 327 334 314 588 474 440 420 437 461 431 453 459 344 319 266 248 231 227 277 252 226 227 226 224 215 214 213 211 214 214 211 210 212 212 219 212 226 266 248 299 368 382 355 351
301 287 288 326 329 312 446 437 437 447 435 421 486 479 361 369 328 260 233 236 227 270 245 231 223 226 225 222 216 211 215 213 209 212 212 220 213 216 266 229 266 282 299 310 264 363 367
141 280 283 314 324 308 412 450 458 451 441 446 466 445 348 364 326 253 237 235 230 248 254 239 230 216 219 221 216 212 211 215 213 221 212 213 231 246 241 240 234 251 265 127 86 265 331
267 274 294 309 319 312 400 459 410 413 443 461 457 390 334 353 226 255 236 221 227 231 252 256 235 224 219 224 224 224 219 221 218 210 204 238 232 222 209 240 231 243 240 168 174 292 315
147 284 295 306 317 313 320 458 396 391 430 398 426 368 250 359 324 265 241 239 225 216 240 253 247 234 232 217 228 210 211 217 214 207 221 227 215 166 242 217 225 245 249 251 258 269 301
272 282 308 316 293 311 290 450 395 379 374 367 347 357 380 352 337 295 240 234 230 224 232 228 237 254 248 251 214 217 215 216 198 225 196 229 210 238 223 229 220 212 227 245 253 255 260
276 281 301 299 300 311 295 430 375 356 354 330 354 375 328 335 310 274 201 146 235 231 227 224 233 246 242 233 222 212 219 198 219 241 214 228 240 231 231 230 81 222 224 225 238 250 248
281 278 306 298 300 304 297 288 374 362 345 342 322 324 333 325 331 312 253 172 193 222 230 225 223 220 221 221 216 218 199 216 239 232 221 219 233 230 235 237 217 216 208 217 227 232 242
258 277 287 285 301 297 299 276 340 336 321 338 346 336 327 320 329 225 275 241 208 216 228 222 225 215 215 212 218 204 210 222 248 220 182 177 207 244 224 235 229 227 226 216 216 219 229
234 281 284 280 294 314 296 281 282 343 328 335 317 331 322 329 333 337 331 294 209 228 233 225 226 214 220 211 215 213 215 235 226 199 200 231 157 216 226 227 225 220 226 226 227 223 220
166 277 280 280 290 307 297 279 259 353 350 336 314 310 309 310 309 310 322 342 246 233 231 233 223 213 218 218 214 217 213 239 252 217 199 195 194 219 222 208 177 223 213 226 225 217 227
262 283 278 275 290 306 306 282 270 296 335 326 322 291 306 132 303 306 310 332 279 237 232 232 221 224 221 213 221 226 187 240 222 213 220 205 156 203 169 209 174 214 223 211 216 223 213
255 274 280 283 302 300 289 284 271 281 339 331 330 319 306 306 297 306 310 311 302 246 234 233 228 228 223 198 230 222 260 236 214 237 185 191 222 155 205 193 169 202 220 220 211 218 227

GFSGBSN_2pvu_pres_015.txt.gz
Presure
181 229 271 271 304 313 322 342 304 312 306 300 291 296 296 303 321 307 281 263 252 245 254 247 232 235 232 228 232 232 231 217 227 201 201 205 199 202 201 201 208 207 192 200 201 179 175
226 251 275 182 282 321 346 325 307 293 302 296 283 286 287 288 295 346 304 303 313 271 244 266 239 225 235 227 223 242 210 231 224 221 207 200 207 197 198 202 197 206 201 198 199 200 196
198 249 276 253 282 312 308 315 285 291 291 290 299 272 268 277 277 291 339 289 287 294 295 248 256 247 235 237 237 240 233 217 232 221 222 214 205 198 204 203 206 200 204 206 215 215 221
224 241 229 152 290 295 223 331 311 294 281 278 271 289 266 259 266 274 282 326 285 279 290 259 259 257 238 235 233 242 242 239 214 239 222 216 217 207 210 215 211 208 207 206 207 209 208
224 243 229 260 309 299 337 332 324 294 281 279 273 271 262 244 253 255 272 278 318 277 261 276 261 257 243 233 237 230 247 217 248 225 242 223 218 213 203 203 211 215 211 187 214 196 212
201 229 259 266 284 319 338 327 309 306 541 537 536 529 300 283 250 250 245 263 278 299 270 256 262 255 253 253 243 237 243 255 228 247 239 221 227 216 214 202 200 209 214 213 214 210 214
215 229 263 273 282 304 322 339 301 631 583 526 514 569 580 633 297 256 245 247 264 277 297 276 256 264 258 255 245 239 253 247 272 272 265 244 222 222 215 212 200 206 207 211 199 209 214
205 230 293 268 284 316 332 331 313 443 489 529 533 524 528 592 509 299 252 247 260 261 252 274 321 267 261 261 263 261 259 253 267 300 269 247 222 217 218 209 201 205 209 210 210 212 207
176 224 278 311 283 341 336 316 442 438 444 473 499 506 501 552 507 491 286 248 240 250 248 267 309 309 278 264 266 274 259 274 286 276 252 260 234 218 217 213 199 210 219 207 213 212 213
189 213 280 319 284 332 340 306 484 476 462 436 457 453 488 539 480 476 295 255 239 249 252 264 292 286 286 286 286 282 272 272 273 254 254 256 240 219 217 216 209 207 206 207 209 210 209
208 218 282 301 295 332 337 428 564 442 431 415 436 440 476 484 474 484 325 285 240 245 254 272 288 277 273 269 264 260 259 266 261 240 255 240 236 220 217 214 208 206 206 208 212 213 210
128 222 284 300 303 337 337 592 546 455 440 428 420 424 460 500 461 409 326 292 249 245 258 284 279 269 262 258 254 253 253 256 256 250 250 249 231 225 216 210 211 208 208 210 214 213 213
134 227 285 297 315 352 335 613 483 450 417 431 428 422 451 495 470 356 320 262 251 253 258 285 276 259 255 252 250 246 239 243 242 239 239 234 229 226 213 211 210 209 210 211 214 217 219
128 213 286 300 315 338 337 473 460 422 434 439 435 434 517 560 360 348 314 256 251 257 258 285 271 257 250 250 245 236 233 231 229 228 219 228 224 218 218 215 214 215 219 222 228 242 258
142 285 282 144 314 337 343 437 442 437 434 452 435 472 551 490 412 349 304 256 253 258 248 280 264 249 251 243 237 230 228 225 221 227 224 206 213 224 227 244 272 274 271 265 249 241 241
231 282 277 304 305 332 335 432 442 443 435 444 459 511 465 504 397 319 290 258 239 240 273 278 257 250 243 239 232 237 226 226 222 238 274 266 261 251 247 249 245 234 230 222 220 225 232
290 277 277 300 306 309 340 456 433 434 443 441 445 447 483 363 329 310 261 248 237 247 279 267 254 242 246 235 236 225 219 258 262 254 251 248 243 243 236 219 213 212 214 228 269 303 316
140 273 263 300 300 305 343 427 412 429 464 474 469 458 377 344 322 266 250 232 238 249 277 260 248 239 230 228 223 258 283 267 250 243 234 233 228 203 212 206 209 243 263 256 249 289 284
281 270 257 298 300 303 341 310 417 437 435 487 489 530 360 345 320 261 253 220 236 272 283 250 245 232 219 215 221 218 249 242 232 222 216 215 216 203 207 229 231 248 259 250 256 266 262
269 267 273 292 298 293 319 314 377 439 446 475 465 405 355 325 259 265 217 228 217 277 262 250 238 220 219 219 215 214 216 217 218 214 217 217 207 224 230 254 228 233 231 235 243 84 262
170 265 264 281 284 297 315 327 416 414 466 414 392 348 325 311 250 256 237 233 226 274 261 244 229 223 218 222 222 218 214 213 219 219 217 200 218 226 252 235 220 226 226 227 240 125 131
267 238 276 280 283 296 311 323 298 399 364 401 382 332 322 318 227 243 232 217 232 249 251 244 233 221 220 219 221 219 217 223 225 212 197 216 237 223 241 232 216 225 217 224 229 228 245
102 260 278 285 274 288 282 298 312 306 396 358 324 306 344 337 271 244 234 213 234 230 262 248 240 232 224 222 224 223 217 216 211 209 239 232 219 243 184 237 215 218 219 217 220 233 231
273 265 235 260 282 283 282 277 283 286 360 357 349 361 327 354 320 251 251 235 194 228 229 259 255 237 231 225 223 214 217 220 200 202 238 227 228 240 224 233 218 229 217 213 224 231 221
291 275 266 277 279 281 277 301 317 308 280 348 336 354 362 364 345 264 240 239 224 185 217 239 248 246 242 242 232 217 230 209 195 241 212 228 174 240 230 231 220 220 226 216 225 216 227
290 288 190 283 278 185 304 296 313 299 286 282 362 352 361 359 308 320 261 241 242 225 227 224 232 236 251 252 231 224 213 195 216 247 211 161 191 220 224 236 211 218 207 208 220 217 222
284 272 268 262 279 211 269 269 313 295 289 269 292 348 336 333 336 335 280 250 238 243 229 228 227 228 237 221 216 218 197 206 221 239 183 244 238 219 199 220 206 226 185 213 208 221 224
282 270 276 278 122 268 263 287 308 295 287 268 270 335 342 326 332 267 338 261 235 221 231 224 218 223 228 217 222 201 216 209 203 238 169 202 184 214 208 223 208 211 211 185 225 221 219
279 262 261 271 103 266 264 275 312 318 284 273 266 341 332 322 314 313 268 316 252 244 240 232 231 229 223 221 217 220 200 214 228 242 176 174 193 177 211 211 138 214 201 224 211 219 211

GFSGBSN_2pvu_pres_018.txt.gz
Presure
118 128 128 194 251 271 304 284 289 308 331 303 313 223 299 288 294 298 317 313 323 269 256 236 245 244 233 253 227 203 241 234 215 223 204 203 205 194 188 187 183 184 184 182 177 187 188
159 131 133 153 256 301 282 277 297 338 314 300 321 309 312 282 287 287 292 313 305 294 252 254 245 249 242 237 242 233 232 232 229 235 217 212 203 201 200 198 187 186 189 181 182 190 184
135 184 183 195 265 287 275 285 300 318 346 330 315 280 276 98 283 278 286 284 312 308 289 272 256 257 239 241 238 240 235 234 219 244 219 231 205 203 203 207 201 196 196 190 182 182 194
107 165 123 221 128 294 274 300 343 331 350 298 367 334 316 292 289 213 275 278 281 317 305 280 261 250 234 238 237 240 231 231 246 221 232 228 228 213 202 201 198 200 197 204 205 207 206
163 171 133 141 185 295 275 306 322 314 315 454 453 442 452 580 432 297 277 275 276 271 333 296 277 257 246 245 241 232 239 229 218 232 259 221 242 216 225 202 203 197 196 201 202 205 204
140 133 125 162 165 297 290 301 327 337 465 561 465 438 467 524 534 331 274 269 269 268 270 300 295 298 256 242 244 243 238 230 226 230 232 231 232 239 221 222 205 204 207 203 200 197 196
141 140 139 144 256 296 310 320 355 332 515 485 444 508 524 511 543 513 301 272 268 252 274 285 290 285 286 292 259 242 245 233 226 229 225 235 229 241 216 231 223 224 210 201 203 205 204
124 134 205 160 140 291 315 335 352 550 520 465 464 461 495 496 508 578 512 265 258 257 262 263 297 283 268 266 282 291 268 237 235 231 234 231 244 240 244 217 231 223 219 221 221 220 220
121 143 191 183 297 312 313 339 335 601 485 441 422 449 434 492 524 574 492 283 265 251 245 260 265 312 275 263 268 256 264 254 242 232 228 227 232 246 240 237 221 225 236 227 221 217 214
116 204 136 251 297 306 316 331 324 503 438 429 416 414 431 459 484 554 474 297 262 248 249 243 260 268 288 260 247 259 247 255 238 228 238 236 238 242 239 240 237 249 237 240 227 230 215
121 191 144 237 295 308 323 340 337 430 437 424 417 423 420 428 512 515 481 354 265 253 246 250 248 261 266 279 305 253 266 253 254 248 246 238 231 242 251 289 296 257 260 242 227 223 219
203 225 238 293 328 215 324 332 342 408 446 425 444 431 428 431 491 460 416 348 286 250 243 249 244 253 254 282 305 297 261 262 254 249 254 262 267 260 284 280 270 257 258 245 235 222 219
202 152 237 295 303 327 321 342 331 434 442 430 420 426 440 466 510 388 360 333 315 270 246 237 241 254 251 289 283 283 284 276 262 271 280 273 271 273 263 254 250 252 252 249 234 219 218
213 228 238 293 291 322 315 322 419 451 441 440 435 493 514 526 434 356 351 326 316 280 241 237 238 257 294 281 273 271 273 272 268 258 254 261 259 256 248 234 249 244 234 240 234 221 209
221 232 240 298 289 300 310 329 339 442 452 451 456 491 535 540 362 359 339 318 319 272 245 231 247 247 281 269 262 258 255 250 250 251 253 252 249 251 247 239 239 237 236 227 223 222 214
228 238 132 290 285 166 367 338 336 432 435 474 458 492 508 298 354 337 324 315 297 259 243 232 244 282 264 256 253 247 243 244 241 231 239 238 235 233 234 236 232 226 222 219 214 210 212
149 237 285 297 282 297 314 322 332 446 463 480 337 473 504 372 234 322 320 322 266 239 232 244 246 274 259 253 247 247 242 234 233 231 230 229 222 225 224 210 207 213 213 241 245 236 237
230 245 283 295 282 294 319 344 334 422 493 503 263 359 360 361 328 328 316 266 251 233 246 235 278 263 249 248 241 240 236 233 232 226 223 227 219 220 246 249 242 238 232 226 224 255 257
249 270 272 295 271 295 364 312 337 469 485 534 537 348 362 359 347 305 266 230 230 241 250 282 270 257 248 240 238 231 235 236 232 235 227 255 257 245 236 232 224 219 215 235 242 245 242
241 265 182 289 274 284 305 296 328 306 549 485 531 366 316 346 292 267 248 238 245 246 277 279 258 242 241 236 232 234 231 256 265 254 251 244 235 223 217 218 216 230 245 234 233 234 236
236 272 211 288 264 282 298 281 299 324 441 389 384 341 354 293 245 250 253 239 240 233 288 259 246 239 233 230 227 227 266 257 250 241 230 217 209 213 225 218 238 229 224 228 155 233 239
305 256 182 281 268 255 282 270 291 310 292 342 345 347 301 260 261 254 231 200 227 278 271 250 240 233 228 223 218 217 213 210 214 217 212 210 214 214 214 208 236 222 224 220 213 225 218
269 257 181 291 268 252 280 274 291 284 323 285 368 335 319 278 256 255 229 231 187 277 261 248 237 230 226 223 221 218 217 217 212 217 221 214 222 199 247 219 227 222 218 212 213 219 226
265 263 232 283 275 267 282 284 267 306 279 307 296 398 340 323 255 253 241 228 233 224 258 245 226 227 227 223 221 221 219 217 220 217 214 219 227 225 239 242 223 221 214 211 221 201 217
293 290 207 276 283 280 268 281 278 286 287 321 298 286 393 371 304 253 242 239 229 224 188 248 235 227 226 220 219 218 220 226 214 214 212 248 226 225 228 239 225 212 225 218 210 216 225
266 274 271 282 284 290 255 279 276 292 269 312 311 287 280 393 349 273 253 240 243 229 231 246 241 232 231 227 225 217 224 215 216 204 240 228 221 168 201 198 217 224 219 207 210 224 215
298 282 229 278 93 286 276 267 278 282 272 287 305 305 265 279 396 377 274 255 238 241 222 240 239 243 237 234 232 229 224 232 208 209 222 228 213 236 221 206 179 208 217 212 214 223 224
297 283 289 284 284 277 284 286 273 280 267 277 306 269 294 262 286 380 373 264 251 236 236 231 227 249 247 243 240 242 225 227 213 211 221 235 210 193 226 192 194 205 206 208 211 219 210
290 280 291 284 283 282 291 283 271 276 277 293 257 299 297 278 267 327 348 347 264 250 242 229 230 230 234 237 250 256 237 210 198 215 213 227 187 191 214 200 215 168 229 219 153 230 210

GFSGBSN_2pvu_pres_021.txt.gz
Presure
121 137 137 229 235 211 168 157 284 281 306 340 339 343 337 346 183 307 298 304 309 325 324 274 262 248 250 256 242 245 211 214 198 176 210 222 219 214 214 210 191 177 182 186 170 187 180
119 112 119 135 122 148 138 284 297 297 315 374 337 317 298 287 293 334 128 297 303 299 331 297 278 261 253 239 228 243 238 231 182 205 231 183 213 214 207 208 213 200 180 188 179 172 195
139 104 140 124 223 260 185 163 295 311 321 334 481 470 459 466 555 309 286 304 296 299 295 325 296 264 248 252 239 246 233 245 231 221 197 234 176 213 167 205 193 205 193 190 185 193 174
131 182 133 128 231 261 138 152 299 359 368 486 575 559 552 556 456 406 308 300 294 287 295 313 310 294 251 248 236 237 226 235 234 239 220 201 193 207 212 202 207 196 204 194 186 187 190
185 133 134 228 239 261 289 315 306 333 346 574 544 513 491 482 468 446 361 291 285 290 288 290 318 313 266 260 243 238 229 228 223 236 241 212 234 167 195 196 210 203 203 204 207 197 188
123 192 207 226 166 265 292 315 339 341 490 587 487 468 472 522 444 437 433 324 279 282 282 290 292 309 312 253 250 242 234 235 234 221 242 230 230 241 200 230 173 213 210 203 203 201 203
146 141 210 228 244 267 306 311 338 360 494 476 448 444 450 461 506 510 547 425 276 277 272 281 282 301 294 311 266 244 229 233 236 235 237 246 232 236 225 214 217 225 199 212 209 207 208
130 139 219 229 271 280 305 311 357 357 468 460 455 431 419 445 479 528 530 512 346 272 277 278 282 278 302 296 284 266 243 233 239 223 226 230 233 226 243 247 209 238 223 234 224 213 213
167 204 221 230 108 310 315 309 367 348 452 430 429 430 432 436 464 510 567 498 426 272 278 267 271 261 311 288 292 276 249 237 249 243 232 224 233 232 220 224 234 242 229 228 228 226 213
184 231 221 230 256 300 295 267 383 366 417 439 428 429 440 423 413 512 526 475 399 271 262 270 262 264 318 291 286 294 261 261 230 256 233 229 230 232 229 226 227 239 237 233 248 243 240
123 231 222 231 255 274 307 319 373 415 431 434 443 428 434 423 431 482 481 451 371 274 266 259 261 271 257 301 273 274 281 284 243 272 243 236 226 233 234 226 226 230 241 237 254 256 262
138 236 220 231 257 304 297 330 377 446 450 440 449 448 465 435 437 539 461 406 321 270 264 263 259 258 262 274 297 267 264 270 277 253 253 246 247 242 235 230 234 233 230 236 242 245 258
123 213 219 231 257 294 298 317 376 459 470 465 459 468 487 468 517 447 409 368 336 278 260 254 239 241 257 262 289 278 264 258 255 258 258 265 263 263 233 232 230 234 244 250 249 253 275
120 213 219 167 273 281 288 314 375 451 490 474 469 511 524 542 388 377 385 345 310 260 257 251 242 244 243 258 262 266 277 268 259 258 251 254 251 242 252 249 248 247 252 260 264 295 269
183 194 217 166 276 294 286 324 365 499 510 482 508 540 522 438 374 347 330 324 295 264 250 245 240 247 245 250 251 253 299 297 294 254 262 265 258 258 258 261 265 279 292 274 255 250 246
151 109 217 229 277 280 313 310 346 415 520 509 475 311 401 370 349 338 333 324 287 260 248 245 237 238 240 249 273 281 277 276 279 288 296 272 262 274 281 277 269 259 249 233 240 237 236
195 203 214 227 91 306 300 306 340 541 561 557 394 370 364 343 348 354 336 340 282 258 245 235 228 232 253 278 274 268 270 268 265 267 269 266 262 259 261 252 248 244 239 233 231 230 228
194 202 213 227 279 303 308 298 318 421 376 407 376 382 280 349 349 357 336 334 291 260 251 243 229 246 258 282 269 266 255 250 249 245 242 243 243 249 240 236 232 230 224 219 217 214 218
127 194 212 236 280 288 298 292 308 341 366 374 389 375 361 368 348 345 314 291 268 263 245 233 244 273 271 255 247 251 246 240 233 231 229 231 233 226 225 229 223 216 214 219 238 234 239
200 194 209 291 282 264 249 287 278 290 318 336 369 386 317 267 288 283 272 260 250 243 243 242 263 270 256 247 244 239 235 233 232 230 229 226 223 219 236 246 237 236 236 230 230 222 231
193 193 209 274 287 289 254 296 292 309 324 384 323 303 290 282 279 250 226 225 248 246 258 277 277 255 245 243 240 235 235 236 235 231 225 256 251 247 239 235 231 232 232 225 228 231 231
192 179 223 285 301 287 286 297 283 291 282 327 397 293 264 264 235 243 220 237 242 251 283 281 248 246 241 241 239 238 235 227 274 263 260 247 236 231 224 221 224 219 241 229 235 227 223
209 195 254 289 300 287 278 287 292 277 298 283 289 377 293 273 255 242 237 239 241 250 279 253 243 240 236 232 232 229 286 266 259 246 235 228 212 210 217 241 234 235 212 226 228 218 208
188 236 274 287 304 286 280 287 279 286 291 304 289 286 338 319 275 253 242 240 193 264 260 246 243 237 230 231 223 220 218 212 210 211 211 208 223 218 227 200 237 229 227 230 222 217 219
236 256 285 260 302 287 278 269 290 272 284 294 297 290 281 309 389 277 257 241 237 233 255 250 157 232 227 227 220 219 215 214 214 211 216 223 210 225 252 191 244 229 232 218 215 208 214
261 269 282 291 282 278 285 277 289 272 273 289 290 304 288 322 293 405 295 261 243 239 230 254 245 235 231 225 219 220 219 215 215 217 221 214 221 225 250 234 239 222 215 211 208 214 220
303 291 291 288 289 292 279 286 256 278 281 288 277 298 320 310 273 280 378 322 253 243 238 218 249 240 231 226 224 218 217 218 219 225 211 213 235 223 222 213 199 207 205 214 193 213 217
306 290 283 289 281 293 290 288 276 293 277 281 284 288 312 301 315 287 280 389 348 248 248 234 220 245 210 231 228 223 219 214 218 209 215 212 225 220 225 236 201 214 180 209 200 217 213
275 300 296 291 287 305 286 291 277 281 300 277 282 285 314 290 309 327 262 281 391 324 246 249 234 229 236 234 235 235 233 230 219 222 210 217 235 182 172 191 217 209 169 210 204 209 220

GFSGBSN_2pvu_pres_024.txt.gz
Presure
139 139 119 89 205 227 253 141 281 304 295 326 392 353 485 500 481 374 313 346 315 317 309 334 339 282 266 254 250 262 219 202 217 163 182 159 220 146 216 217 213 195 198 178 177 178 164
109 141 203 193 171 228 250 272 312 280 303 370 357 508 492 531 546 483 433 312 332 306 309 307 326 298 281 260 256 249 256 222 201 229 198 180 215 183 163 222 218 205 204 181 175 185 177
104 117 136 192 194 227 246 271 309 282 325 367 525 550 532 536 510 543 442 338 319 311 304 297 321 321 307 257 255 244 246 259 235 201 214 191 215 229 159 170 199 213 205 200 188 191 177
125 122 240 192 194 227 242 277 264 284 324 364 515 491 478 474 515 527 534 436 313 314 298 295 296 318 276 257 257 244 244 245 238 209 203 243 196 211 220 222 187 194 208 199 193 201 194
119 129 240 190 210 196 242 276 319 304 329 414 460 479 452 451 466 519 472 482 319 301 293 296 295 297 313 263 268 246 233 252 241 244 248 203 232 204 184 206 210 217 212 206 206 202 187
104 140 239 193 157 227 242 277 292 333 354 422 441 452 450 453 454 479 533 480 412 302 294 293 291 295 311 303 292 250 240 243 238 231 239 252 215 237 205 177 181 207 172 215 213 209 214
120 211 240 223 211 226 241 277 291 328 368 450 434 433 434 441 445 463 520 446 430 300 295 282 294 289 302 306 301 251 238 240 241 239 246 224 238 239 203 197 199 207 203 169 212 211 205
118 160 240 210 213 225 241 278 316 330 395 459 435 432 434 434 434 459 495 419 422 298 294 287 284 281 275 304 293 274 248 246 242 233 237 228 222 228 239 215 210 206 196 204 168 206 205
189 223 237 201 214 226 240 281 307 354 439 448 446 446 432 431 425 443 522 422 417 299 297 283 276 277 275 296 305 286 261 243 241 251 232 235 230 231 240 238 244 210 214 234 208 200 190
227 198 221 204 206 227 239 284 337 385 476 475 463 462 446 448 427 452 510 418 404 298 285 274 263 271 274 296 293 296 281 269 237 237 241 226 230 224 227 234 217 240 237 217 219 239 219
135 133 199 210 201 225 236 305 341 454 506 490 463 457 450 448 429 428 554 506 403 292 280 261 266 267 278 280 289 292 292 280 257 240 241 233 236 228 217 233 223 241 247 234 237 242 224
131 147 117 189 195 221 234 279 300 440 518 486 475 478 483 474 444 467 502 429 387 281 269 152 243 263 278 263 297 297 271 292 267 247 246 246 234 229 234 236 225 214 232 234 226 233 236
142 142 182 193 195 215 232 288 300 559 522 519 511 522 505 474 511 513 417 377 347 288 273 267 271 264 268 260 293 283 281 283 274 264 258 257 243 235 234 234 225 227 227 229 236 225 226
220 102 182 181 217 211 232 296 363 497 488 439 554 476 506 469 472 412 372 347 355 281 267 268 261 257 257 252 292 276 275 280 285 293 269 258 252 251 236 236 250 231 233 236 238 237 234
215 110 184 174 217 204 243 285 328 378 433 411 409 407 409 405 380 357 348 350 329 267 267 240 262 249 260 257 263 292 275 267 269 274 281 286 260 258 262 234 264 259 262 233 238 239 237
213 131 161 169 214 230 253 283 318 346 391 419 375 367 363 371 296 339 353 317 272 260 252 251 239 238 246 256 261 259 285 279 267 264 260 263 266 273 271 253 253 267 261 261 261 253 239
225 136 221 171 155 248 255 281 286 343 393 398 386 351 347 346 379 353 321 288 268 257 248 250 249 247 242 250 260 262 250 254 266 268 263 262 260 255 258 252 252 249 249 243 249 248 269
225 130 184 176 154 265 257 281 273 309 374 406 359 373 321 345 343 347 287 272 263 252 254 231 231 234 233 250 251 298 292 289 288 286 291 289 254 254 260 260 258 259 267 273 266 260 250
144 234 197 202 215 249 259 281 273 297 316 314 320 360 282 361 328 297 280 264 258 251 232 226 227 237 240 275 284 270 267 265 266 268 271 276 287 282 279 276 263 258 249 246 243 237 231
126 190 205 192 224 266 262 282 294 316 289 352 306 302 303 257 323 300 259 264 258 239 232 239 235 239 286 268 256 254 252 251 251 251 254 256 254 251 249 243 239 235 235 229 225 224 223
127 184 211 186 246 266 208 285 299 299 297 286 326 288 269 265 265 241 290 278 263 256 242 239 239 265 269 254 252 247 242 242 247 244 240 234 234 231 231 229 226 224 218 228 239 237 235
201 188 205 135 284 266 268 276 285 268 309 253 313 335 294 263 257 243 241 246 232 252 253 238 266 269 251 249 243 243 242 239 235 233 228 226 226 226 223 218 255 244 236 233 235 220 231
214 195 207 240 274 297 281 276 280 284 289 288 292 319 284 291 264 259 250 243 241 254 265 277 281 256 249 247 240 238 235 235 236 229 224 222 230 250 253 245 238 231 226 222 229 215 214
183 204 219 282 284 306 289 280 303 278 288 259 289 282 311 288 338 267 254 251 247 241 281 282 259 231 248 247 239 234 231 224 257 279 268 253 247 240 230 220 209 243 209 228 227 224 230
210 213 279 283 158 297 287 275 275 290 277 288 292 263 293 313 285 316 273 256 251 245 280 261 255 249 244 234 237 233 277 284 271 239 245 222 215 210 210 219 219 206 236 229 228 233 227
241 293 285 274 269 271 287 296 286 269 280 290 275 293 294 312 324 288 303 344 260 247 241 269 255 248 239 232 232 226 223 219 215 215 211 209 210 223 218 203 207 246 236 231 225 230 223
235 281 285 279 269 272 286 287 273 293 290 284 298 282 272 309 302 330 309 296 320 259 243 278 231 249 238 233 228 225 223 217 214 214 210 215 221 216 211 233 220 242 244 221 206 223 218
301 284 289 283 273 296 283 260 287 283 273 302 285 279 285 297 296 312 312 302 291 314 260 239 262 245 243 233 232 228 224 223 219 214 214 226 212 211 234 216 243 221 229 212 206 191 213
316 282 297 185 289 296 287 255 281 277 291 270 296 288 286 290 290 289 326 306 287 295 320 256 243 246 229 236 234 226 225 221 221 217 221 226 215 198 207 222 235 245 201 221 224 209 214

GFSGBSN_2pvu_pres_027.txt.gz
Presure
122 139 182 197 206 210 165 218 235 250 297 322 331 349 434 499 527 515 544 480 455 330 335 311 296 316 354 288 272 264 270 249 232 250 195 202 194 230 163 195 226 207 190 189 186 181 169
152 128 182 230 200 183 179 219 238 248 337 334 343 352 435 479 488 512 538 540 452 388 334 309 324 319 351 290 279 260 264 261 230 245 208 202 192 157 194 164 207 218 194 185 185 187 183
152 130 142 233 203 175 183 224 244 250 309 339 350 432 460 441 472 471 512 509 492 450 323 322 304 300 321 328 281 261 256 265 248 240 222 241 181 190 147 179 166 157 209 193 191 177 180
159 128 140 227 204 173 197 224 248 264 323 350 363 430 451 431 450 460 501 537 551 453 323 328 301 312 318 324 265 270 245 262 260 243 247 216 193 229 221 208 148 208 152 199 199 199 190
161 142 159 222 217 182 195 216 251 274 350 355 452 451 441 422 441 449 465 529 549 449 327 320 308 308 303 303 305 267 253 250 247 256 252 226 216 200 189 184 196 148 189 219 199 221 211
148 137 135 199 238 183 211 219 253 281 355 345 487 452 438 423 437 441 452 497 549 443 328 311 309 303 291 327 325 269 250 250 246 254 253 250 225 200 199 197 180 184 178 160 197 200 214
126 141 127 140 244 183 221 228 251 286 365 513 493 451 439 443 428 437 443 489 552 422 325 301 309 293 280 308 313 297 260 250 248 247 258 251 238 235 196 212 196 225 158 165 214 182 151
133 127 132 138 204 193 223 225 249 292 396 502 490 481 450 446 431 434 473 465 445 425 316 297 304 289 286 306 307 314 281 254 249 241 241 256 251 219 206 193 212 202 182 163 199 212 216
131 124 141 139 243 259 193 183 249 296 535 502 476 452 451 450 442 436 475 446 423 429 313 293 293 284 286 289 309 300 296 265 246 240 245 244 243 248 238 216 194 212 207 196 199 209 181
144 178 112 162 242 248 166 190 251 300 546 508 484 460 420 454 440 442 459 422 425 277 300 290 290 284 278 279 299 296 295 297 252 245 248 237 244 232 229 247 205 200 197 205 184 205 180
135 133 109 121 255 250 192 231 251 300 502 553 525 496 449 471 436 474 415 410 431 333 293 283 286 276 276 277 277 300 302 292 292 251 243 236 234 242 245 234 242 213 251 214 236 231 218
141 123 138 127 255 196 210 231 251 309 483 521 529 538 516 465 435 433 407 442 404 309 287 283 250 277 274 278 292 291 293 288 255 264 248 240 226 245 245 233 248 231 227 238 210 202 201
128 220 107 153 206 196 220 170 253 321 418 502 335 534 516 533 416 398 432 378 345 308 303 277 260 271 271 269 295 293 285 283 284 288 252 244 234 235 233 232 231 235 232 228 228 239 223
128 182 142 163 206 213 218 169 252 312 364 405 441 453 425 382 347 356 349 350 358 291 282 264 253 262 262 266 282 292 300 277 274 279 252 249 241 235 243 239 217 229 236 230 229 224 232
180 125 134 242 238 159 219 228 282 282 357 340 327 363 382 358 345 337 356 320 295 285 268 262 261 253 265 261 263 291 293 295 273 271 279 277 251 245 244 234 239 240 221 233 227 220 232
145 135 179 224 103 185 215 227 227 281 336 333 343 290 368 359 361 365 313 281 261 258 267 252 255 250 256 256 308 294 288 287 276 288 285 267 269 272 267 246 238 237 234 228 224 227 229
136 164 223 194 202 210 214 225 272 290 303 327 308 327 292 358 333 308 278 258 262 257 257 262 255 255 265 263 270 291 281 279 276 277 279 280 265 268 261 263 264 255 249 249 242 235 229
179 151 167 179 198 210 216 272 265 194 272 334 309 368 277 314 300 279 258 262 262 256 238 233 240 238 241 239 254 262 268 282 269 262 269 269 273 279 275 277 269 249 244 247 249 254 251
196 170 172 197 206 230 232 281 139 219 258 290 317 294 278 279 279 279 269 268 250 242 239 241 239 237 240 245 242 250 255 245 249 268 268 254 260 256 257 258 259 260 261 269 269 269 268
196 217 138 203 215 257 167 283 217 293 280 311 316 303 281 275 303 290 274 263 248 243 232 232 236 241 246 249 285 275 274 277 280 279 267 258 260 256 255 253 253 256 254 253 254 259 260
195 192 176 169 243 200 304 306 258 291 294 298 301 325 284 279 263 257 257 276 258 248 244 241 239 238 243 284 269 260 260 261 266 269 273 275 276 281 275 252 245 255 260 261 255 248 242
95 192 158 198 294 310 224 278 271 287 289 313 300 302 320 292 265 263 252 268 248 254 249 239 239 237 280 270 260 254 254 252 255 255 258 255 257 261 262 261 258 254 249 240 235 231 226
120 195 224 130 283 297 292 271 280 281 282 285 269 283 290 320 302 274 260 251 249 244 251 251 241 209 277 259 255 254 245 249 252 252 249 245 241 242 240 242 237 235 224 223 224 241 240
153 124 296 150 105 292 253 280 301 286 281 295 308 297 306 292 312 312 279 261 258 249 241 256 266 280 219 254 251 250 248 240 239 234 230 228 229 228 229 225 220 228 243 240 238 228 218
127 299 293 285 284 292 128 287 292 285 258 285 276 278 315 285 290 293 304 318 267 259 253 242 277 282 263 253 248 242 242 235 237 235 228 230 229 224 253 252 256 244 218 225 224 224 230
289 285 285 292 105 205 214 169 292 285 284 282 279 284 276 310 296 309 297 319 308 273 259 248 250 277 260 256 254 242 239 236 228 224 236 280 273 254 253 212 209 210 213 220 233 226 232
299 297 285 214 176 300 283 268 303 300 281 279 283 305 296 281 285 288 302 294 304 300 282 261 246 277 256 254 242 238 235 237 276 285 281 268 232 215 213 221 210 216 237 244 235 237 213
296 285 334 310 320 290 315 295 295 299 289 292 280 293 296 293 287 285 292 296 284 301 295 278 263 248 268 253 240 237 230 273 232 221 225 221 214 212 227 217 223 248 241 233 243 214 208
269 312 317 299 134 294 298 256 306 293 281 281 305 284 282 282 295 309 276 290 311 292 307 287 280 260 246 258 247 234 231 225 225 223 226 219 216 226 219 202 239 219 241 234 221 199 211

GFSGBSN_2pvu_pres_030.txt.gz
Presure
101 133 133 105 120 244 175 137 197 241 219 287 303 341 362 436 466 452 448 494 513 489 456 405 236 330 334 327 313 352 310 292 236 244 215 219 215 203 177 192 189 163 191 177 176 178 181
143 139 120 127 117 139 186 210 165 240 220 296 349 347 481 467 447 440 441 463 490 505 467 412 337 339 309 323 304 358 316 295 277 254 257 219 220 201 200 178 168 171 157 195 186 180 177
133 142 142 134 111 136 144 209 218 239 220 309 345 503 470 464 423 428 435 451 501 503 464 406 336 347 307 322 304 306 312 298 278 258 247 234 221 231 203 215 172 153 168 217 203 190 187
131 129 118 151 125 131 232 210 163 241 261 359 514 513 474 453 417 421 428 435 473 485 473 406 335 333 305 317 305 328 308 294 277 259 235 249 231 221 206 200 211 176 159 168 203 210 197
127 151 155 118 166 110 225 212 164 242 304 382 510 493 465 439 418 422 421 437 467 465 461 406 332 311 292 317 302 324 307 288 274 261 262 250 231 219 216 204 207 188 157 203 155 222 216
128 140 125 169 173 221 215 208 220 241 351 394 509 485 481 452 432 425 431 443 475 529 430 412 325 319 304 311 300 327 304 284 269 265 259 245 249 231 217 211 208 194 193 167 179 160 152
139 159 145 141 222 239 221 200 233 242 378 389 491 466 434 432 453 434 432 461 466 548 422 388 320 307 290 300 293 323 287 270 272 262 257 252 241 228 242 216 213 189 197 182 148 216 183
113 155 177 141 173 149 214 200 220 246 393 530 509 481 427 426 452 437 449 482 568 444 403 350 303 303 288 291 299 329 306 267 266 254 253 250 257 240 231 240 222 206 199 200 179 158 149
150 159 127 133 154 240 211 204 224 255 397 521 467 501 456 438 465 450 469 534 440 418 372 312 287 302 294 289 285 318 307 269 258 261 258 255 252 255 240 232 224 232 196 215 206 192 208
150 156 148 213 120 238 211 219 228 229 374 464 369 524 479 472 456 467 484 435 414 380 328 302 282 292 285 287 272 296 302 278 258 257 260 256 250 258 249 231 237 224 209 204 196 193 198
136 154 136 137 142 237 214 225 243 313 341 427 334 508 497 490 501 434 432 406 386 343 312 293 185 288 290 298 275 308 310 284 256 249 263 254 245 255 256 255 232 240 218 191 195 192 199
97 147 155 201 134 142 209 226 238 328 317 352 343 412 424 430 427 390 411 388 353 320 308 295 262 243 290 278 276 302 306 301 264 251 260 263 257 250 257 253 251 248 228 227 219 205 189
106 149 159 187 125 149 205 222 271 330 314 355 322 385 385 442 413 346 389 357 322 306 290 282 293 284 284 276 271 305 298 308 275 261 260 263 252 252 248 252 251 246 244 227 215 209 187
150 98 159 204 130 148 163 224 294 208 289 349 323 404 376 347 365 360 366 312 298 289 282 287 270 277 267 274 276 279 297 301 301 275 266 260 254 247 246 251 238 245 244 247 243 215 210
145 118 177 204 131 125 203 228 287 151 283 341 374 300 340 307 309 300 293 300 275 291 263 257 269 261 273 271 273 286 292 296 284 290 295 288 277 251 247 240 244 251 242 237 238 238 245
142 152 160 169 134 133 205 277 282 262 295 103 385 304 302 270 287 292 285 272 262 261 265 267 266 262 269 270 277 296 285 279 284 282 282 287 279 276 241 241 241 236 233 234 252 231 227
136 151 179 232 230 127 211 292 281 294 301 321 346 323 290 269 291 281 270 284 277 267 266 266 258 262 260 257 291 277 288 281 280 280 277 282 277 263 268 249 240 241 230 228 236 232 223
144 95 205 122 192 121 212 291 281 275 163 318 288 316 284 284 300 286 268 263 256 259 256 245 251 254 262 261 269 313 291 284 275 282 262 273 273 273 271 255 250 245 241 242 238 237 235
149 219 185 126 136 122 266 285 283 276 223 278 295 325 291 278 286 267 277 263 253 255 252 244 241 239 242 248 256 263 283 282 280 277 279 273 270 267 264 268 254 246 244 240 239 239 239
125 208 129 127 96 215 295 283 282 277 293 270 312 319 299 304 280 267 257 269 250 235 238 238 239 239 247 246 249 249 258 263 281 264 272 267 268 267 274 275 272 264 265 262 262 260 257
154 219 154 128 135 299 294 283 284 277 233 296 275 288 277 299 289 278 269 255 252 251 245 237 240 241 243 246 290 287 287 290 253 255 272 261 256 260 259 259 258 264 270 270 272 271 273
215 163 193 129 309 301 289 284 286 277 302 295 89 285 279 311 313 286 274 268 256 251 251 243 240 240 240 239 281 271 267 268 271 284 283 260 258 265 258 256 259 257 259 257 256 254 246
163 189 192 307 306 295 292 282 282 279 185 292 286 293 289 328 308 321 288 272 261 262 250 249 249 249 243 191 268 261 260 260 261 264 271 273 275 278 282 271 258 254 253 246 252 257 249
302 165 311 303 110 298 297 290 327 294 297 287 281 287 282 301 280 299 311 304 276 266 252 258 247 248 258 259 268 258 253 249 253 247 254 260 262 265 272 274 274 270 267 259 246 240 234
187 307 195 268 132 297 302 293 299 286 272 312 282 295 284 313 295 287 288 300 310 297 274 258 261 247 257 273 270 255 255 249 246 244 248 248 246 247 246 248 248 247 239 232 227 222 228
307 263 131 128 113 286 315 298 296 284 284 301 290 285 292 296 284 299 305 283 291 300 293 332 264 259 242 278 273 257 251 251 242 236 231 226 223 226 230 232 227 221 222 231 243 240 221
339 132 284 288 292 294 306 301 296 283 298 302 292 293 283 286 287 276 282 289 281 276 285 305 305 273 263 242 283 265 254 242 239 235 236 235 233 232 225 223 266 258 256 217 220 216 231
274 132 161 283 295 324 233 308 312 319 308 299 290 293 282 278 297 283 281 293 292 295 280 289 297 296 277 259 272 276 255 245 241 241 238 228 228 240 276 269 232 220 207 222 223 231 236
133 132 318 325 332 311 341 295 301 287 296 306 293 293 276 288 280 287 300 286 294 301 298 284 292 297 317 271 248 286 262 239 239 233 231 282 287 275 220 214 223 210 229 231 232 236 246

GFSGBSN_2pvu_pres_033.txt.gz
Presure
134 120 100 145 146 199 198 233 198 217 240 283 317 341 514 524 491 465 430 430 430 435 448 484 481 415 378 332 329 301 337 371 331 290 278 248 236 219 206 194 188 191 190 180 185 179 177
116 139 142 144 124 190 126 204 117 196 237 311 348 440 480 503 476 441 436 414 420 427 470 488 509 457 387 335 317 309 315 354 357 309 293 253 212 224 215 192 217 182 196 181 195 190 183
123 105 127 104 130 113 223 208 211 168 276 316 381 457 501 479 453 448 415 413 413 430 458 493 483 452 388 330 313 303 305 309 354 312 293 283 231 214 199 234 193 211 181 184 195 187 190
118 128 149 141 148 147 143 245 213 207 251 349 538 499 484 457 454 430 408 416 411 443 464 484 494 433 380 329 308 303 301 317 345 314 296 256 261 231 220 199 210 208 189 203 169 193 170
140 134 144 137 162 124 222 246 214 219 165 313 526 493 465 436 435 442 422 419 426 448 468 476 456 410 362 320 301 290 294 322 345 312 295 288 235 266 222 203 232 195 204 186 176 193 194
138 143 132 148 161 118 210 249 215 233 318 311 389 516 469 446 422 450 443 432 441 480 497 477 424 388 331 307 297 289 300 300 331 304 273 292 285 285 260 217 214 214 201 213 186 175 129
112 134 149 162 162 133 221 264 214 234 314 309 390 537 486 460 433 443 440 455 460 504 502 424 396 354 311 307 299 298 288 308 315 292 310 291 281 287 253 226 214 215 186 194 197 223 211
146 147 103 150 125 162 178 118 211 237 310 307 527 455 481 462 463 455 465 479 533 488 426 392 362 321 301 308 273 294 286 277 285 306 297 286 277 286 226 255 222 220 214 201 187 195 214
145 153 103 156 123 204 138 264 205 260 308 299 453 455 489 475 470 492 533 528 435 409 379 357 293 302 300 297 275 296 279 307 280 284 284 291 281 281 261 239 229 210 222 210 210 205 190
137 159 147 97 161 198 143 260 204 259 301 288 349 440 456 543 538 465 437 424 412 376 347 322 299 287 297 281 293 284 261 266 276 268 265 278 284 271 267 248 243 213 211 215 218 209 197
98 158 147 99 162 161 128 246 202 299 299 289 322 377 450 478 447 429 408 388 368 335 322 307 157 291 285 273 291 281 269 284 273 255 271 287 281 269 258 259 227 248 220 216 219 227 209
125 141 151 127 97 156 199 202 211 247 293 287 316 308 435 433 421 406 382 354 338 317 302 284 291 291 278 295 295 281 275 280 288 262 255 271 287 271 267 256 255 226 243 220 214 209 213
127 104 150 114 159 121 170 137 218 298 291 396 331 303 348 327 299 319 326 316 306 315 298 298 293 297 295 287 292 277 299 284 285 268 260 264 269 285 267 264 253 249 242 244 219 213 204
142 92 151 112 154 157 186 191 231 295 287 285 334 305 282 324 312 291 301 301 286 290 292 279 290 282 273 285 287 265 324 287 291 278 262 258 268 270 277 262 256 253 251 241 239 234 226
121 147 149 150 160 139 158 175 294 293 286 280 273 318 293 278 282 303 299 297 283 280 276 281 277 285 280 277 272 297 309 301 276 287 280 262 264 263 264 271 259 244 251 254 250 237 235
119 144 166 167 159 97 131 281 301 290 286 278 279 306 299 283 281 287 297 286 282 280 275 272 282 283 278 283 282 275 289 299 300 270 278 283 262 257 252 257 265 243 243 253 256 247 237
135 271 130 203 154 240 161 264 298 289 144 279 91 299 305 291 267 288 285 278 266 265 267 266 264 261 261 260 281 292 290 286 284 293 276 271 278 272 256 253 259 261 264 248 250 245 252
140 153 144 196 189 306 186 128 280 287 284 280 271 325 314 297 290 258 266 253 266 257 254 254 259 263 266 269 292 273 281 278 275 288 287 295 270 266 264 268 260 247 246 250 250 251 240
153 142 171 154 183 314 318 130 287 207 283 99 270 80 303 305 291 279 269 252 247 242 242 248 248 243 245 251 262 318 289 279 275 274 273 280 280 283 286 281 283 281 262 246 244 243 234
214 201 119 165 285 316 315 169 295 286 286 293 287 239 291 300 310 294 272 252 258 251 242 239 237 240 244 245 248 258 281 289 282 273 272 276 271 265 270 271 262 265 251 261 246 241 242
188 191 157 171 300 333 122 296 296 284 277 287 287 265 294 291 321 312 292 276 265 261 256 250 244 248 246 243 245 294 283 258 279 275 269 269 277 264 262 264 265 264 260 262 265 257 249
197 152 156 118 293 299 125 180 307 277 285 291 281 292 303 302 312 297 303 293 279 267 258 259 253 250 248 247 193 274 285 295 257 278 264 270 265 268 269 274 280 269 256 255 256 258 258
124 154 170 193 294 268 204 181 289 289 288 289 285 293 296 293 284 304 307 319 289 276 273 256 255 252 235 253 255 258 271 268 273 286 263 263 264 261 263 264 262 264 263 268 270 273 275
131 169 323 312 289 222 206 265 199 159 287 277 283 302 299 285 293 280 293 289 307 304 287 271 262 253 246 235 255 265 267 260 259 263 270 286 273 255 261 260 257 260 258 258 258 257 255
238 291 290 315 337 340 123 285 283 303 290 284 283 293 298 289 289 292 280 295 293 291 294 302 278 269 257 253 235 262 272 257 250 252 249 252 267 279 281 284 279 259 251 251 255 248 240
143 278 380 339 332 254 121 322 288 309 311 309 293 276 299 284 292 288 288 295 265 277 277 289 295 280 285 262 255 245 278 258 253 244 251 255 244 251 263 272 276 281 280 276 249 259 252
274 367 365 316 337 132 339 329 321 313 323 293 305 294 300 290 294 288 281 289 289 283 294 294 281 287 285 292 274 252 253 272 249 250 239 239 241 237 238 242 247 256 258 251 242 234 226
386 413 367 359 354 120 342 353 347 320 296 228 286 307 289 295 291 285 282 285 277 286 292 288 287 284 285 294 301 276 245 285 255 249 241 233 230 229 227 230 224 226 223 219 221 231 247
263 422 397 374 330 376 355 347 326 289 300 304 319 308 291 279 290 290 284 285 282 280 287 276 280 281 290 276 284 296 274 257 282 248 241 233 233 235 234 235 225 218 261 245 249 215 220

GFSGBSN_2pvu_pres_036.txt.gz
Presure
141 121 152 94 146 148 157 194 235 251 203 303 323 328 482 501 481 463 463 438 445 435 426 429 420 419 399 380 342 324 316 318 334 361 260 265 235 218 205 185 186 183 170 180 168 184 143
120 121 137 140 114 161 162 166 239 236 212 325 327 327 390 487 461 464 456 435 423 401 426 417 433 418 403 401 364 352 307 322 320 341 369 284 249 234 216 194 162 204 182 178 186 172 184
135 134 149 152 96 117 155 217 245 206 227 325 335 344 355 458 443 442 443 420 421 410 413 424 441 466 440 396 358 340 304 315 323 317 354 325 278 240 231 208 197 210 203 188 98 183 170
141 150 152 150 139 151 155 242 162 200 252 321 328 365 500 458 448 424 439 424 404 411 422 427 475 489 518 420 363 341 330 307 320 309 344 348 262 270 235 236 214 198 216 182 201 191 183
149 147 140 134 151 118 155 209 157 201 290 315 326 404 493 450 454 434 448 433 428 429 436 443 463 473 481 424 363 329 299 297 302 321 328 353 313 278 276 229 229 196 194 196 189 207 169
145 141 143 155 97 145 141 107 222 209 309 311 347 456 458 468 460 456 438 437 439 441 472 459 474 484 453 361 326 309 296 310 295 298 335 333 316 290 262 257 228 222 195 190 185 193 183
124 143 139 155 160 151 100 146 303 237 307 309 352 449 504 472 470 460 460 454 454 460 493 472 458 425 367 335 313 297 298 296 286 286 324 333 324 305 291 250 228 225 219 189 194 216 179
131 123 118 154 170 89 128 147 303 247 305 305 316 349 542 518 511 516 529 531 519 462 430 420 405 376 337 304 289 282 320 280 295 313 290 328 318 313 302 262 245 221 222 222 188 194 215
122 127 104 101 176 108 142 117 201 231 307 303 304 400 469 457 451 443 438 428 417 397 379 378 367 340 319 307 295 287 287 267 304 295 295 320 309 308 300 291 249 261 237 221 225 186 211
121 139 116 96 153 95 147 121 193 229 301 297 298 325 357 364 440 415 289 399 384 360 369 368 340 311 306 296 284 292 252 276 289 290 296 318 299 310 307 288 275 253 254 220 214 221 209
127 131 140 131 151 147 204 183 138 298 299 291 286 318 312 333 331 352 377 379 368 362 353 339 316 256 295 288 285 266 279 272 278 295 308 307 307 302 300 285 278 256 252 221 214 213 206
131 129 134 142 162 151 177 185 117 302 294 289 283 309 292 329 312 310 297 298 339 349 337 313 299 293 294 287 272 261 253 266 284 268 264 278 313 301 304 284 284 300 247 251 221 214 212
129 133 129 130 153 148 197 113 235 304 290 286 279 298 299 258 304 300 318 296 297 288 311 292 295 297 290 263 288 262 265 264 272 282 270 268 282 307 309 293 282 275 273 229 240 234 215
126 118 138 152 97 156 153 211 300 174 292 285 277 274 290 279 289 298 301 317 300 294 293 313 280 275 292 301 298 269 258 258 258 263 279 283 282 291 306 292 279 275 284 266 231 240 230
115 117 125 150 145 201 152 178 318 150 293 285 271 274 296 292 283 283 279 287 293 299 296 297 281 277 272 287 288 290 277 274 276 273 265 294 271 275 301 299 293 284 264 260 244 219 233
140 125 149 140 211 234 152 202 126 262 292 285 265 240 299 302 279 265 268 286 280 281 278 278 282 281 278 283 272 267 266 268 282 283 272 270 281 262 280 292 284 264 260 258 254 226 210
150 126 119 134 151 227 152 289 166 152 272 287 271 288 276 313 292 272 268 268 267 274 274 270 269 270 273 276 271 271 312 284 290 284 281 277 270 269 265 264 271 268 260 256 252 252 243
124 130 129 140 109 112 152 316 305 123 290 195 269 303 304 304 304 289 277 268 251 254 246 254 257 269 272 301 287 301 284 301 286 269 268 286 286 267 262 292 262 262 271 255 256 249 248
143 137 129 142 246 138 189 292 202 268 294 274 283 286 276 298 329 297 279 273 261 252 252 248 244 248 253 254 260 295 296 288 289 291 285 275 264 275 278 273 266 263 255 260 263 249 247
131 223 151 189 144 280 151 329 313 270 127 274 266 310 276 313 301 317 291 273 276 257 258 254 250 248 244 245 248 270 262 286 280 278 283 284 285 277 270 270 271 265 273 246 250 258 258
148 148 155 220 256 340 226 267 327 210 121 279 274 276 280 272 315 309 312 284 275 269 256 259 252 249 248 247 245 246 280 274 286 277 273 276 279 279 280 290 278 256 259 262 261 247 246
132 157 153 277 258 282 360 366 352 260 112 288 297 284 283 303 307 320 319 313 295 278 272 265 257 250 248 247 254 250 296 276 269 279 276 268 270 275 274 267 271 274 270 276 281 287 288
145 177 215 246 255 164 243 209 358 263 308 299 302 286 293 301 305 303 298 293 300 315 287 276 269 260 253 247 244 255 268 276 283 261 274 269 268 268 273 267 265 262 260 256 256 259 268
252 139 175 251 254 280 307 372 364 284 307 310 303 253 325 233 298 300 300 288 298 297 297 311 289 273 258 254 249 239 261 264 266 276 277 254 266 266 266 268 271 266 266 260 258 261 256
254 273 269 198 263 262 332 383 364 329 346 327 310 296 293 286 284 299 296 257 281 284 278 282 295 303 277 268 256 243 245 270 256 255 263 270 288 258 255 263 263 265 267 266 270 268 261
255 269 281 162 134 371 410 398 352 273 333 290 315 302 173 307 293 298 286 298 274 295 277 277 285 282 290 300 281 260 242 253 261 249 250 253 257 274 287 262 251 258 254 258 261 251 252
132 221 218 129 215 274 435 388 241 213 262 193 314 312 298 306 315 303 288 283 284 281 283 277 286 292 285 281 283 290 261 246 266 250 245 245 249 249 255 270 279 279 258 257 255 249 248
161 159 221 132 212 309 404 358 366 360 353 187 327 295 240 294 304 297 293 282 279 279 280 285 281 284 282 288 270 283 297 257 251 271 246 237 243 248 245 247 254 268 276 278 269 249 249
276 266 131 191 383 311 137 113 343 292 341 189 322 126 311 290 291 298 288 294 275 281 268 276 275 275 288 282 281 281 285 299 246 263 249 245 237 236 237 238 241 239 251 265 267 266 258

GFSGBSN_2pvu_pres_039.txt.gz
Presure
118 121 118 145 150 143 146 88 151 115 282 238 315 324 227 363 483 472 448 452 444 427 443 434 418 441 434 376 326 310 311 279 311 304 336 273 295 231 216 213 216 168 180 196 187 179 175
121 136 134 105 149 142 176 91 104 195 279 323 299 321 372 465 470 438 444 430 429 435 418 421 413 421 442 419 370 328 319 291 288 283 317 314 247 260 228 215 211 193 181 179 186 189 187
104 130 134 137 153 144 168 164 151 114 192 332 323 315 507 499 451 435 424 433 412 403 412 408 412 404 423 422 397 359 324 311 304 296 289 336 345 284 233 224 218 208 189 180 179 68 190
117 117 123 137 154 167 170 213 142 144 278 325 322 312 526 488 442 455 437 447 430 404 404 417 419 419 414 406 402 380 314 324 312 296 285 319 335 265 274 229 216 204 210 185 186 187 195
103 103 98 147 153 163 178 109 148 109 194 319 321 312 527 494 475 463 450 435 444 420 415 418 422 427 446 417 403 385 344 312 305 283 316 286 325 358 252 269 227 217 212 198 180 187 121
112 111 117 134 114 101 123 110 219 110 194 321 316 325 468 521 494 466 453 452 449 450 439 427 434 459 509 436 403 370 346 309 312 297 288 310 290 354 359 275 236 230 203 208 166 177 176
115 125 124 110 112 143 130 165 214 124 269 320 310 327 339 492 512 536 512 491 453 454 467 458 453 440 467 424 389 346 327 352 304 281 292 305 295 340 380 326 261 226 224 209 186 158 175
119 136 134 131 146 163 150 163 160 228 219 311 305 334 331 369 404 400 439 453 450 473 473 479 448 430 433 388 377 342 314 301 298 302 289 326 298 334 360 343 283 252 219 205 201 185 200
138 130 134 130 127 157 159 161 225 296 153 307 301 312 325 353 402 395 390 395 404 410 400 369 387 386 369 347 328 310 296 293 296 303 293 320 312 294 368 346 326 270 237 219 209 201 181
141 124 132 130 152 146 157 316 316 319 217 300 294 290 320 310 339 401 389 384 384 370 329 317 310 308 313 306 304 265 284 266 271 312 296 308 328 322 336 344 317 300 264 225 218 212 211
138 135 128 152 133 135 125 160 178 293 246 242 339 245 297 319 342 325 307 386 335 349 334 332 329 312 333 330 295 282 256 257 267 299 324 289 306 322 330 337 316 306 275 268 222 219 222
140 138 125 148 126 139 147 192 310 271 294 123 291 257 282 270 298 328 313 377 302 328 309 303 294 292 283 280 272 282 266 260 252 286 296 302 308 303 325 334 329 310 287 275 263 225 217
124 140 142 140 122 131 192 141 173 282 270 283 141 277 306 285 288 305 322 310 314 338 326 312 291 287 278 269 266 268 274 275 283 263 289 283 298 320 307 311 329 314 284 274 257 276 234
117 132 136 156 125 221 142 164 305 309 267 287 115 267 288 283 292 292 280 319 301 293 317 311 303 293 290 288 279 273 267 263 271 279 278 287 292 305 310 308 307 319 294 271 264 243 257
136 134 136 128 139 131 150 128 120 287 325 308 124 275 291 284 273 280 281 304 291 290 295 279 305 305 295 286 296 287 275 265 280 283 276 277 282 281 312 312 314 310 311 276 264 264 254
132 136 141 161 147 128 257 196 274 294 161 293 270 299 299 279 295 287 276 270 289 289 287 287 282 280 303 293 282 277 280 278 269 275 280 277 283 286 279 294 314 319 299 298 280 265 258
122 140 183 230 148 189 180 275 247 183 347 180 124 305 274 304 295 294 280 268 270 269 279 282 282 283 280 276 294 275 257 257 273 269 272 275 267 284 286 283 303 301 313 291 276 271 270
122 131 135 130 141 211 147 221 264 286 356 255 120 314 278 267 289 302 290 279 266 262 254 252 269 274 282 275 270 271 267 265 263 260 267 260 268 265 277 283 281 279 293 289 275 272 281
139 157 121 130 127 157 163 186 197 243 307 338 312 323 288 286 294 328 299 283 271 263 255 252 249 250 254 254 258 285 277 285 290 277 269 268 267 267 266 257 262 274 272 279 278 263 266
163 145 124 123 138 202 227 228 296 356 354 347 327 314 290 287 139 313 321 294 281 275 264 260 253 253 251 247 250 261 266 293 292 311 279 279 283 285 282 277 266 246 253 268 265 270 256
181 118 196 134 148 186 147 266 263 179 354 350 317 289 292 293 308 293 320 316 291 282 275 267 258 255 253 248 247 247 259 281 284 282 292 281 273 269 274 270 273 276 269 249 258 263 254
119 234 145 147 144 260 134 256 304 169 352 338 320 313 130 179 294 306 298 318 305 298 283 274 264 259 258 252 251 255 255 289 282 278 273 276 279 280 282 282 286 275 266 263 268 247 263
139 144 142 162 240 154 262 129 284 386 359 362 319 193 277 178 172 282 303 303 294 297 309 285 276 269 262 259 255 250 255 278 286 273 281 273 271 275 274 274 272 279 291 260 264 266 263
142 138 133 184 242 210 199 202 305 408 375 342 258 328 117 258 239 306 286 299 303 303 297 291 294 290 274 268 258 257 248 266 269 284 271 260 271 269 271 275 270 268 268 276 282 268 264
220 226 181 130 223 255 120 285 163 394 377 366 336 344 213 305 206 293 295 296 295 293 287 295 287 294 306 286 270 262 250 246 263 258 265 278 267 252 266 265 272 268 261 259 257 257 260
175 156 231 235 257 133 302 127 142 371 384 368 345 223 118 246 185 301 296 279 290 292 283 287 282 282 286 299 289 274 263 253 258 260 251 253 265 276 267 251 261 262 269 266 259 255 253
154 252 236 272 214 284 116 243 319 383 382 354 143 264 261 176 145 301 302 287 287 283 285 275 282 277 285 293 281 298 285 268 248 267 258 251 250 254 265 281 258 253 257 261 264 262 265
134 240 143 180 178 138 217 236 314 386 320 176 285 215 329 323 214 305 289 280 287 279 276 276 279 284 283 288 283 280 282 283 270 252 272 254 250 252 249 261 272 279 252 249 253 255 257
154 208 238 127 144 238 203 297 152 325 251 145 342 262 330 320 318 298 283 288 281 274 278 278 278 268 266 284 276 274 283 269 290 269 248 264 251 245 250 251 256 260 269 274 265 251 252

GFSGBSN_2pvu_pres_042.txt.gz
Presure
106 115 120 107 97 105 126 154 120 171 343 170 151 155 253 532 498 471 460 439 440 440 426 421 438 443 443 455 322 316 315 280 290 297 301 331 302 274 221 196 192 186 202 185 198 186 176
107 104 103 110 138 103 151 148 149 137 340 84 126 125 251 519 485 454 434 438 423 426 435 418 423 405 401 428 389 298 293 133 279 284 289 318 321 341 313 217 174 199 208 193 203 186 166
143 114 106 107 111 129 108 101 147 149 335 126 303 206 225 530 491 444 431 443 435 408 417 420 410 407 394 407 447 320 306 292 274 280 280 301 315 325 362 242 216 218 203 206 201 185 184
147 119 109 100 136 110 149 152 144 149 330 208 121 321 340 465 524 493 476 456 449 425 414 404 417 396 387 409 451 358 272 279 298 273 274 278 266 311 335 322 213 215 223 205 174 202 61
146 117 120 120 140 134 135 151 145 219 287 319 308 314 314 437 447 517 478 463 455 441 411 414 409 410 408 416 442 441 319 302 277 278 272 287 278 319 325 254 268 198 226 218 203 192 200
101 131 129 109 144 136 127 145 147 190 276 325 138 231 312 437 419 421 526 470 461 455 429 428 413 415 409 414 430 436 350 274 283 277 283 271 283 289 322 343 267 228 228 214 215 199 191
102 143 143 130 100 125 135 144 146 233 338 218 110 200 311 375 420 390 404 428 469 451 458 443 456 465 428 405 415 418 394 321 280 257 296 306 275 286 290 326 249 214 228 231 209 207 199
137 139 136 121 159 170 125 137 156 196 292 354 110 200 278 328 437 352 411 439 453 472 462 452 452 491 407 406 407 393 367 333 311 266 287 282 310 282 287 311 338 248 245 200 234 215 202
136 138 143 123 163 115 125 141 238 207 334 337 268 303 287 298 371 356 339 381 397 401 404 422 436 425 367 330 355 368 346 325 333 306 292 260 286 296 296 292 338 372 268 222 230 222 210
141 147 140 153 163 124 125 188 154 190 153 300 328 195 298 297 393 342 329 313 363 356 355 355 377 329 323 307 308 312 371 303 286 304 322 294 291 287 321 325 299 378 337 323 224 220 218
135 137 133 156 156 142 137 139 143 250 358 312 320 195 289 297 280 321 316 334 317 345 356 349 335 348 323 330 309 321 312 330 320 291 295 314 334 302 288 310 348 307 379 323 308 224 222
137 135 120 144 118 125 142 181 185 252 252 321 349 308 307 287 279 281 298 309 328 338 350 332 338 314 304 301 304 292 276 276 300 301 283 303 326 326 281 312 320 372 354 358 326 264 237
134 135 121 146 136 123 178 137 197 230 226 194 347 319 318 282 274 295 293 317 316 294 300 315 299 295 295 283 273 282 285 272 270 303 321 313 302 292 335 317 344 336 363 348 340 314 242
135 123 134 157 158 125 153 248 147 271 234 373 320 287 310 281 291 303 283 316 302 304 298 312 281 296 286 284 285 267 273 273 283 272 291 296 300 308 295 328 328 154 326 341 331 316 279
132 120 121 144 107 155 146 245 156 192 188 178 217 336 264 300 288 288 286 282 301 297 293 281 272 297 293 285 294 279 274 275 290 276 269 297 293 302 308 318 303 327 334 341 328 317 302
133 122 135 140 116 161 173 125 141 275 223 147 357 335 327 307 292 293 269 286 276 280 292 290 283 276 288 271 276 272 263 266 265 284 284 281 284 284 292 241 322 309 310 330 333 310 301
132 127 125 123 149 143 141 127 184 172 212 379 356 344 315 205 303 264 214 290 280 268 280 288 292 289 278 278 281 267 271 282 280 262 268 277 281 279 275 272 283 312 312 308 324 308 283
130 149 138 135 142 119 181 126 177 123 226 404 355 347 326 161 316 288 293 296 283 269 262 259 280 282 273 278 281 275 272 283 259 267 263 261 262 282 270 290 282 289 296 301 314 313 288
128 138 138 129 152 122 139 222 127 193 143 387 379 346 332 310 301 290 217 190 290 279 265 269 259 256 256 257 264 278 271 266 268 264 264 262 266 267 278 267 280 279 296 293 290 309 302
136 133 131 157 160 147 132 215 129 171 293 414 375 349 327 313 312 305 301 258 298 288 276 266 264 263 258 254 252 247 263 278 279 269 272 270 263 269 261 261 261 268 273 279 282 283 294
131 107 139 216 140 99 155 143 125 170 183 213 337 353 336 311 317 302 309 179 312 293 285 267 267 264 254 259 252 248 249 246 303 289 292 288 278 274 265 265 267 252 264 266 270 280 288
125 151 175 129 139 143 136 137 127 269 197 274 389 362 347 316 317 308 303 304 314 309 303 288 280 271 264 258 258 257 252 256 285 291 291 299 304 273 274 285 285 278 254 262 253 268 271
127 139 127 155 154 147 162 212 162 117 208 303 326 353 348 320 318 290 294 297 251 304 293 310 292 279 275 268 263 260 257 254 271 283 273 282 283 293 285 277 283 283 280 277 245 254 255
112 119 173 143 127 143 136 167 122 98 259 172 239 384 213 330 132 238 303 297 291 279 299 294 302 298 281 278 272 268 257 255 254 281 279 272 278 275 270 277 273 278 278 281 283 270 258
131 117 132 176 149 158 161 216 119 243 210 255 197 361 140 327 149 311 251 296 289 278 294 287 287 303 294 286 286 276 267 261 255 267 273 281 264 281 272 267 273 274 265 270 282 271 264
134 127 118 122 136 157 175 151 98 206 307 291 296 150 207 118 274 310 311 300 285 276 277 281 288 282 284 268 287 294 277 269 264 258 266 265 277 272 271 267 263 268 272 265 262 272 278
126 135 128 139 153 161 148 129 246 295 155 122 288 137 123 125 105 319 308 243 288 280 275 277 276 286 279 283 289 285 293 275 263 264 257 270 258 262 273 269 252 262 264 272 257 258 255
207 136 108 109 100 189 134 118 224 258 192 173 333 123 123 127 165 134 315 301 286 287 276 274 274 273 273 280 272 280 290 282 280 263 264 254 267 258 256 263 273 268 252 259 262 270 259
128 93 157 161 144 124 143 220 177 267 155 129 187 137 203 125 320 217 313 286 290 283 270 285 274 268 268 273 277 275 277 284 281 285 264 262 252 261 255 256 253 269 275 254 258 255 262

GFSGBSN_2pvu_pres_045.txt.gz
Presure
142 150 127 107 105 110 125 124 138 131 170 226 205 370 359 132 475 504 461 445 440 445 438 438 453 457 464 467 329 332 308 292 294 306 295 298 339 298 263 195 187 207 202 171 163 201 183
172 152 151 118 104 116 130 126 140 178 148 294 373 366 353 127 449 452 479 446 432 427 433 432 430 437 404 408 432 318 315 301 254 309 287 283 323 357 289 251 199 220 206 204 212 188 185
152 170 143 119 113 104 119 126 121 158 276 285 229 359 196 131 428 415 450 490 468 462 433 431 419 409 416 410 417 313 315 301 288 286 287 288 287 322 310 255 241 177 221 195 199 168 157
159 159 145 126 140 165 113 104 129 126 249 214 202 332 214 133 350 437 383 492 473 461 417 425 412 409 401 385 416 363 309 306 289 280 289 283 283 311 304 284 242 231 185 214 185 206 170
125 153 161 154 163 126 162 145 161 122 202 230 222 259 327 136 356 443 452 485 466 466 430 417 435 404 396 397 419 432 315 307 283 275 266 288 306 280 323 319 273 238 236 193 208 176 196
155 163 149 142 105 130 132 128 129 151 153 282 358 344 337 332 326 370 432 469 468 445 447 425 422 412 405 402 407 437 299 300 273 268 277 295 283 305 290 332 276 143 230 224 208 191 198
160 134 151 123 133 165 140 132 159 219 189 289 272 338 334 327 320 371 369 466 474 476 462 447 443 432 405 410 429 429 329 288 270 279 259 299 267 280 288 306 320 348 238 240 207 218 195
145 125 134 118 156 151 140 141 142 181 155 197 307 344 333 323 314 350 366 420 467 482 458 487 493 433 450 403 436 426 333 295 277 271 274 270 301 293 300 289 313 327 330 239 242 235 188
132 142 150 160 150 128 137 150 127 154 154 229 183 349 337 321 315 315 374 353 358 365 368 363 358 369 424 367 366 422 335 306 292 274 264 259 266 293 278 289 285 313 331 347 249 240 216
132 128 132 153 143 113 164 135 166 170 178 268 381 312 339 324 319 307 307 335 357 350 344 336 327 325 341 365 371 371 345 309 285 277 273 278 270 290 285 301 290 277 331 327 363 228 234
155 154 143 162 145 157 141 123 129 139 228 285 296 353 331 330 309 303 305 357 324 356 338 349 336 323 312 334 343 369 382 308 285 278 274 270 285 262 291 288 302 315 279 339 299 387 227
154 150 134 143 135 154 138 108 144 180 140 161 264 362 321 319 232 291 298 246 313 298 346 318 318 298 318 338 351 327 340 308 283 209 286 270 289 273 291 299 309 295 317 260 332 386 379
150 147 138 131 153 128 113 161 98 186 166 123 144 373 332 316 297 299 296 300 309 311 307 314 301 295 298 310 313 320 320 312 338 270 299 295 282 292 283 276 300 311 354 314 296 327 370
148 127 137 122 145 116 150 138 141 167 146 158 289 207 330 330 285 294 294 280 190 330 295 313 315 300 303 293 295 295 303 314 315 311 297 323 320 341 325 332 326 316 279 305 295 389 309
149 118 131 137 146 143 146 131 150 136 156 207 216 281 351 332 317 291 292 284 284 294 300 296 302 308 280 291 292 289 283 295 275 311 323 324 313 308 298 315 327 331 337 321 355 388 363
142 121 137 134 121 152 141 138 134 125 131 125 159 295 365 340 304 310 265 289 289 237 301 300 294 292 283 294 283 271 283 284 277 275 275 287 291 297 301 251 297 298 324 332 332 348 360
141 140 126 132 125 142 143 154 159 129 231 247 281 300 367 343 261 310 300 290 283 231 281 293 291 290 288 280 280 273 266 274 277 286 270 281 288 288 294 227 301 307 311 308 319 332 341
140 123 133 128 165 134 140 146 147 146 114 186 268 269 393 329 334 232 301 141 292 290 284 267 264 293 283 285 289 276 275 264 261 284 279 263 266 273 273 273 278 286 303 301 300 308 323
144 130 137 137 136 141 137 148 154 169 144 131 174 387 169 158 218 322 161 290 294 283 273 278 263 267 270 268 266 280 278 272 272 258 266 266 272 267 276 279 280 267 279 301 299 305 298
144 129 128 135 117 122 129 156 142 148 124 165 178 178 374 363 166 320 232 300 314 301 286 275 269 263 268 257 261 257 259 273 278 274 267 268 269 261 265 261 270 276 278 298 289 284 298
101 123 133 116 127 136 122 133 150 146 163 259 252 150 154 393 138 159 277 308 313 310 300 285 262 274 260 260 260 264 259 258 255 282 278 276 271 269 268 264 258 273 276 275 277 280 274
130 121 135 120 131 141 128 143 140 146 127 138 155 280 343 194 129 126 309 309 268 309 309 299 280 281 272 266 262 257 257 260 256 261 286 292 278 275 282 288 269 262 262 269 268 276 270
117 128 156 130 130 125 131 129 140 176 163 112 248 214 291 143 117 108 134 316 304 255 288 303 290 288 280 271 267 264 259 255 256 252 284 288 282 288 302 304 281 269 274 258 267 268 267
139 127 120 133 171 133 140 132 165 125 149 127 164 121 236 304 126 109 128 123 309 293 289 279 297 292 302 284 273 269 265 265 256 257 255 294 279 284 286 291 290 275 273 274 265 260 260
127 125 112 135 143 104 143 129 112 151 140 139 124 208 287 373 205 124 146 315 308 297 293 286 292 290 296 294 295 281 272 274 267 259 258 253 288 275 278 280 278 282 283 281 283 280 263
117 115 140 143 138 116 157 214 149 180 133 149 149 132 165 145 172 125 316 142 300 296 290 278 282 281 295 287 285 294 297 285 274 264 265 258 264 285 270 277 269 274 278 276 276 278 284
142 141 141 117 178 127 126 191 141 151 182 150 249 118 266 147 113 122 132 160 305 303 291 281 284 275 277 285 285 285 283 280 293 273 265 260 255 263 279 271 282 274 265 267 275 265 275
168 139 162 155 180 151 146 132 154 125 151 258 120 143 166 415 132 122 359 214 116 298 305 279 281 275 266 271 275 271 275 281 286 288 275 265 260 254 262 259 277 272 263 265 270 271 265
99 149 128 142 208 141 143 128 228 183 112 144 112 270 122 380 110 138 346 321 323 194 298 293 274 277 273 268 265 271 273 280 276 286 281 290 268 260 253 259 257 258 279 269 262 266 270

GFSGBSN_2pvu_pres_048.txt.gz
Presure
132 141 179 151 97 119 136 118 140 154 158 213 244 122 316 370 365 348 401 515 478 445 437 448 449 459 473 489 342 325 328 311 310 292 298 278 295 342 310 323 209 185 171 183 203 146 164
136 127 154 151 163 119 136 145 119 126 159 148 233 341 380 367 352 248 390 499 495 463 442 438 436 443 466 495 468 332 319 315 300 291 290 303 288 308 332 307 227 205 190 180 167 118 201
135 138 145 159 124 113 106 108 118 114 189 110 109 294 370 359 354 347 460 493 477 470 462 441 438 428 456 429 426 461 315 312 299 290 280 297 286 277 342 297 269 211 194 196 197 186 197
134 133 143 151 119 148 136 130 136 124 154 134 240 297 329 354 344 339 395 496 472 482 437 430 437 407 406 391 397 423 311 312 305 273 289 274 299 273 307 348 309 240 207 165 196 200 172
124 135 146 141 108 112 114 109 139 130 181 165 292 193 336 352 341 344 250 461 491 468 436 424 421 389 394 388 384 437 429 305 297 268 285 276 295 297 295 333 301 345 207 212 196 182 190
136 149 138 156 121 129 136 108 116 143 133 267 153 205 369 349 337 335 321 367 374 483 452 437 430 400 384 404 388 394 459 303 298 287 275 279 287 306 304 324 315 298 223 189 206 194 205
141 134 134 170 165 111 119 124 93 132 122 107 215 170 318 349 338 334 316 373 357 359 470 454 442 395 386 385 439 409 435 299 301 283 276 285 277 301 295 283 323 294 244 210 202 221 192
126 132 119 119 126 114 129 112 140 103 139 210 154 171 135 351 337 332 322 351 368 353 362 461 457 414 420 393 423 408 406 295 303 282 279 280 279 297 296 286 298 334 291 252 221 207 233
124 148 129 136 118 120 154 106 129 126 141 158 205 181 176 355 335 330 316 327 370 356 348 352 382 450 428 423 408 391 385 285 296 276 275 269 282 277 290 292 284 327 278 267 227 229 210
138 128 137 160 127 127 136 128 159 141 160 153 265 187 229 352 338 326 307 309 296 357 365 348 351 375 398 471 368 367 305 286 290 272 272 287 272 276 282 288 299 267 319 283 243 229 234
144 129 135 116 142 147 152 104 123 125 159 151 190 168 177 363 337 324 323 308 315 317 353 354 339 355 367 462 352 338 298 283 280 274 269 273 299 313 258 284 285 300 313 311 314 239 239
109 129 132 104 149 148 150 152 156 137 137 146 119 154 275 355 342 323 311 308 335 315 323 322 353 355 362 416 356 351 291 289 285 275 281 268 272 283 270 306 295 294 296 272 325 296 246
119 129 142 121 144 149 131 132 150 171 127 148 188 168 148 372 340 280 323 295 305 306 298 301 323 327 336 350 387 328 291 277 285 282 281 278 275 280 295 282 304 315 304 304 311 323 267
154 126 112 152 144 140 130 142 141 166 155 127 133 263 119 248 354 334 263 297 297 291 314 319 290 311 330 324 357 317 304 288 284 281 280 274 272 278 278 274 267 266 306 300 300 314 320
148 123 121 138 133 148 139 143 138 136 145 164 167 247 135 230 194 192 189 304 296 302 307 302 296 311 300 322 325 373 318 299 288 270 282 285 288 290 288 288 298 295 275 277 293 325 304
160 145 121 135 134 148 136 135 151 136 147 217 150 194 194 251 323 243 276 318 243 293 284 302 293 298 292 286 288 306 379 320 313 294 285 280 269 281 297 311 308 328 317 316 325 275 329
127 168 124 134 150 126 128 148 141 186 139 164 138 161 169 172 278 128 142 324 305 296 291 302 300 292 289 285 268 288 280 300 292 310 318 292 296 285 293 303 310 329 324 314 318 330 340
132 161 126 162 156 125 150 164 153 175 147 196 170 104 164 323 139 161 125 133 298 295 280 274 268 301 290 298 285 279 268 270 284 279 284 272 258 292 290 295 301 298 301 307 310 312 325
148 167 149 153 139 129 117 109 116 137 142 159 143 136 175 170 131 121 165 291 303 308 287 280 269 265 286 279 282 287 282 272 269 274 283 284 281 280 274 271 275 275 277 298 313 308 303
155 152 159 155 139 128 128 131 155 144 133 162 139 124 146 189 222 128 118 125 323 300 297 286 276 272 266 267 270 258 284 281 277 266 264 271 273 275 280 273 276 276 283 283 295 309 302
155 141 153 132 126 129 123 141 142 134 135 144 110 153 193 175 429 153 324 121 207 313 315 297 281 276 267 268 264 260 264 253 264 280 276 267 271 259 260 265 269 270 272 273 287 288 298
161 152 126 141 119 123 145 147 122 135 139 117 117 128 164 136 136 287 304 116 289 229 316 309 294 280 275 265 264 262 258 257 257 254 257 283 278 275 267 255 259 260 259 270 281 282 283
126 152 126 124 109 160 133 114 146 142 143 153 203 152 123 263 130 314 221 122 180 291 310 311 305 292 279 269 267 258 256 260 257 254 254 250 269 287 285 280 276 273 262 261 267 275 271
172 148 104 124 129 130 139 162 139 135 137 183 147 132 137 178 157 374 349 128 133 214 302 302 301 301 291 287 280 273 267 264 263 262 261 257 253 273 284 290 291 302 317 265 262 268 273
160 147 125 129 135 147 135 124 104 144 217 143 157 150 146 271 174 166 285 114 282 302 184 304 297 285 294 291 296 292 280 271 269 264 265 261 259 252 291 283 281 296 305 283 283 260 262
149 150 140 131 133 119 144 104 154 203 130 126 151 138 115 260 159 448 305 114 351 244 195 310 296 288 274 288 298 282 294 286 279 277 273 267 262 259 255 281 277 283 281 289 289 273 280
153 132 132 145 90 110 145 106 133 141 132 133 154 112 163 133 268 312 122 277 225 327 271 304 289 286 278 263 286 285 284 278 290 311 287 277 268 263 259 252 281 279 272 275 281 280 281
133 142 142 125 147 137 135 99 175 109 154 137 135 162 246 202 181 122 151 132 136 219 140 161 288 293 279 277 276 277 280 281 281 282 279 297 274 267 259 258 256 263 275 283 273 275 276
142 134 138 130 146 112 122 121 115 107 223 135 151 128 193 260 133 132 136 148 221 132 318 309 297 284 283 267 271 270 271 277 270 272 280 284 283 279 263 262 257 259 257 267 274 262 266

GFSGBSN_2pvu_pres_051.txt.gz
Presure
109 143 122 148 154 180 120 150 113 134 131 124 113 160 141 131 375 374 371 360 508 508 464 449 447 450 471 477 420 346 322 336 287 290 285 294 300 280 279 247 274 271 221 217 181 185 190
116 157 139 124 160 160 117 122 123 122 143 146 217 152 164 159 304 371 362 355 445 502 485 454 450 430 453 467 481 370 328 320 299 282 279 289 287 284 293 252 269 352 231 203 174 186 180
126 113 147 118 155 166 138 113 102 145 106 120 131 168 175 221 355 357 356 345 422 511 478 461 447 426 445 466 483 506 336 312 321 281 284 290 276 282 310 264 280 367 323 219 141 196 179
126 128 129 136 143 136 120 112 106 100 115 128 158 227 203 294 192 362 353 341 345 503 465 437 451 437 417 428 492 501 361 311 318 310 271 278 273 284 303 275 308 289 331 208 226 207 188
129 118 124 129 150 156 126 124 108 110 122 150 119 158 191 241 327 363 352 339 334 393 465 452 424 401 394 411 413 436 427 314 310 306 269 263 281 288 302 311 269 323 367 293 225 207 188
122 131 143 136 145 130 147 145 136 124 127 133 160 226 126 178 309 354 348 337 395 382 461 452 413 400 390 377 391 413 451 311 314 301 290 289 288 284 295 315 273 321 298 370 217 205 201
125 130 140 123 134 141 163 145 181 130 122 112 131 116 210 253 346 279 346 332 354 379 372 459 412 404 386 383 394 404 467 322 307 300 283 300 285 295 291 304 269 314 265 346 251 215 204
137 131 126 135 148 107 114 165 130 144 120 135 135 159 128 186 311 197 328 331 329 365 374 382 430 406 401 389 378 427 456 328 294 286 281 289 277 287 290 299 304 262 312 286 365 217 215
120 132 128 123 135 144 144 155 152 134 146 153 99 161 129 121 339 171 165 327 318 333 384 378 414 435 382 419 397 425 412 330 292 286 281 276 291 283 291 282 301 258 283 326 393 283 217
120 135 119 153 150 118 126 125 153 161 129 149 161 195 134 182 216 267 245 326 320 326 348 369 392 448 422 403 427 421 393 310 286 277 273 273 278 284 275 290 290 302 281 325 305 397 236
138 132 127 127 127 155 123 103 154 146 149 147 193 145 172 130 286 354 161 327 313 327 311 363 394 417 391 411 349 356 372 303 285 277 276 271 283 281 263 280 274 299 258 285 332 277 312
132 140 127 110 144 154 157 136 133 129 150 161 150 158 123 150 175 144 166 329 311 306 318 339 418 361 353 355 353 348 345 300 285 276 275 279 280 286 279 279 281 290 296 279 321 307 263
133 140 130 143 128 167 142 162 140 144 111 167 142 144 128 241 198 209 134 133 311 302 305 328 353 343 353 335 336 337 336 294 281 285 277 278 278 288 297 275 283 273 304 299 290 320 284
129 132 146 155 138 151 152 147 152 136 144 142 128 136 235 160 129 150 179 331 318 245 296 306 331 335 327 342 330 324 292 279 273 278 276 268 253 263 283 312 280 279 294 298 295 265 304
147 128 140 130 153 162 154 146 146 135 123 131 156 182 126 157 157 127 133 127 323 304 295 301 298 313 330 316 331 327 303 282 280 276 262 288 274 291 279 305 302 305 308 296 303 308 259
131 126 134 124 150 155 147 132 134 129 129 141 149 165 152 255 124 244 170 127 129 314 296 298 302 295 286 338 320 335 294 291 278 291 277 268 274 279 285 305 286 302 280 272 285 305 313
145 137 125 146 161 138 155 134 136 142 154 156 124 151 126 153 192 136 126 274 122 184 215 289 283 298 286 287 336 321 293 294 301 281 283 284 271 284 286 286 281 277 282 283 277 277 280
153 106 133 130 156 158 126 143 136 148 150 165 173 125 196 142 142 175 179 190 121 203 268 299 273 287 293 279 277 308 303 294 300 283 272 277 276 270 282 267 266 289 291 345 316 337 316
136 129 141 144 147 152 127 113 122 131 135 166 166 177 197 152 156 246 156 171 121 203 251 263 289 261 268 289 280 273 310 305 306 288 290 274 273 281 283 278 282 292 301 303 306 316 321
137 121 144 141 125 140 132 116 134 137 115 162 135 158 237 150 241 147 179 205 167 107 306 159 295 287 274 263 272 287 272 270 272 267 303 300 295 281 277 276 273 288 287 288 295 298 304
138 123 144 145 150 149 162 110 136 125 137 152 147 216 116 141 168 157 151 247 117 239 315 303 155 283 282 270 260 257 269 284 278 271 266 277 278 275 277 272 278 270 269 273 282 279 286
123 125 154 145 163 144 156 136 103 127 122 124 138 156 169 117 147 118 182 400 132 217 324 198 304 289 285 276 267 259 259 256 251 250 273 276 272 270 270 277 276 281 277 277 277 280 281
142 121 152 157 147 148 128 127 109 124 141 136 151 161 189 174 181 185 192 130 323 135 127 141 193 244 293 285 276 265 259 256 248 251 253 251 252 257 284 278 263 255 265 265 270 271 272
132 138 128 148 127 160 134 113 119 146 132 137 104 144 132 139 203 195 150 129 163 315 286 244 179 306 302 289 283 275 266 263 260 257 252 252 253 250 253 264 284 280 275 261 256 265 268
134 144 151 149 120 133 113 121 136 139 135 133 125 156 158 138 120 181 134 478 124 235 310 143 301 267 301 294 294 282 273 271 266 256 260 259 258 256 253 252 270 289 289 290 287 279 261
126 146 162 152 151 145 94 123 111 127 139 133 124 181 139 112 150 264 167 436 122 371 108 111 304 304 294 297 282 286 286 280 279 274 268 265 266 264 265 258 253 283 284 281 296 312 304
132 161 159 119 162 133 122 125 144 125 158 134 193 151 149 113 217 150 210 124 138 124 121 140 306 140 301 291 285 289 295 289 281 295 292 283 273 272 269 263 264 258 273 273 276 286 291
140 160 142 162 148 139 136 127 152 124 133 110 136 131 150 175 142 197 186 148 203 206 136 129 318 302 301 285 282 274 284 282 286 281 277 282 284 290 277 267 268 261 259 278 271 266 272
157 160 137 151 126 89 139 141 152 147 118 136 129 156 184 131 136 136 169 282 131 128 111 309 315 298 158 286 278 276 264 278 277 278 277 276 276 283 286 274 267 259 256 257 261 272 278

GFSGBSN_2pvu_pres_054.txt.gz
Presure
116 103 125 130 149 142 152 121 113 116 121 101 195 152 127 111 157 132 386 371 355 387 525 489 463 454 461 466 469 450 351 331 310 304 298 294 281 263 247 227 206 206 198 217 172 237 215
107 113 121 118 140 155 136 134 123 94 113 110 114 122 137 104 132 179 377 366 346 354 488 497 465 457 448 453 469 479 368 325 322 295 292 294 288 280 254 238 218 207 202 228 202 245 225
106 130 122 128 126 174 159 156 122 103 114 136 113 126 198 219 165 326 375 362 352 352 481 465 458 447 449 451 471 475 403 340 316 324 283 291 286 282 284 245 236 212 212 215 199 210 255
101 120 119 126 143 150 155 117 148 128 125 126 120 193 159 191 239 270 257 189 351 348 465 464 445 437 429 443 473 473 456 341 317 309 333 290 282 282 282 277 246 236 222 217 220 206 213
91 121 122 131 135 136 151 155 133 158 95 128 169 153 148 153 194 230 350 253 153 343 397 450 420 404 403 427 463 487 470 357 317 306 309 284 275 280 278 274 268 253 238 230 234 211 245
110 107 120 133 126 147 126 153 167 144 124 95 155 179 175 200 214 284 143 222 349 337 385 408 419 394 395 390 424 466 481 372 321 302 295 302 268 277 282 277 274 258 255 247 239 209 214
120 109 118 134 125 132 144 133 103 128 139 123 124 141 179 157 171 287 166 156 347 338 342 402 433 396 397 376 401 435 461 382 323 302 287 304 323 262 288 272 273 317 263 260 254 227 208
116 115 115 137 127 125 160 139 159 147 161 98 117 130 164 193 162 194 189 329 344 338 335 399 432 391 390 388 382 427 433 367 322 301 289 292 335 280 272 308 275 302 287 268 260 243 219
119 132 114 135 138 125 153 123 110 129 91 108 125 172 174 217 163 146 148 360 342 340 331 416 442 410 409 383 409 423 447 368 321 296 290 288 304 306 268 282 310 268 280 294 258 252 228
146 117 129 133 130 148 159 149 131 153 114 126 190 140 214 147 165 128 137 176 233 336 325 428 415 431 415 393 419 438 409 356 314 289 280 291 302 299 298 294 282 270 278 281 279 257 248
132 115 128 133 133 125 158 149 152 154 118 94 141 151 179 135 153 139 130 135 142 239 235 362 432 415 409 414 450 418 470 343 311 277 284 291 285 286 303 303 260 287 277 301 309 261 249
123 132 128 153 132 134 154 160 130 154 128 108 147 173 162 169 165 148 129 140 229 322 205 345 395 376 425 399 365 356 367 322 293 280 275 277 282 297 306 281 293 279 285 303 298 296 247
126 122 134 150 132 134 137 130 149 153 130 126 139 179 131 146 200 145 178 126 133 208 317 250 330 348 336 341 331 349 369 314 287 284 275 273 274 274 285 299 298 285 291 283 308 305 254
118 140 127 131 134 123 140 155 127 165 149 128 129 107 130 178 156 166 129 120 124 310 311 309 296 342 345 343 362 355 353 305 276 281 277 264 267 278 287 290 284 285 275 298 289 298 304
118 139 134 136 136 135 118 151 146 150 141 120 123 116 163 158 154 156 199 173 123 213 307 294 169 220 339 351 337 338 344 300 286 281 279 273 277 283 283 277 285 297 291 305 291 298 311
121 135 131 127 132 139 133 154 137 145 137 130 153 139 105 170 155 246 173 166 144 125 133 300 181 278 344 339 341 307 312 314 295 253 277 268 262 285 274 281 271 284 310 283 283 292 286
164 132 130 131 132 139 142 154 94 139 131 117 131 153 165 117 203 161 260 160 139 148 267 305 293 259 298 336 343 321 266 294 284 263 292 274 283 263 285 298 298 305 283 287 305 304 318
107 112 132 128 115 140 146 148 136 162 133 142 111 137 162 150 170 162 141 216 297 250 173 302 202 279 299 298 341 326 320 275 287 277 291 274 271 285 254 261 286 253 246 269 271 265 254
142 123 119 119 126 122 149 149 121 140 138 146 150 141 132 148 122 174 159 198 162 138 129 147 153 249 200 274 294 334 312 294 282 289 274 278 265 281 285 272 264 255 267 278 267 279 294
142 118 131 148 127 121 152 148 127 118 140 137 153 134 153 175 160 195 243 221 166 134 207 137 150 204 176 269 270 287 307 311 295 274 281 273 280 269 264 262 265 278 280 288 297 304 305
129 123 134 155 131 120 153 152 129 105 142 137 150 141 186 139 147 187 174 125 121 267 120 140 316 299 285 274 267 256 276 291 317 312 290 290 286 284 285 281 267 277 297 283 278 284 289
112 124 124 146 133 147 127 113 98 103 123 119 104 128 154 138 161 179 175 164 137 397 370 148 205 310 298 288 280 265 257 261 279 278 276 271 301 300 285 302 282 281 276 271 274 276 275
145 125 127 142 131 140 145 151 115 170 105 124 136 140 162 132 189 175 173 172 165 125 193 111 153 311 306 255 284 274 264 258 255 258 272 271 270 270 264 263 259 261 270 272 271 267 269
226 126 126 142 142 132 153 151 135 138 126 112 125 148 151 131 155 159 177 240 141 240 128 97 227 312 294 295 251 283 277 263 264 259 255 253 254 250 252 257 267 269 263 261 260 263 270
144 166 125 161 137 128 159 152 96 124 131 130 132 148 142 159 136 123 134 110 221 166 191 105 212 158 297 297 298 287 280 276 270 267 260 259 256 255 252 251 248 250 261 284 278 270 270
132 140 129 148 145 134 159 150 160 132 137 137 130 115 148 158 216 153 226 153 137 133 351 112 328 141 312 298 236 245 288 281 272 273 269 265 262 258 257 258 255 256 251 251 283 276 291
128 138 127 156 148 137 157 149 102 140 150 148 130 145 145 130 156 193 141 143 161 219 112 299 119 240 312 299 172 208 295 284 283 282 279 275 273 272 265 260 267 265 257 257 252 276 274
199 182 143 160 147 149 139 145 120 114 132 124 110 140 148 175 197 149 155 174 204 162 142 466 118 126 322 304 233 134 148 285 286 284 281 276 278 287 279 273 275 273 273 265 260 276 270
224 158 140 162 147 152 157 156 125 111 147 158 143 118 138 158 182 126 143 217 133 204 126 127 136 320 320 301 300 272 268 149 275 280 281 283 282 278 278 284 287 288 275 267 261 258 271

GFSGBSN_2pvu_pres_057.txt.gz
Presure
100 97 119 104 118 134 115 143 149 128 122 120 115 130 130 101 128 165 167 134 149 376 363 394 517 474 477 453 448 454 436 371 316 326 299 321 307 282 264 244 228 221 202 184 172 196 142
101 97 105 116 116 119 109 148 147 171 121 118 138 141 143 175 117 209 234 347 388 376 360 151 489 481 468 467 470 468 479 369 320 327 290 309 317 297 272 250 240 251 216 190 187 196 186
101 116 106 111 123 130 130 151 134 157 133 137 104 107 126 147 229 176 196 165 210 373 352 415 449 452 450 460 462 477 469 364 316 319 325 284 307 307 280 258 246 237 248 212 193 189 203
109 122 96 111 110 128 106 144 161 159 139 126 114 133 107 127 142 171 190 254 380 369 352 414 439 410 408 443 463 475 476 370 350 314 322 325 285 293 291 275 251 244 241 241 206 193 192
172 122 112 112 110 121 142 135 137 131 146 180 142 99 154 160 170 183 185 139 305 368 352 416 428 411 412 432 467 481 458 441 350 313 306 322 265 290 289 284 260 248 243 242 211 144 192
160 127 113 120 117 126 137 131 144 171 156 120 104 141 135 135 183 161 219 131 155 295 218 331 425 411 401 416 441 490 459 445 343 323 301 297 297 316 287 294 275 251 247 237 241 202 198
125 125 118 117 140 126 136 139 151 144 122 127 137 194 109 141 159 187 169 110 123 365 351 339 435 408 397 404 427 486 460 407 348 324 300 290 302 278 291 286 279 259 241 238 229 216 200
126 124 113 121 134 130 129 140 148 151 139 126 121 93 134 212 158 158 169 128 117 364 346 403 432 413 402 397 407 440 454 392 348 317 302 293 293 317 265 281 276 267 251 240 240 227 216
125 124 116 143 118 121 133 139 138 142 132 145 126 113 134 161 161 161 207 203 115 245 346 334 428 424 415 398 395 411 428 374 335 309 306 293 284 317 313 272 278 275 263 250 239 238 220
125 136 118 132 122 126 134 138 142 149 162 164 128 161 125 149 175 180 142 191 116 126 313 345 186 423 415 397 413 423 394 374 330 306 301 296 288 289 331 294 271 270 272 268 261 244 245
127 121 142 128 146 132 130 126 133 127 143 130 137 130 125 117 183 155 183 216 108 105 182 349 210 396 450 443 446 434 384 384 324 302 296 292 288 287 348 306 285 301 274 273 272 262 244
127 150 134 134 152 130 129 144 138 120 155 155 124 147 151 111 162 142 165 161 161 233 116 331 349 377 375 373 420 462 391 352 319 299 284 285 294 323 314 307 303 263 267 280 271 268 267
124 117 135 124 128 134 128 132 137 138 158 130 126 125 153 107 123 150 173 178 181 303 249 318 327 367 348 359 365 384 355 328 302 290 289 292 287 286 272 309 302 291 256 275 282 268 286
131 130 140 126 123 132 126 133 133 141 150 150 161 153 121 135 196 159 159 140 156 256 337 184 209 350 366 361 361 350 331 315 297 298 287 296 294 287 309 307 291 288 281 259 283 266 274
136 158 131 130 120 126 131 124 134 146 138 161 136 164 172 108 119 168 164 123 190 168 179 124 137 306 353 380 341 375 322 305 277 283 295 286 277 298 297 282 289 291 292 279 264 287 286
161 133 125 128 125 129 133 122 130 137 141 150 134 169 144 169 160 154 133 185 182 177 306 126 172 310 348 375 348 339 315 292 278 277 275 271 287 283 276 279 287 284 288 281 301 297 278
209 133 123 146 131 129 117 123 126 142 143 135 142 137 137 149 159 118 176 185 173 164 179 139 179 226 295 353 345 327 301 284 290 276 257 259 279 257 288 278 278 279 289 285 284 263 277
145 135 124 170 128 133 130 122 131 134 141 104 145 166 154 115 146 166 174 157 118 131 145 178 190 190 296 296 333 350 312 302 289 286 287 286 281 280 276 273 293 284 281 274 279 305 271
161 144 117 126 125 126 127 147 133 144 114 145 155 142 134 140 181 169 157 180 167 193 287 126 130 145 298 299 318 314 329 312 294 294 259 254 265 243 232 254 270 260 258 253 258 270 275
126 162 138 123 172 131 114 151 136 149 150 148 158 144 158 157 146 161 149 153 195 172 195 123 176 142 301 288 166 325 318 314 296 273 294 278 274 274 267 286 272 276 263 255 260 257 263
126 125 116 117 127 136 126 159 139 133 149 164 157 103 153 167 171 139 176 164 232 184 399 135 117 140 136 293 283 271 281 320 295 306 267 275 276 275 267 272 270 264 256 260 271 272 271
140 200 120 186 120 134 132 132 138 145 158 159 160 139 156 171 149 127 147 180 172 155 433 205 140 101 280 301 285 143 272 269 301 322 304 295 289 291 289 292 289 283 280 280 289 273 296
128 128 126 200 228 129 126 131 149 144 132 150 124 143 157 126 164 168 146 200 225 128 200 203 259 134 117 298 291 273 263 269 265 264 274 283 304 269 292 317 306 280 291 291 288 282 277
121 130 164 198 124 158 126 137 159 141 116 159 118 121 142 98 152 191 154 198 177 146 149 193 294 202 132 254 289 288 139 273 263 259 264 255 260 260 271 274 270 267 270 273 270 271 269
136 120 133 152 123 225 143 141 176 146 152 143 140 130 135 102 145 127 145 217 170 214 184 283 338 144 129 134 300 287 148 139 271 271 252 259 259 253 251 254 257 254 263 276 275 279 272
128 212 127 134 131 159 142 135 155 150 157 116 130 120 116 153 152 138 160 143 149 212 192 212 139 136 111 336 320 298 290 289 151 176 273 268 265 260 254 254 252 252 252 249 247 248 250
139 115 137 171 137 179 130 145 154 147 153 130 137 109 130 141 158 135 129 141 167 165 168 255 219 122 125 116 331 308 295 290 292 228 283 276 271 269 264 262 265 260 261 262 264 260 256
243 238 220 124 132 235 141 131 145 155 153 132 151 117 147 142 144 145 123 179 184 160 131 178 236 218 366 346 340 317 303 292 288 291 288 283 281 281 277 274 275 276 272 268 264 264 269
242 162 223 229 134 167 180 144 167 149 153 132 118 134 152 153 136 153 161 141 128 152 203 187 170 259 114 346 353 327 307 301 292 286 282 280 280 281 280 279 280 284 279 280 277 272 270

GFSGBSN_2pvu_pres_060.txt.gz
Presure
107 100 103 97 107 117 116 120 146 118 135 174 134 130 132 127 145 131 177 173 209 216 292 375 383 454 499 492 450 439 452 433 227 344 324 301 333 313 297 256 258 200 189 204 220 167 131
96 103 102 102 103 111 111 132 128 149 142 175 172 178 127 149 142 134 170 147 207 162 130 139 384 440 432 459 492 458 433 442 353 325 327 304 296 346 298 275 226 223 196 191 212 201 205
116 143 133 146 97 117 120 123 124 151 155 149 114 121 139 165 161 165 147 180 214 162 129 132 351 436 423 419 457 472 484 443 364 326 327 309 295 325 328 279 261 219 208 198 194 239 190
155 141 180 204 126 118 114 117 124 142 145 161 172 113 93 139 114 125 153 199 209 122 123 190 347 436 419 415 439 473 480 455 378 327 314 299 301 304 327 293 263 248 221 211 202 233 214
129 131 133 144 126 125 117 139 136 139 147 173 166 93 139 145 133 137 172 168 208 216 128 134 375 437 413 413 431 472 485 461 375 327 304 315 318 291 316 299 278 258 239 217 212 201 234
129 188 170 153 127 127 113 135 135 135 152 168 155 113 142 131 162 134 160 148 143 237 134 123 371 257 412 409 430 473 484 484 370 326 309 301 305 281 295 307 297 227 254 240 224 207 188
118 200 166 143 130 121 129 121 130 129 146 154 123 127 119 131 122 122 165 171 182 263 122 122 231 292 409 410 441 487 459 491 348 323 312 295 297 276 272 300 294 251 256 245 187 217 238
111 136 142 131 132 129 129 127 134 136 151 151 163 167 162 138 126 128 174 171 164 133 125 360 236 433 418 405 419 448 451 409 338 326 324 298 288 338 273 281 301 277 261 250 243 235 219
131 129 130 144 127 119 135 133 140 136 149 156 154 163 139 130 136 128 122 132 192 178 138 355 383 412 421 404 412 406 417 412 331 327 318 295 285 300 318 263 285 327 267 252 247 242 232
125 125 129 129 133 128 138 166 141 144 144 144 161 126 130 146 152 130 153 179 181 179 363 352 281 379 430 426 421 401 441 363 324 313 315 290 285 298 313 308 270 283 279 261 251 246 243
122 127 128 126 132 140 140 137 144 138 135 150 160 143 132 163 121 129 166 162 153 189 191 122 157 278 390 434 426 403 422 339 306 304 309 290 289 293 307 331 264 271 272 271 261 254 249
124 131 124 131 127 126 142 126 143 136 135 147 151 155 141 169 136 137 152 162 184 204 302 352 136 368 376 445 411 381 393 325 304 308 296 293 297 298 283 289 318 286 265 268 270 263 256
119 136 125 125 123 138 123 123 139 129 136 148 151 164 143 127 123 131 154 149 145 172 241 196 211 151 372 373 428 382 383 306 304 309 297 295 296 289 279 280 317 295 262 266 271 267 256
123 134 128 137 134 135 132 133 135 131 129 140 149 158 144 172 120 151 120 167 188 188 187 124 269 140 369 365 385 401 349 302 300 297 295 302 296 300 284 280 300 304 297 254 268 264 265
130 129 125 111 133 135 141 124 145 127 138 133 131 162 135 110 126 151 147 181 150 178 169 129 154 122 381 359 389 401 330 307 292 293 296 297 291 315 280 277 274 300 294 292 262 262 262
123 127 129 150 124 142 141 137 126 139 135 126 126 143 133 112 119 158 137 175 151 175 221 342 185 120 364 351 353 367 327 297 286 294 296 286 287 283 284 274 297 301 291 296 300 258 255
123 138 128 125 131 136 130 138 128 144 136 152 149 156 150 125 112 135 175 153 207 170 229 174 222 121 338 357 259 322 285 307 293 296 273 295 299 289 297 282 277 297 294 294 287 274 250
126 145 137 165 132 143 129 146 129 132 141 127 134 128 128 126 146 132 137 149 160 174 338 164 340 112 114 353 335 310 301 275 291 288 298 287 268 277 302 290 277 308 295 290 293 284 286
220 135 161 139 130 144 138 127 141 139 137 162 146 109 163 220 112 142 150 247 163 141 171 217 146 268 104 304 332 302 262 292 292 294 277 262 292 291 284 264 276 269 285 269 274 288 283
179 121 207 179 135 132 138 135 174 129 138 179 148 140 150 166 145 117 155 149 175 181 173 188 232 269 231 116 292 327 235 296 280 280 275 272 260 252 268 267 223 259 264 261 270 228 266
134 158 173 166 138 122 128 126 143 126 136 116 154 149 100 118 171 109 135 150 153 121 168 161 294 134 153 267 278 289 321 308 298 283 301 309 287 265 252 272 260 259 264 268 260 258 263
232 235 124 198 131 220 127 127 135 125 133 140 158 140 145 150 101 149 110 112 179 171 192 195 379 119 319 320 132 164 287 144 218 310 295 288 270 271 267 264 263 263 260 259 264 251 267
175 252 249 223 233 168 121 154 131 183 137 149 158 149 161 133 175 125 141 141 160 174 183 190 238 197 343 276 207 302 287 280 162 143 306 302 301 293 291 294 290 286 285 287 281 267 322
129 167 160 196 152 177 143 136 133 161 153 144 150 151 148 162 127 125 99 151 186 193 193 182 180 368 124 143 180 253 226 292 278 266 265 267 275 289 315 303 295 287 304 306 285 290 288
217 135 189 231 130 126 130 148 226 138 142 145 159 150 123 113 145 162 129 155 139 174 171 180 236 221 195 113 218 312 303 294 274 280 273 252 266 262 258 263 268 271 276 276 275 276 274
130 244 236 121 123 129 126 132 133 114 141 143 157 151 150 132 160 133 126 112 165 187 170 251 187 250 216 137 106 194 311 300 290 283 279 272 267 261 256 258 259 256 250 250 256 254 250
253 225 241 240 231 128 196 139 160 146 148 141 151 151 158 153 138 153 159 109 167 151 176 167 152 218 251 371 244 338 317 314 301 298 289 282 278 271 265 262 260 256 249 249 249 252 251
126 206 250 171 236 184 164 134 160 134 174 143 150 153 119 153 173 148 142 142 173 114 149 144 233 204 263 262 366 108 238 315 306 301 294 294 291 282 272 271 269 266 262 259 255 252 252
204 149 235 135 230 231 239 171 156 138 191 155 148 155 128 152 138 106 126 154 154 136 165 155 159 242 249 123 341 196 318 340 217 302 297 290 285 285 280 280 275 277 279 275 272 269 265

GFSGBSN_2pvu_pres_063.txt.gz
Presure
123 123 115 110 103 103 103 123 122 120 128 128 137 147 164 131 136 123 135 137 162 150 152 202 117 133 134 446 472 460 448 423 435 349 351 350 317 296 318 319 303 265 257 191 175 203 183
111 111 117 107 112 118 119 105 132 121 127 138 114 156 169 152 96 122 127 177 152 164 174 251 145 123 127 198 432 501 435 422 431 385 330 353 315 300 312 316 307 284 235 233 231 216 186
115 115 119 118 118 125 103 156 130 122 126 134 162 159 166 165 91 130 159 125 163 139 145 254 123 212 445 371 422 444 482 431 428 401 321 340 338 316 312 296 308 290 248 216 190 220 214
116 117 119 133 109 134 110 157 145 119 137 141 124 157 157 167 178 121 133 139 165 135 196 213 140 286 431 420 414 423 480 449 418 388 338 328 346 319 304 341 300 296 262 239 195 189 112
118 117 118 124 133 197 141 177 132 121 139 144 146 138 157 137 147 137 125 119 139 130 139 246 329 398 430 423 416 438 477 474 422 382 343 319 338 319 297 348 349 298 265 255 233 248 188
103 120 117 125 126 188 144 143 132 124 165 140 124 158 153 176 134 135 147 164 148 161 150 150 369 365 442 417 436 491 486 451 379 368 326 310 323 306 291 303 363 146 80 185 252 222 209
117 111 117 124 122 122 145 138 139 130 128 126 142 159 159 169 193 126 129 142 202 152 146 210 361 128 134 418 469 486 493 375 380 358 324 303 337 297 361 289 331 295 276 266 256 230 268
114 120 116 116 120 132 142 138 138 151 115 143 147 145 161 184 165 154 132 135 152 146 189 244 356 377 142 421 435 488 484 370 369 351 318 303 287 324 321 281 308 293 278 269 204 252 209
164 126 119 117 124 128 135 139 133 141 147 148 144 175 147 162 202 135 128 147 173 161 174 293 292 379 157 418 427 428 439 403 368 334 306 301 293 310 347 282 291 312 274 269 264 250 238
112 117 117 123 132 129 134 138 128 146 143 137 141 153 197 167 169 178 126 131 142 174 149 373 351 375 135 422 420 431 397 378 362 316 305 299 301 335 294 303 271 316 289 272 259 252 244
213 200 123 122 128 127 132 139 135 142 135 138 147 149 143 172 141 170 121 206 123 170 140 219 280 129 114 398 416 410 390 377 337 310 303 300 300 290 330 290 267 274 288 278 266 252 254
112 130 172 128 121 131 130 137 133 141 144 138 208 146 150 163 116 136 130 157 143 174 179 155 350 160 214 399 419 399 394 337 319 314 305 295 298 288 277 297 267 264 284 281 288 266 258
197 127 124 131 124 127 135 132 135 144 137 120 144 127 159 161 145 136 118 138 161 155 182 197 352 131 366 392 438 405 341 327 313 295 308 304 294 287 278 307 308 260 275 290 282 283 262
139 181 123 133 123 128 129 132 141 144 135 129 151 124 182 200 138 132 178 135 164 137 172 188 353 371 140 386 409 397 329 321 295 301 323 303 289 294 285 280 311 273 256 268 281 302 270
140 163 126 133 126 135 130 133 130 143 175 147 124 149 154 170 178 119 116 116 155 143 168 181 355 346 346 173 409 229 319 316 312 313 316 300 288 298 307 276 317 306 272 257 266 270 296
179 161 172 119 131 135 132 202 120 167 112 138 153 147 151 184 154 125 128 120 143 163 140 182 242 291 131 230 309 336 324 315 310 302 308 317 321 310 274 267 266 273 288 297 260 265 255
201 199 130 139 134 127 125 134 133 146 129 144 141 144 134 112 146 146 138 119 154 162 195 194 244 338 193 118 127 330 309 310 305 291 295 299 298 288 242 275 270 270 276 291 275 254 259
209 200 182 127 132 130 134 140 123 131 153 195 145 133 144 142 163 127 165 122 118 162 164 173 231 281 356 164 128 128 309 301 308 308 296 293 307 302 291 278 302 269 307 296 292 290 290
140 193 206 196 124 135 133 194 209 147 147 195 147 135 145 137 166 144 129 121 158 194 160 178 177 239 334 299 147 335 303 282 281 292 294 292 302 286 280 274 281 271 282 290 279 284 281
195 144 204 226 230 132 188 130 130 126 166 126 142 137 142 158 160 125 142 123 118 167 251 151 166 285 117 315 322 145 317 291 215 187 269 285 304 293 292 293 235 275 281 300 280 283 289
211 190 181 223 222 124 141 247 229 136 152 125 136 147 186 157 140 160 133 131 113 135 158 157 170 178 150 213 324 326 122 299 305 269 140 273 271 272 268 269 266 272 265 258 258 274 271
192 209 221 192 135 217 127 244 113 146 126 135 137 161 139 156 142 152 138 119 110 148 153 161 160 188 169 340 314 109 320 314 295 309 295 296 263 285 259 263 286 264 261 257 267 274 262
225 188 204 140 216 201 144 155 147 158 181 148 221 152 177 157 164 128 124 112 141 140 124 161 182 180 162 165 332 175 114 291 313 298 298 288 288 208 279 259 277 255 269 256 262 268 264
226 198 158 204 178 143 203 190 226 210 184 135 130 185 127 131 152 147 167 115 125 213 153 147 176 182 344 102 290 329 192 215 292 317 316 307 299 297 291 288 285 276 277 268 255 265 258
197 203 199 192 139 165 143 238 230 186 149 138 224 150 126 149 141 174 123 97 111 129 119 175 153 201 181 194 306 187 332 110 305 296 285 276 273 265 307 288 296 307 303 303 300 295 299
192 227 201 136 218 129 182 127 126 130 132 143 225 146 141 172 142 120 163 113 118 134 137 210 195 170 177 284 189 363 260 125 208 305 295 286 275 268 267 260 270 263 265 269 274 276 268
197 202 146 196 177 138 148 124 192 141 133 146 185 146 134 150 157 140 137 147 127 154 117 152 150 173 168 196 213 242 196 122 335 322 312 298 291 283 277 271 268 257 255 257 261 246 249
220 204 201 122 247 200 134 202 227 124 160 152 156 142 149 167 152 116 95 120 150 101 170 145 145 187 167 186 232 262 271 333 295 336 317 307 303 296 287 279 273 267 262 258 258 255 252
196 207 213 222 247 235 186 229 241 228 175 162 164 134 145 169 145 149 154 112 132 161 133 151 166 170 142 173 157 106 179 304 202 347 326 313 301 294 288 285 285 281 277 273 269 263 262

GFSGBSN_2pvu_pres_066.txt.gz
Presure
192 176 119 113 126 125 112 123 110 124 110 112 133 113 122 114 154 160 180 224 138 145 144 142 145 153 159 119 361 441 265 441 445 415 454 341 362 371 354 337 316 292 274 257 245 201 226
126 118 155 122 113 113 119 119 124 121 161 127 148 128 133 128 131 187 181 187 145 143 144 128 183 182 163 149 450 440 437 444 425 408 434 351 346 366 397 348 323 303 287 259 241 234 215
125 126 119 115 122 119 121 123 123 109 146 195 129 131 156 160 155 144 184 259 164 139 149 136 143 209 183 391 448 428 163 459 416 407 421 425 330 355 410 347 323 296 271 254 253 223 206
120 120 117 121 122 121 122 124 136 171 124 157 134 135 140 136 146 129 218 146 145 172 152 134 192 149 134 343 346 154 352 463 412 410 389 413 323 340 346 347 308 288 285 297 276 227 234
119 116 119 119 122 122 123 121 131 124 144 154 139 132 118 103 128 163 187 160 160 130 144 127 157 225 149 405 432 435 163 462 409 418 382 365 321 334 341 321 361 293 280 298 291 252 233
120 119 121 116 108 121 123 122 131 123 149 190 136 154 145 106 131 167 176 158 153 133 142 128 149 210 351 427 436 249 484 473 412 426 373 363 322 328 330 346 363 335 254 78 237 260 138
214 111 121 126 117 111 119 117 122 124 146 145 138 139 146 221 173 204 243 137 175 131 130 136 189 143 406 397 443 136 460 483 393 415 361 351 316 319 331 352 299 259 293 290 278 252 248
107 190 118 128 116 118 130 117 125 136 140 192 131 149 148 154 143 188 177 146 141 132 166 154 145 373 427 122 127 493 452 436 370 358 359 362 292 321 333 316 292 265 301 279 282 271 264
183 160 113 126 118 119 117 121 127 138 141 168 144 146 139 173 170 163 202 146 148 142 147 161 196 284 320 137 439 449 413 405 381 354 355 371 301 293 314 355 288 275 303 298 266 262 256
191 171 125 122 192 119 119 119 128 136 136 148 122 135 163 155 144 193 160 126 154 141 140 152 175 271 408 418 439 370 357 360 378 338 314 348 297 288 303 333 294 273 277 286 287 272 265
188 207 114 125 109 117 118 126 126 130 135 142 145 145 147 142 172 216 145 148 135 137 145 161 214 234 392 128 132 353 351 346 371 351 325 306 294 317 295 304 324 281 278 306 272 282 289
170 186 205 134 117 114 119 133 137 138 138 153 145 134 124 136 162 152 186 147 139 130 161 166 144 377 384 145 130 356 359 355 340 310 300 298 294 294 298 312 329 284 305 343 287 268 281
313 277 229 124 126 117 134 133 136 135 140 144 208 143 155 160 156 147 159 131 133 142 173 145 208 222 224 428 424 292 359 379 321 307 298 297 300 316 310 317 343 337 275 299 338 307 273
175 244 228 179 202 149 119 126 136 114 140 132 142 146 122 156 142 189 141 141 128 137 131 173 163 328 108 156 408 297 352 330 322 312 302 291 297 319 303 312 286 330 282 264 322 318 279
184 245 197 269 189 125 139 130 141 137 150 132 146 138 158 157 150 175 129 140 137 121 165 122 184 340 112 137 277 355 353 319 316 310 309 300 299 309 283 279 289 276 318 271 260 296 280
336 198 183 266 253 229 127 135 127 139 171 125 178 135 161 160 148 157 182 125 135 139 138 145 134 162 246 378 125 346 326 307 317 308 305 312 296 293 272 273 279 311 306 292 262 262 283
241 191 190 195 192 251 171 127 132 138 140 140 152 146 144 151 161 175 168 149 128 124 115 130 148 243 190 108 360 170 318 330 231 298 298 314 303 299 300 280 269 293 307 292 260 267 284
244 211 247 241 251 216 192 122 118 133 141 142 136 146 192 129 109 195 140 146 137 159 206 123 135 160 325 440 356 207 122 315 309 187 307 311 331 320 307 300 271 272 267 293 294 295 252
194 210 230 254 247 245 227 199 124 137 132 144 138 138 171 142 149 197 138 124 126 133 148 157 159 179 181 171 243 301 170 305 313 302 298 211 320 287 288 281 280 270 280 286 299 295 290
190 231 219 249 231 238 201 214 135 139 139 152 141 142 138 178 183 199 153 132 122 118 135 178 149 166 180 357 339 277 333 139 246 299 305 294 287 288 285 284 288 280 271 270 272 286 305
180 242 184 255 144 199 231 203 144 176 143 141 227 130 198 135 179 197 173 136 112 123 114 114 183 165 338 199 219 347 329 149 141 273 302 295 303 300 284 288 287 284 279 306 278 285 283
182 204 177 212 194 207 224 217 129 191 226 126 150 133 202 169 142 229 169 170 125 138 116 155 163 172 126 351 215 149 341 316 304 125 293 283 283 277 285 284 301 285 282 275 298 296 291
179 255 188 203 201 242 183 221 227 222 157 166 226 142 139 150 224 179 152 158 129 121 119 107 157 155 144 130 101 223 139 317 316 108 305 296 293 270 272 269 268 265 273 263 272 257 269
168 203 172 205 195 156 212 226 178 194 234 228 184 190 160 135 199 133 152 141 131 134 118 185 110 131 182 155 193 291 128 321 175 310 222 311 302 294 285 278 265 258 268 273 260 263 264
175 199 173 168 203 211 218 211 225 226 233 223 221 131 141 212 167 138 144 150 152 117 118 143 181 121 187 159 198 201 303 194 335 309 268 305 306 307 300 291 231 292 279 258 275 270 279
163 106 182 205 208 205 214 145 219 244 199 131 218 133 175 152 208 154 155 151 118 126 160 134 132 108 140 139 169 199 188 294 265 290 324 308 299 293 287 315 313 292 280 290 299 297 280
142 206 164 197 197 213 127 204 235 202 128 125 224 136 154 220 151 165 178 161 113 160 118 110 116 144 177 154 156 155 176 236 262 322 348 334 320 303 294 289 284 271 266 267 263 260 263
178 206 185 202 154 125 207 217 164 128 179 150 178 137 150 223 136 149 152 195 151 129 125 99 157 147 160 157 149 154 184 179 238 189 259 360 341 268 310 303 296 287 279 277 266 262 257
119 181 193 146 191 210 207 227 200 240 228 225 220 200 177 160 202 152 149 193 201 133 110 137 121 224 153 194 133 153 161 225 216 255 256 315 274 274 339 319 307 294 283 290 283 277 269

GFSGBSN_2pvu_pres_069.txt.gz
Presure
162 124 165 159 129 156 136 117 126 131 131 125 127 115 216 161 118 132 160 128 146 195 200 188 170 174 165 148 144 154 443 234 473 369 472 483 364 355 382 353 334 306 296 290 195 274 248
173 172 145 126 128 163 136 175 120 125 126 128 123 140 195 158 133 124 118 154 134 199 183 182 159 174 162 178 211 249 182 443 471 195 444 435 362 349 365 355 342 302 290 296 292 276 152
110 174 126 170 133 133 126 127 120 125 127 131 94 146 172 155 135 149 133 123 117 235 164 166 164 185 200 146 138 340 184 432 457 354 406 400 405 342 352 366 337 297 292 289 291 273 245
182 139 121 148 125 130 133 132 125 125 127 126 132 141 141 157 131 129 145 227 152 190 161 165 149 168 177 148 247 446 435 134 140 352 398 394 457 342 338 366 341 314 293 294 280 284 261
189 179 139 128 132 128 129 127 125 125 130 126 128 128 144 157 143 151 134 133 216 164 132 150 152 137 148 162 300 117 135 288 454 407 389 397 419 343 336 353 382 319 298 293 279 280 269
126 175 154 123 129 128 126 127 124 124 127 124 122 131 144 157 144 156 160 130 169 167 162 153 144 175 131 169 369 202 370 492 454 420 397 377 385 359 321 343 352 317 296 299 280 276 289
217 185 151 144 121 125 128 131 131 122 123 127 129 134 147 147 152 130 160 134 143 168 151 158 149 146 139 161 442 340 464 456 438 409 396 385 379 353 315 335 332 320 283 159 276 291 272
261 216 226 145 102 139 117 122 131 149 125 127 146 136 146 154 153 129 134 200 175 169 164 162 146 154 169 376 448 134 351 464 423 362 351 364 375 344 296 330 353 336 287 281 287 276 272
244 226 196 229 231 226 134 114 128 128 121 129 133 139 145 151 146 127 141 231 207 133 148 148 163 154 147 444 325 115 137 421 366 346 342 363 388 334 293 334 328 337 292 271 274 282 263
227 257 171 245 263 179 200 133 113 132 127 131 127 139 137 140 125 148 176 124 230 143 117 154 132 149 157 404 439 367 159 372 341 348 354 351 355 305 296 311 325 356 340 269 268 275 280
236 231 211 237 181 244 138 256 234 129 125 129 128 140 149 142 124 166 158 167 158 114 143 150 134 151 496 194 375 353 350 350 346 328 339 365 330 289 297 336 347 300 350 287 277 273 274
270 241 256 236 171 223 180 163 195 114 126 133 137 148 151 126 131 153 162 150 139 128 147 153 135 144 149 195 111 264 280 329 250 335 352 332 288 294 287 317 312 318 366 272 266 273 268
317 355 239 232 174 182 183 263 170 131 150 127 138 149 145 128 135 145 154 144 153 154 153 128 151 155 140 105 268 305 127 317 309 324 353 311 291 294 303 323 329 344 291 268 272 286 295
576 291 241 251 265 245 232 195 210 255 125 134 136 149 148 122 146 166 119 173 179 146 128 147 134 138 141 180 205 377 326 323 308 308 302 299 299 293 289 292 316 320 302 303 279 283 287
517 556 277 242 250 221 186 182 207 226 209 149 138 144 140 132 143 162 150 215 159 149 146 141 154 164 347 223 365 152 333 321 322 151 303 295 304 305 291 263 305 336 351 282 279 262 279
394 282 256 255 245 217 208 262 269 171 215 178 141 134 148 143 124 159 152 180 147 142 132 153 141 135 144 430 389 347 335 326 306 313 145 322 315 302 304 312 301 296 311 337 276 295 270
454 451 254 261 249 232 210 250 262 261 200 201 128 139 129 147 131 151 149 177 151 153 161 133 138 156 155 432 375 236 334 120 116 304 316 225 309 318 288 306 279 295 288 339 326 266 263
441 447 264 245 244 243 189 200 253 250 202 204 126 142 128 129 152 116 155 154 128 133 166 177 136 132 168 151 377 345 124 322 125 301 294 310 324 313 288 286 277 281 294 282 323 301 262
450 440 251 357 260 249 190 185 257 239 196 205 207 138 132 134 145 174 152 217 146 126 119 136 133 132 151 153 350 261 308 327 312 313 306 303 305 319 290 279 275 270 273 323 308 297 290
466 371 277 272 253 175 190 237 229 209 204 199 216 130 139 141 182 156 150 169 164 137 127 129 123 122 159 172 219 328 310 121 313 299 307 299 312 312 293 303 293 277 274 271 304 309 307
278 324 282 251 181 187 250 190 190 212 222 197 214 225 209 131 209 168 159 184 190 149 178 148 140 128 119 152 166 339 320 130 324 226 248 294 206 299 292 293 294 287 282 282 270 281 274
288 307 255 273 263 190 231 209 196 208 178 127 220 199 218 133 144 130 175 175 218 146 174 126 119 147 148 148 156 184 349 288 234 315 301 289 120 300 308 293 301 287 289 284 279 268 261
272 274 229 252 254 202 205 219 212 208 155 135 211 124 137 139 213 178 170 167 197 133 132 129 143 126 132 138 164 160 140 317 332 316 310 249 303 285 271 283 278 299 292 281 292 278 276
277 268 259 242 245 204 185 232 182 227 193 231 187 204 191 223 136 151 200 188 213 175 144 146 140 126 187 130 144 153 129 123 306 341 329 164 316 306 314 298 281 261 273 275 276 277 275
248 263 244 229 222 203 217 212 237 208 227 128 224 175 185 136 142 151 230 170 210 148 177 148 156 140 196 158 132 189 113 180 185 254 131 107 331 317 164 309 299 291 275 267 263 267 264
250 258 233 244 181 202 200 140 197 217 229 134 237 234 134 134 144 222 149 160 153 175 122 123 124 134 131 116 144 138 183 172 215 265 145 249 295 269 263 319 309 295 304 295 289 283 272
256 258 236 200 206 163 224 185 215 215 230 224 151 138 131 133 141 150 140 144 156 169 165 184 138 117 137 115 116 123 146 168 189 243 239 220 237 251 255 272 289 324 307 295 292 288 285
216 259 174 190 213 170 189 212 128 217 217 137 188 127 151 131 147 214 160 151 149 153 125 138 136 145 124 138 119 176 181 160 164 221 243 154 224 227 235 248 180 260 271 315 302 289 281
238 111 172 172 181 138 182 123 141 142 229 141 194 231 141 206 144 144 221 210 123 209 163 139 139 148 126 141 149 169 148 135 124 171 242 244 241 227 242 233 240 149 255 266 322 307 294

GFSGBSN_2pvu_pres_072.txt.gz
Presure
189 147 182 180 149 126 186 163 137 172 159 142 147 133 133 128 112 140 156 166 117 131 113 136 142 174 162 182 151 151 142 300 162 177 283 458 385 319 372 358 364 354 314 313 293 289 263
164 182 201 125 193 155 178 130 135 194 141 147 141 145 131 132 117 134 144 169 138 125 134 167 184 159 147 143 163 165 149 161 125 343 125 459 142 504 362 349 366 358 310 306 294 285 292
160 163 167 209 132 184 164 153 132 133 141 200 136 127 129 130 116 133 151 166 134 133 126 151 140 150 162 169 139 160 441 171 438 357 443 130 137 348 361 345 358 342 311 301 298 280 280
187 172 212 172 181 211 201 193 132 146 137 141 139 138 139 133 123 187 152 142 153 132 155 164 166 182 132 156 134 159 156 268 402 131 184 400 422 402 362 338 350 330 309 298 296 284 278
267 250 184 191 180 165 168 179 135 135 136 135 138 133 136 124 126 141 141 155 165 127 137 148 203 151 170 130 127 157 451 459 128 418 412 388 392 388 355 328 336 326 305 297 292 283 270
234 291 246 262 193 204 225 197 125 195 147 135 131 133 125 125 132 142 188 139 131 120 170 225 170 174 147 137 144 233 473 410 140 416 394 390 388 370 386 341 331 344 308 294 289 284 271
242 252 273 319 292 174 301 175 120 115 128 132 133 114 130 127 137 145 157 148 128 150 204 169 178 144 136 133 165 167 453 129 133 407 382 381 391 389 378 334 331 351 324 286 289 274 283
228 249 229 311 239 237 217 141 281 270 143 123 133 131 133 131 132 142 147 132 141 141 148 210 124 142 138 149 145 464 124 448 142 396 371 379 376 399 376 334 332 325 297 278 277 273 272
248 262 234 292 289 276 211 275 271 218 174 131 129 110 132 124 134 142 155 124 140 150 234 162 163 148 147 143 161 460 427 163 416 397 365 376 409 416 355 314 330 324 291 304 278 280 281
286 258 270 228 244 249 301 250 258 248 231 192 215 115 125 132 141 152 148 127 142 140 250 165 137 144 142 138 406 385 125 128 351 369 371 372 345 377 327 300 323 323 269 272 291 291 279
320 261 219 314 266 344 237 315 250 186 198 267 254 117 127 133 138 150 120 142 141 139 149 159 163 161 137 170 254 113 120 303 344 355 367 341 337 328 359 301 316 311 284 268 266 272 272
323 315 332 340 339 343 241 251 351 178 239 269 143 156 144 141 152 135 123 202 140 152 182 160 137 137 137 144 382 108 119 160 350 367 354 321 326 339 293 311 310 316 296 274 278 261 265
345 369 605 586 573 603 243 257 256 262 205 184 150 156 170 147 176 142 128 120 156 175 162 136 162 147 157 147 367 190 255 242 350 340 317 311 306 329 296 288 316 297 355 274 267 268 273
459 548 552 527 509 581 257 258 246 258 209 255 188 236 125 140 183 136 125 146 150 163 170 154 158 139 140 148 224 344 305 124 228 332 320 311 308 295 318 281 321 321 355 266 261 282 275
489 612 505 485 487 510 428 245 256 246 180 147 185 216 221 152 162 169 134 138 177 187 172 171 117 177 164 336 329 156 335 302 121 252 300 280 282 312 289 285 305 336 309 289 270 267 271
517 543 478 476 475 500 376 260 213 239 261 182 192 188 222 173 132 129 137 129 206 188 168 187 153 167 145 136 350 341 329 110 315 309 290 295 248 287 299 291 333 309 342 335 279 272 271
539 496 466 484 472 521 254 242 252 266 270 249 191 197 136 164 133 124 141 139 150 161 142 169 155 130 165 134 151 262 339 124 210 245 300 283 283 313 306 276 278 305 324 316 301 278 258
530 490 465 465 293 388 301 254 251 268 216 249 186 159 179 128 130 136 124 131 193 162 151 144 152 154 113 135 156 355 344 134 335 305 299 312 298 315 310 297 307 285 298 318 317 277 300
522 476 359 458 491 264 247 262 264 262 199 242 190 164 132 145 128 124 131 210 156 157 150 159 143 127 133 151 122 270 342 299 335 313 316 307 310 323 246 295 304 286 279 287 300 346 339
508 470 263 260 337 301 291 262 273 235 235 194 176 229 189 136 130 137 189 149 183 155 162 127 163 159 220 144 129 122 145 133 311 253 313 293 311 321 306 313 294 293 284 284 307 291 335
494 439 267 273 272 266 281 272 261 236 184 192 191 217 133 195 224 219 205 153 228 150 159 157 159 177 133 113 143 125 321 333 328 242 305 306 316 318 305 298 301 294 281 281 280 289 324
510 320 292 263 241 257 241 267 250 214 204 234 193 178 220 133 227 136 146 151 154 159 158 169 144 176 112 122 127 120 290 348 184 330 312 124 302 306 302 304 299 298 298 293 283 282 276
427 241 257 255 273 233 242 247 247 217 196 217 209 134 207 163 140 160 193 146 186 192 164 151 129 133 129 256 160 122 157 134 177 263 154 229 325 313 304 296 297 298 307 301 292 288 283
272 254 249 240 269 260 256 246 215 182 221 143 222 195 170 184 126 134 142 165 149 213 167 151 135 124 148 158 103 158 115 131 127 165 166 221 236 249 298 328 314 309 297 300 307 298 293
261 277 245 254 253 245 265 228 234 174 162 190 232 164 193 226 146 172 173 221 205 159 164 182 145 161 178 147 135 117 113 144 117 235 116 247 232 250 223 225 252 279 237 308 291 285 279
266 262 265 237 251 239 228 219 178 197 224 228 232 137 228 219 144 174 147 228 142 150 197 115 154 170 148 137 126 108 118 168 195 225 240 205 236 116 225 265 278 274 239 249 291 312 304
217 262 251 258 203 246 231 214 183 190 174 205 233 191 225 194 137 153 177 235 131 149 156 138 178 151 95 134 122 155 117 120 135 173 164 118 242 241 217 233 231 256 265 222 242 283 325
241 256 245 218 241 231 207 222 210 200 216 139 208 207 175 133 147 136 206 181 157 149 149 130 185 196 165 168 135 138 119 122 158 160 157 234 220 243 236 232 249 231 245 255 164 264 166
209 256 173 253 237 183 182 197 222 213 221 223 233 232 133 202 135 137 144 233 215 209 128 151 165 135 108 200 156 162 174 149 120 139 113 216 212 140 237 235 250 246 225 253 255 220 262

GFSGBSN_2pvu_pres_075.txt.gz
Presure
169 203 200 189 172 183 172 157 205 162 132 134 143 139 189 151 149 167 147 118 122 139 137 154 132 149 143 157 158 216 172 131 135 176 139 158 168 159 450 463 70 363 366 360 317 304 331
184 195 195 195 197 176 187 204 192 177 205 141 191 179 144 209 144 149 148 115 118 142 151 159 124 142 154 168 170 154 159 165 138 160 157 169 302 441 348 486 440 386 350 346 339 308 319
229 229 243 274 248 246 301 181 278 168 140 183 196 141 141 149 185 148 137 117 124 141 141 124 128 148 142 158 162 155 128 142 178 154 168 419 437 449 448 486 425 151 151 331 374 305 310
260 262 209 222 269 264 260 298 311 266 255 288 187 177 185 138 148 136 131 113 130 135 146 148 170 134 139 141 186 147 144 157 126 162 429 435 239 121 407 417 291 168 148 330 324 303 297
237 259 255 268 281 262 263 240 238 249 286 270 196 174 135 137 138 125 117 113 132 133 154 126 141 164 161 165 133 136 138 171 159 424 444 240 138 396 448 428 365 344 346 327 319 304 294
264 244 260 222 263 248 254 226 274 209 242 258 263 168 151 148 128 118 124 126 134 139 148 130 130 158 168 132 178 132 133 161 435 484 220 336 230 374 399 374 375 346 338 313 309 308 296
168 178 215 283 203 243 248 213 333 272 212 326 249 125 239 138 142 122 122 131 132 151 127 123 134 153 154 178 183 158 159 166 447 462 133 146 378 374 403 387 358 341 334 302 296 309 297
260 227 201 263 198 276 202 220 308 330 248 316 200 252 159 139 133 123 120 131 132 144 128 132 190 232 161 138 155 143 159 457 241 189 320 399 388 374 372 377 335 337 331 290 290 305 314
224 255 264 292 287 287 260 303 269 300 338 238 306 198 193 151 137 122 117 126 145 143 163 142 155 142 145 171 147 163 376 449 121 262 380 386 366 359 368 388 328 333 317 283 298 285 310
284 266 307 264 271 234 254 318 243 361 282 348 267 250 171 117 238 122 171 124 141 142 144 147 143 174 116 159 132 146 354 385 240 315 372 384 365 360 368 328 323 329 323 275 273 281 288
296 243 277 281 266 286 283 227 297 297 259 358 271 241 253 152 150 117 163 137 137 135 131 149 135 142 156 163 286 157 357 325 114 127 344 227 424 372 383 313 315 341 270 277 283 288 283
277 289 313 413 412 432 472 629 476 297 254 380 237 252 265 124 135 169 146 183 134 145 163 148 145 153 134 163 204 153 363 353 124 122 330 351 388 384 374 316 314 305 300 269 280 269 277
391 406 398 421 445 507 583 530 507 326 369 345 256 121 200 118 223 135 153 132 136 202 147 141 140 159 124 171 146 148 357 282 115 121 204 329 345 308 302 307 319 318 279 261 265 264 262
395 411 424 435 524 546 488 456 492 293 456 248 257 235 218 233 130 174 132 127 139 148 147 186 183 147 163 147 148 150 344 325 309 168 312 327 335 288 295 307 313 301 310 266 262 271 277
408 420 430 498 556 485 462 462 525 453 326 257 231 250 249 244 148 163 159 132 129 193 138 158 138 183 159 120 145 284 341 320 303 160 310 318 318 299 287 301 316 282 280 281 280 262 266
417 435 483 490 485 456 451 474 486 399 324 247 239 226 257 242 229 170 133 223 141 178 146 132 167 166 147 137 143 280 255 254 309 298 287 301 309 325 295 294 315 287 261 288 274 291 271
439 472 472 486 470 463 454 446 409 313 264 245 261 247 245 232 194 158 136 132 135 146 134 137 142 171 174 141 146 138 147 241 312 291 304 304 308 327 282 273 300 300 280 271 272 276 290
455 475 477 484 457 459 446 406 311 253 255 251 194 257 180 228 142 129 141 130 236 128 139 162 160 201 157 158 137 200 144 283 305 323 301 191 314 308 282 246 306 288 300 306 280 271 272
500 489 482 485 467 458 401 326 308 251 265 255 261 243 225 144 137 141 139 131 150 162 140 160 162 199 162 136 123 203 165 289 307 171 310 310 306 311 310 268 235 297 311 301 335 283 274
509 511 486 465 451 299 342 299 253 247 243 262 247 231 225 198 133 182 134 229 157 137 211 156 157 155 187 122 122 134 250 226 133 127 126 295 330 346 319 318 313 316 286 310 321 330 322
473 481 469 460 416 333 284 250 251 238 257 251 238 221 142 135 139 141 142 125 125 140 154 163 119 194 191 141 117 137 112 260 132 326 189 334 331 299 323 327 318 310 315 304 296 314 320
488 453 359 308 320 265 278 246 264 253 254 238 218 220 132 152 156 140 132 222 207 191 168 164 158 193 198 158 120 127 146 130 201 118 121 223 185 250 329 326 310 321 323 325 315 298 288
482 480 302 304 274 238 255 251 246 181 254 232 226 185 149 131 136 215 132 223 218 132 155 146 139 146 121 172 150 133 133 133 225 154 119 157 152 276 265 267 254 336 329 330 324 320 319
383 310 281 241 255 261 264 246 255 244 227 183 188 189 173 221 185 165 224 147 163 165 174 149 158 149 195 137 191 170 135 139 146 214 121 172 195 227 243 230 228 255 272 245 268 333 326
236 274 240 260 260 258 249 256 238 223 228 227 179 200 209 145 142 216 136 157 159 207 193 172 209 162 138 128 225 165 128 160 114 213 122 134 230 245 236 209 245 261 253 270 229 246 255
274 266 216 249 268 248 173 223 242 219 193 179 160 201 147 133 215 226 140 139 221 180 177 160 207 197 169 150 137 148 148 185 170 116 119 192 120 145 107 240 227 262 253 250 234 247 277
243 249 255 254 247 244 225 229 215 192 193 164 203 166 135 227 184 222 225 233 197 168 166 147 139 194 193 198 163 141 139 134 112 141 161 149 228 175 173 229 217 253 240 231 249 245 191
248 240 230 252 258 178 247 205 222 207 157 136 198 125 219 187 223 195 221 145 222 182 137 151 170 145 145 193 184 128 158 161 147 129 126 151 145 217 184 185 204 241 242 227 242 206 228
281 266 248 238 249 240 243 176 184 188 225 186 207 219 166 224 142 140 142 220 220 214 205 206 207 160 132 186 143 190 189 164 200 170 122 147 130 148 156 211 143 204 229 241 209 231 220

GFSGBSN_2pvu_pres_078.txt.gz
Presure
233 231 236 228 216 223 234 238 238 237 180 237 215 229 224 136 141 111 186 149 201 148 139 117 122 136 139 146 112 154 145 141 157 174 175 133 132 153 156 155 168 167 159 144 135 122 112
243 240 231 246 251 256 257 276 253 236 175 161 182 205 240 258 139 140 147 152 172 168 124 112 121 138 122 140 144 150 133 151 162 218 139 200 143 150 140 161 179 184 142 355 377 150 343
237 271 261 239 208 242 227 244 259 240 206 179 212 231 257 127 313 202 143 148 150 181 119 119 129 138 134 144 117 127 148 168 199 175 143 167 161 166 164 170 183 440 436 417 385 335 333
170 229 276 318 213 181 259 252 235 259 219 291 264 280 270 274 141 316 184 150 234 130 122 120 130 123 127 144 151 140 162 167 171 140 126 133 141 175 237 438 439 467 485 407 127 359 325
247 244 212 262 299 203 209 275 233 253 263 275 307 267 273 288 280 254 262 150 159 125 114 127 131 143 153 120 138 157 260 130 126 137 135 167 180 404 439 440 427 255 478 461 356 321 298
173 239 256 269 281 292 288 283 285 280 234 291 240 222 323 241 294 323 233 127 132 120 126 130 135 124 150 137 152 159 179 136 170 193 182 174 365 419 207 362 413 136 450 377 353 300 297
232 245 252 268 309 277 240 296 297 301 244 216 312 249 253 225 329 280 272 125 119 123 127 142 136 131 152 152 151 133 163 180 126 165 174 419 395 126 139 383 429 420 378 344 349 296 295
242 261 264 273 217 317 295 256 309 273 282 309 332 279 278 226 297 159 153 123 129 127 137 135 130 121 186 155 153 168 132 160 169 166 404 118 387 363 353 360 362 389 334 336 337 294 293
262 255 268 269 317 202 264 299 269 277 280 295 248 270 253 333 216 163 222 129 124 123 137 135 135 148 155 144 153 166 133 162 158 367 393 193 123 378 356 355 350 343 330 335 323 293 285
264 262 277 321 327 333 350 413 413 417 408 284 260 297 307 251 297 203 129 119 135 201 135 139 151 130 148 165 175 173 142 152 236 358 112 288 362 374 355 340 384 326 331 310 316 299 286
269 269 302 327 345 411 404 393 397 399 410 404 268 220 249 362 312 129 137 123 126 132 136 207 125 146 151 166 153 124 128 161 369 348 118 125 352 360 363 356 332 325 311 315 295 282 282
277 295 334 410 414 409 415 442 444 448 458 378 416 248 165 130 128 243 133 127 171 220 119 154 172 154 158 160 171 214 133 159 356 377 115 122 118 368 366 328 324 325 312 297 281 279 278
290 347 417 418 415 433 389 506 556 542 482 287 265 214 306 266 190 125 262 126 259 258 184 139 144 154 176 187 145 190 153 151 277 353 367 155 358 362 314 327 322 326 292 279 280 281 280
352 407 415 424 461 470 478 487 472 456 319 270 292 304 182 252 137 248 125 150 254 149 142 141 147 156 163 129 133 152 170 317 327 327 338 343 266 311 314 320 316 309 285 277 280 273 269
404 413 425 459 457 469 471 464 442 441 381 509 339 271 248 254 111 135 242 135 220 176 143 145 146 159 143 141 149 153 312 197 313 315 314 316 307 296 309 319 312 279 277 272 271 273 288
407 424 455 466 455 470 471 437 432 284 350 325 271 261 247 238 177 118 213 238 141 145 149 148 136 165 141 143 171 151 140 244 168 309 325 314 261 302 305 317 303 297 279 270 263 265 281
437 453 476 458 471 476 424 428 356 339 312 279 253 252 257 252 208 243 211 160 172 195 144 143 149 177 156 185 163 133 156 282 150 161 323 319 286 240 311 319 325 290 282 274 280 284 287
471 500 473 472 487 433 431 288 385 296 276 258 273 258 250 247 240 185 200 215 214 192 150 151 162 171 158 168 183 172 135 141 144 185 152 318 275 293 295 261 318 298 282 280 273 271 281
510 465 471 489 440 452 355 358 286 283 271 273 241 253 234 243 235 219 187 143 242 148 127 137 149 165 208 148 140 142 136 128 136 288 133 133 137 285 278 292 294 247 325 294 281 280 282
481 477 488 494 370 351 352 285 276 261 260 266 260 241 227 230 232 169 141 149 144 151 140 170 150 179 165 181 159 134 150 127 114 236 230 138 146 154 331 319 306 312 310 305 295 295 289
311 472 488 491 356 308 290 280 266 255 240 260 248 238 186 170 154 136 146 227 141 147 158 169 159 178 168 107 160 159 230 137 169 168 123 234 175 355 300 152 346 351 335 336 302 296 294
469 456 463 389 282 281 289 275 254 266 255 245 244 233 227 204 139 131 141 230 171 157 141 155 176 169 192 151 173 150 140 128 259 219 248 125 206 270 139 226 127 225 359 364 351 323 324
482 335 283 272 270 273 263 236 267 255 250 245 239 238 189 203 138 215 221 174 138 195 168 165 148 137 183 150 152 164 103 118 233 207 210 169 134 148 260 138 236 249 262 256 275 288 285
399 308 267 266 262 261 255 213 252 238 252 227 188 204 158 198 136 182 202 224 133 184 145 217 174 174 210 164 151 181 179 116 134 207 134 223 151 141 104 226 242 242 251 242 240 233 250
297 275 266 261 245 236 251 248 173 251 225 239 185 200 229 227 130 132 212 226 173 192 167 205 155 192 197 176 172 175 155 149 120 142 151 127 205 141 148 164 215 240 249 239 241 257 233
211 234 267 231 247 233 264 239 254 233 172 222 210 214 219 147 133 184 203 210 141 189 153 171 204 148 198 194 173 206 141 122 145 130 172 140 138 131 199 221 230 225 233 205 228 212 238
250 241 246 241 237 256 231 255 216 236 179 183 223 186 187 221 194 132 229 143 135 165 210 159 145 163 174 196 198 152 168 179 149 142 140 136 135 193 129 181 204 212 137 228 239 223 218
248 222 233 249 257 254 170 233 167 210 194 206 218 201 188 223 223 143 231 196 168 141 146 152 142 140 134 183 200 166 148 132 96 89 173 186 150 152 115 153 153 219 191 226 237 235 227
248 261 236 255 153 268 238 243 229 208 230 180 227 207 214 131 222 133 225 221 143 145 207 202 196 193 196 185 169 179 207 202 182 173 156 214 140 166 155 153 142 142 219 226 172 235 233

GFSGBSN_2pvu_pres_081.txt.gz
Presure
249 253 250 248 197 183 187 250 260 256 246 260 269 173 241 136 284 275 139 304 141 294 151 141 114 243 126 126 126 127 128 123 136 137 214 143 162 168 171 184 141 128 152 105 152 158 137
230 240 248 247 244 251 250 186 211 247 258 264 270 268 253 261 216 196 302 196 294 135 148 151 128 153 148 126 131 138 140 162 191 135 148 165 200 167 142 236 167 146 134 144 153 138 152
191 212 231 233 233 243 258 259 257 248 266 284 277 289 288 274 234 282 148 232 277 281 148 158 159 270 136 122 119 150 150 161 145 149 159 168 178 190 147 153 135 135 128 137 128 144 146
211 149 240 223 232 243 260 256 267 262 260 282 297 306 217 292 280 281 282 316 191 319 251 166 152 138 126 122 135 192 150 123 160 160 172 153 174 135 158 150 131 138 145 144 143 185 181
223 232 211 253 243 242 248 252 259 270 276 279 278 289 305 287 285 297 267 312 310 280 151 253 141 133 130 138 152 117 132 145 158 170 150 185 163 142 167 174 181 183 181 452 439 449 427
247 259 256 237 266 269 272 267 266 275 277 278 292 321 277 304 294 299 314 263 267 268 247 275 139 131 140 130 123 134 143 155 162 213 215 174 132 161 168 242 403 403 409 439 481 439 207
211 259 251 257 252 261 268 279 285 283 270 284 317 325 322 300 309 269 324 226 367 245 191 142 133 133 141 161 117 204 157 161 150 193 149 143 165 180 403 397 413 369 434 453 487 437 363
262 269 261 268 270 275 281 288 293 305 315 327 333 314 282 294 307 326 327 280 285 288 270 132 124 146 144 121 269 157 156 157 163 140 139 139 205 379 313 125 247 414 383 392 446 362 323
272 283 288 290 290 301 307 328 342 371 381 389 376 201 353 333 283 322 287 250 226 218 133 134 136 146 149 157 142 153 169 144 145 134 155 385 357 368 349 280 371 361 366 380 335 338 331
283 293 299 302 311 375 402 399 413 414 416 420 402 395 403 257 332 276 308 342 245 133 134 139 145 138 145 131 150 173 153 160 129 165 166 372 365 364 117 340 373 355 350 345 322 311 314
298 298 314 376 403 396 401 407 414 422 423 423 423 396 392 267 256 284 341 251 138 134 246 142 148 174 220 149 160 170 149 144 135 158 363 308 352 346 121 350 351 344 338 311 316 307 319
308 350 412 416 404 416 424 452 457 464 492 511 448 436 392 251 257 132 294 274 141 137 136 209 132 141 144 152 164 187 115 159 160 317 383 355 359 347 357 358 330 331 333 303 291 291 286
398 430 425 426 437 441 438 442 451 466 460 490 503 492 333 237 348 291 120 186 134 135 219 117 256 252 147 157 175 157 326 229 166 319 355 351 361 337 372 328 317 337 340 291 287 282 282
391 429 450 454 455 448 439 453 444 416 422 435 457 437 219 352 282 272 140 275 172 139 136 133 146 152 157 170 142 149 136 173 251 311 380 389 386 362 325 326 326 335 330 292 282 284 278
464 470 478 470 441 440 456 408 426 415 421 427 463 393 284 259 285 270 133 150 139 232 149 182 144 148 153 191 122 190 157 179 251 330 299 319 320 327 308 319 324 308 320 324 277 275 280
468 485 456 442 453 465 428 425 407 402 424 310 296 281 248 280 253 264 116 142 216 136 179 269 151 146 174 134 170 152 158 246 239 312 202 261 320 319 321 188 302 310 290 278 291 288 276
468 467 457 460 463 439 440 413 350 301 279 278 286 235 274 250 226 210 139 229 256 260 147 141 153 153 191 174 136 180 142 133 166 135 172 153 268 268 274 339 311 308 282 286 292 282 276
435 470 461 469 440 434 303 293 304 280 277 272 275 267 176 253 230 146 257 131 164 147 193 157 165 166 167 193 153 138 157 133 315 323 291 132 135 149 314 309 310 299 276 298 294 274 291
428 435 476 468 421 294 293 283 280 270 269 265 275 264 255 224 201 196 241 132 142 244 146 139 151 161 160 178 224 129 138 138 129 132 133 282 124 140 301 333 316 292 304 292 300 296 287
438 456 369 323 294 286 280 274 266 260 245 268 260 252 240 215 219 240 202 213 133 161 155 125 144 167 266 175 146 131 148 131 164 123 139 308 128 177 148 141 262 312 305 306 301 300 300
449 242 253 257 279 278 270 266 252 262 263 251 254 208 206 220 239 246 233 217 142 148 134 158 173 163 165 175 159 140 145 162 251 265 155 259 169 166 146 223 137 321 314 317 290 289 300
366 278 256 261 261 255 262 251 259 237 247 247 237 232 229 200 234 231 211 142 158 152 152 142 156 177 174 184 170 127 187 109 128 157 126 116 244 210 228 138 131 253 127 236 244 266 268
286 264 268 252 265 256 260 219 252 234 252 236 173 227 175 238 238 213 185 142 140 171 141 151 162 142 160 168 173 211 137 218 146 136 103 150 198 138 124 150 213 228 219 225 134 232 237
227 274 272 267 249 237 267 239 216 249 241 228 235 213 190 232 231 183 220 133 139 172 145 196 153 179 172 160 180 149 160 154 231 114 118 140 206 135 157 167 217 214 195 216 136 249 250
243 213 255 260 248 262 216 248 242 216 197 223 217 198 236 232 142 142 129 155 146 216 133 217 145 207 210 198 126 239 159 204 164 136 129 148 124 124 231 109 191 222 224 142 238 221 209
246 239 257 241 261 260 235 241 235 221 222 192 227 230 233 215 226 140 130 148 125 177 148 206 146 142 153 144 194 198 181 174 186 165 139 215 168 216 178 191 190 120 216 145 142 122 218
209 261 248 223 243 254 214 241 216 235 215 189 212 191 193 165 217 169 139 167 141 198 141 182 205 160 137 136 161 171 177 164 164 183 181 162 150 158 214 211 173 156 205 166 208 232 175
267 205 236 263 231 238 242 231 236 170 190 195 186 217 220 223 226 143 150 214 167 181 206 140 194 150 144 145 150 186 192 184 178 126 174 173 166 92 175 145 139 155 175 161 218 121 174
260 184 198 203 227 234 249 243 232 168 197 198 218 191 213 223 222 217 163 220 174 157 151 138 206 202 200 172 190 162 144 188 153 184 191 162 163 187 161 154 176 211 136 143 136 143 208

GFSGBSN_2pvu_pres_084.txt.gz
Presure
203 226 200 224 215 216 219 201 239 237 239 198 245 245 254 267 272 253 267 261 297 296 260 197 144 276 150 266 115 117 118 135 136 133 145 133 107 136 127 151 149 155 131 161 207 166 173
197 212 215 232 244 231 196 218 240 236 250 244 246 238 244 254 258 266 250 231 305 295 298 231 181 208 167 209 118 121 135 140 126 137 147 96 206 187 182 142 160 170 172 190 243 186 181
168 161 211 242 267 253 228 254 254 251 243 250 243 247 248 255 262 266 270 294 281 308 262 309 286 218 235 156 121 135 138 137 123 138 148 148 156 147 132 159 172 161 266 185 279 197 209
187 174 228 241 277 272 261 254 262 253 255 253 263 260 256 262 272 271 281 286 291 279 221 298 236 145 317 307 127 150 114 236 151 134 280 149 127 149 220 173 178 171 152 163 160 165 136
225 234 226 271 277 292 281 264 264 265 270 264 261 273 264 271 265 277 279 281 228 318 314 305 244 133 267 151 151 137 125 130 153 147 140 131 195 172 239 211 187 142 145 155 182 143 139
227 247 258 283 300 294 297 294 284 266 279 277 271 271 276 280 278 277 291 289 294 323 311 292 315 325 298 148 157 249 139 141 160 132 135 157 159 174 179 156 161 150 142 167 153 147 145
254 267 299 307 322 329 318 309 320 302 298 294 291 298 292 293 284 285 291 292 301 329 317 316 289 328 269 152 153 127 133 141 139 148 136 159 180 229 155 151 184 181 202 247 239 424 440
294 319 326 336 327 397 390 391 399 394 388 355 330 304 316 311 305 302 299 307 328 320 316 303 243 186 137 149 130 137 123 149 180 154 258 179 147 140 141 155 178 385 407 434 433 433 442
340 335 389 388 378 394 395 390 402 417 419 417 411 402 397 388 369 334 331 330 341 318 322 337 217 256 146 143 146 140 136 152 191 161 157 148 153 144 195 370 371 365 375 413 411 407 414
339 388 398 438 437 431 428 427 432 446 443 440 431 415 406 403 405 387 377 288 353 316 337 263 281 152 155 135 150 142 114 156 200 170 162 158 252 348 358 342 212 336 123 394 402 384 359
396 435 443 429 448 446 437 428 408 403 425 444 457 453 416 405 207 405 384 378 342 285 237 106 132 125 134 154 132 143 159 188 177 149 165 159 350 351 354 354 120 123 346 334 335 335 334
393 407 434 454 460 443 427 400 377 425 441 445 460 461 439 414 412 360 377 310 173 288 258 266 148 143 152 138 144 162 157 192 136 136 222 347 353 340 346 345 346 339 337 319 324 335 331
410 403 434 449 430 415 415 428 419 408 407 407 421 479 438 414 387 349 357 295 222 268 125 147 128 150 151 159 154 192 172 153 160 309 374 353 366 359 338 356 329 323 330 317 332 325 306
394 409 463 444 441 435 431 396 157 400 395 395 415 467 433 284 343 320 298 283 281 286 148 130 123 192 167 149 174 319 167 178 176 396 188 355 358 345 329 329 333 318 320 330 302 295 279
397 415 461 448 439 438 408 409 405 404 403 416 337 306 290 323 308 277 228 149 244 211 147 130 206 152 154 158 337 141 151 168 238 330 158 365 302 322 327 327 318 297 314 298 283 280 292
418 435 475 457 467 412 413 411 373 368 386 243 317 315 281 289 255 264 255 259 184 133 142 138 152 137 152 189 157 136 138 166 147 302 244 152 318 321 315 332 301 298 282 272 278 276 292
474 487 479 487 412 326 359 335 331 327 265 265 291 256 207 263 254 249 230 165 319 209 164 167 161 144 172 176 279 137 154 144 149 153 148 150 152 320 310 285 267 283 290 288 291 278 277
299 310 301 259 297 294 286 279 280 274 272 201 262 252 244 242 276 337 132 114 307 151 177 141 155 161 181 314 139 173 143 178 155 139 138 152 149 160 157 213 328 302 270 250 262 285 289
261 277 271 272 267 270 265 262 256 251 250 245 251 274 254 279 201 240 232 119 115 207 151 150 135 197 338 154 136 154 132 140 144 123 163 173 156 154 288 154 304 329 292 281 267 283 277
261 252 255 267 254 254 251 247 243 243 239 246 268 306 279 204 267 246 177 283 181 153 142 145 129 172 219 156 132 156 135 132 140 130 281 132 253 225 220 149 316 289 281 239 290 296 293
215 236 247 252 251 251 235 239 233 239 232 226 254 222 237 267 225 204 178 211 196 147 137 142 176 163 231 166 169 128 246 129 121 179 128 236 136 133 119 180 196 253 147 263 263 261 270
225 267 242 234 228 245 242 237 241 255 221 198 223 203 245 254 253 140 206 254 136 150 140 187 176 163 194 175 159 184 171 134 119 126 111 144 125 144 157 178 135 246 152 242 203 229 243
235 209 220 249 230 236 243 234 232 216 203 184 175 239 248 216 233 195 196 198 130 152 126 154 189 183 168 181 196 181 173 175 117 153 109 114 117 129 218 169 111 230 135 244 226 165 238
223 245 241 212 243 236 251 231 235 224 214 171 234 223 221 210 251 211 136 147 131 146 157 215 158 148 187 206 173 177 199 211 209 148 123 122 107 138 239 166 162 167 224 190 151 204 184
256 208 226 249 207 240 237 245 226 210 166 194 231 225 140 224 229 156 140 137 132 146 182 143 185 166 151 151 151 181 192 167 190 157 183 168 156 129 112 220 164 108 149 141 149 189 217
255 251 241 214 209 240 165 235 231 182 218 226 226 229 225 165 216 164 187 143 150 134 161 148 154 152 199 190 132 119 158 142 161 171 187 145 119 171 166 156 162 140 117 168 233 149 139
249 252 255 193 238 200 234 232 220 193 207 229 167 228 229 220 197 184 209 138 139 150 169 188 183 190 197 150 158 160 189 185 162 152 134 183 169 180 181 137 150 181 169 146 172 156 145
230 247 227 237 223 232 201 224 197 185 179 197 209 214 229 216 218 160 193 205 135 136 174 201 147 176 158 203 194 186 189 154 157 160 173 164 177 175 173 170 167 147 158 135 173 135 148
212 237 274 138 244 232 222 184 172 208 166 190 202 194 222 227 220 220 216 215 155 202 150 194 134 178 139 157 178 195 192 151 189 187 186 141 167 119 162 193 185 159 174 168 153 191 144

GFSGBSN_2pvu_pres_087.txt.gz
Presure
126 177 192 175 216 184 226 237 191 209 175 207 220 249 221 199 202 248 253 230 249 266 267 265 234 166 286 284 141 143 133 127 117 119 115 124 139 140 199 141 155 142 124 126 142 102 95
210 219 220 222 233 239 214 194 243 214 257 250 255 275 271 195 219 262 250 257 259 239 258 264 268 283 285 295 315 315 142 125 122 125 126 131 145 137 160 153 152 131 120 118 133 142 155
223 226 229 234 235 239 245 247 246 258 266 289 287 290 276 263 251 250 256 254 251 257 264 264 271 278 298 315 319 301 168 119 120 127 126 143 162 145 115 101 114 111 198 149 142 150 148
233 234 237 242 246 256 262 285 297 309 307 296 296 288 283 273 265 259 256 260 255 256 262 259 278 283 305 299 310 321 191 149 130 126 130 186 129 102 143 130 110 162 99 95 149 152 163
237 249 263 285 318 344 344 339 328 324 312 305 298 295 292 287 278 264 259 260 259 264 266 267 276 296 205 234 269 269 157 148 164 123 238 116 144 133 148 153 156 132 133 142 161 208 165
268 308 356 364 371 277 382 391 390 396 363 329 309 299 307 294 292 280 270 269 267 279 276 289 301 305 289 175 274 143 125 166 149 182 162 155 149 143 153 132 132 158 164 162 174 200 182
366 397 434 395 374 436 422 429 438 410 389 388 377 332 315 320 300 299 270 275 274 283 291 282 303 298 300 329 122 138 321 185 223 130 137 132 149 154 175 148 161 168 278 445 284 189 189
386 419 392 391 387 409 418 432 415 421 421 402 372 372 380 333 321 306 295 286 279 278 281 295 216 301 313 147 176 321 285 141 131 141 146 136 167 156 340 158 178 359 227 150 145 136 151
389 370 378 378 399 443 453 429 395 412 424 435 448 432 384 366 400 321 307 308 297 291 296 302 303 308 339 217 264 118 124 131 147 143 119 214 152 156 271 225 153 155 146 157 171 175 150
358 360 370 376 408 440 429 423 418 400 391 407 416 429 444 396 347 393 364 324 319 320 301 310 309 323 317 119 130 124 130 153 139 148 132 162 293 221 162 152 151 164 328 353 346 402 411
387 378 374 405 448 427 404 406 389 384 393 416 434 452 455 409 392 397 377 373 360 287 306 307 329 330 175 272 161 215 139 152 120 144 161 209 159 150 150 168 344 332 345 357 196 371 128
437 423 423 442 427 417 419 420 411 402 396 391 398 410 466 416 389 395 399 380 380 368 358 349 128 262 267 233 138 140 148 144 154 170 181 158 216 209 271 217 335 323 312 193 288 332 329
455 495 481 465 445 408 389 354 398 386 387 393 391 416 444 402 404 405 395 232 293 364 203 298 193 141 161 135 147 215 121 300 185 168 142 349 349 348 333 340 333 315 325 322 316 330 343
420 433 427 421 418 404 405 404 395 392 393 405 414 459 420 245 119 382 298 366 349 202 248 258 149 143 138 137 145 148 224 181 152 311 178 154 339 352 330 344 323 326 321 339 303 294 296
286 278 291 426 279 305 283 271 279 427 447 462 439 411 386 376 191 139 324 318 199 151 243 242 147 124 119 159 151 196 173 163 170 213 326 279 304 330 322 341 330 317 310 295 296 293 286
224 267 267 266 274 278 281 423 417 548 426 356 358 368 348 338 324 300 272 250 194 138 149 131 247 144 162 155 188 167 265 156 165 191 139 165 152 171 336 317 317 302 298 276 274 291 284
256 262 263 261 262 258 260 254 260 265 266 267 256 254 261 260 205 238 200 168 199 150 142 130 136 145 127 184 173 158 144 198 126 209 149 183 251 154 170 320 226 282 283 290 300 268 291
251 220 230 253 255 255 241 244 247 278 278 243 279 240 252 246 286 216 287 152 198 134 154 151 154 139 287 292 169 163 316 284 131 143 147 212 159 148 266 276 277 305 270 289 302 286 277
238 198 239 230 245 231 331 366 358 280 258 296 328 324 208 355 349 333 176 184 195 140 144 135 153 133 298 166 232 176 137 136 120 252 130 124 324 144 159 266 214 245 275 287 280 270 275
222 225 227 227 226 214 231 223 248 270 224 372 355 220 254 295 385 276 126 195 140 152 148 138 133 163 165 170 182 141 240 136 125 136 123 117 132 111 136 278 150 266 213 248 294 296 286
243 229 212 220 217 234 211 216 205 235 248 248 277 322 252 212 339 148 131 128 135 153 151 133 188 169 167 157 146 160 137 183 127 122 119 121 111 102 259 115 113 127 146 255 220 281 197
270 212 176 220 226 201 162 196 188 248 239 254 236 257 250 258 136 227 188 175 140 131 133 176 162 164 175 240 195 140 250 174 159 131 125 119 120 134 242 136 97 137 134 269 252 244 247
264 252 216 199 220 211 180 168 168 220 197 249 217 251 226 246 204 248 156 142 138 131 130 169 171 176 174 188 183 179 217 222 197 180 164 182 175 128 115 175 134 158 158 170 233 166 156
224 297 227 217 180 224 217 164 182 182 211 203 208 215 198 202 197 160 142 134 174 142 173 200 151 186 147 145 134 135 153 170 192 200 187 145 236 161 182 105 127 145 111 128 223 148 155
218 207 296 230 212 210 219 205 190 212 210 205 216 225 223 214 187 139 155 132 137 145 214 133 186 170 141 167 147 144 131 202 158 176 138 144 167 210 181 199 197 101 117 167 159 149 136
194 216 248 310 238 203 162 214 217 212 215 195 214 212 201 208 203 186 138 129 131 139 188 141 211 158 163 156 170 153 193 153 193 192 141 143 157 173 179 163 168 120 145 143 129 209 155
184 181 222 268 308 218 211 213 192 178 194 190 204 209 207 215 208 211 212 145 131 127 155 201 172 145 197 185 204 183 196 173 193 163 96 174 181 176 190 193 182 169 171 120 156 179 172
185 183 216 242 268 276 236 223 225 206 204 207 206 211 210 203 168 174 205 181 157 179 174 194 177 148 148 158 163 192 197 187 194 190 188 163 194 186 173 196 187 143 111 173 131 187 143
166 196 185 211 241 344 269 235 217 183 177 184 182 188 204 221 209 211 206 202 134 210 192 189 194 181 142 152 148 144 189 194 198 192 189 134 153 186 192 134 186 169 182 153 155 209 183

GFSGBSN_2pvu_pres_090.txt.gz
Presure
229 232 235 240 250 251 249 241 235 245 236 215 220 237 224 213 229 251 223 237 211 228 221 234 247 231 246 271 271 280 208 247 149 131 150 139 145 134 139 151 122 132 129 121 159 140 171
252 267 268 262 258 257 255 254 259 254 239 249 247 257 252 251 255 223 244 261 252 253 223 276 230 219 257 264 265 283 288 150 144 265 147 135 134 125 138 129 142 129 146 120 140 172 135
266 232 248 254 244 244 289 289 280 287 288 278 274 279 280 279 266 266 276 281 277 248 224 274 264 228 255 274 253 146 145 274 217 152 152 140 122 141 120 132 135 141 127 132 155 240 137
215 239 335 398 392 385 349 385 386 294 365 352 343 319 324 318 298 286 286 287 296 257 280 271 268 229 276 269 268 278 250 148 227 133 135 133 129 127 130 133 139 136 125 124 147 104 189
452 413 422 402 393 372 348 380 391 391 376 381 391 356 331 326 320 306 298 295 289 283 279 272 270 263 266 273 277 281 278 285 320 276 235 132 138 132 126 188 324 160 116 143 125 245 163
429 375 381 378 379 373 370 378 387 407 447 453 436 390 373 335 318 317 301 281 283 279 278 271 274 265 261 268 266 278 154 292 305 341 141 130 139 132 154 153 153 127 140 142 145 118 156
306 405 389 379 382 392 395 399 402 466 435 428 426 436 429 373 346 306 304 280 286 275 276 277 271 280 271 269 280 289 269 297 155 158 128 329 141 119 118 125 142 140 139 157 159 152 138
303 301 455 421 413 419 409 416 447 405 390 388 415 408 405 427 375 340 300 293 290 279 274 275 282 279 285 283 282 304 280 297 236 152 138 183 213 167 128 139 148 147 151 159 142 218 154
263 327 308 504 477 457 439 424 422 403 386 402 407 420 402 400 380 365 333 299 294 291 284 279 287 283 154 283 290 294 286 306 127 168 107 150 125 142 152 152 155 265 155 360 156 160 156
245 273 337 296 419 432 438 428 411 411 414 406 415 437 434 396 376 386 354 331 302 303 301 295 293 294 290 299 301 305 124 218 160 256 137 133 143 149 136 160 317 156 158 160 161 190 190
232 244 269 296 350 406 399 390 391 391 383 385 406 415 438 414 394 350 376 369 333 309 304 287 293 300 289 300 206 208 326 149 123 125 132 141 150 154 151 166 336 195 149 181 167 140 164
238 226 248 273 278 366 431 411 400 404 395 390 394 410 471 408 395 373 353 363 390 334 313 303 190 277 297 303 118 118 118 182 142 150 156 153 194 221 169 180 168 156 160 243 214 325 332
221 230 295 235 260 278 345 458 446 428 417 410 405 450 461 404 394 370 380 361 368 373 348 247 312 182 213 276 151 187 133 137 145 141 146 160 285 163 257 206 339 329 300 304 312 309 303
215 228 225 364 280 256 267 279 370 489 481 451 477 441 407 414 331 361 362 388 380 350 361 355 246 158 244 271 131 137 148 157 145 332 364 152 343 140 158 335 316 303 313 291 292 301 283
225 219 211 272 379 337 263 254 268 295 340 361 369 409 314 174 355 148 353 340 142 313 175 226 242 190 141 141 129 127 144 215 170 192 327 308 308 159 320 142 304 299 291 294 290 295 277
222 217 224 206 190 261 384 322 299 257 269 281 297 209 322 319 154 316 103 146 284 250 224 148 130 131 155 153 160 252 333 168 224 297 335 156 137 146 175 295 261 295 285 280 295 273 290
196 203 206 223 214 193 348 330 376 298 307 279 260 253 207 257 248 151 242 236 243 124 130 129 147 145 156 172 251 242 186 241 142 181 129 129 187 151 299 171 275 299 286 276 290 302 287
230 195 193 194 202 254 249 203 403 392 374 204 159 228 293 286 190 183 257 135 149 143 119 137 144 148 137 138 181 157 183 148 233 146 136 141 145 114 155 284 215 283 284 293 270 128 296
251 244 193 231 230 205 219 241 192 219 435 402 377 283 344 340 304 352 146 192 175 142 131 150 169 158 279 322 239 308 147 132 130 129 130 116 118 110 242 131 123 234 278 279 281 285 281
259 250 159 212 192 208 209 201 228 200 152 306 431 424 379 413 273 146 130 131 143 134 142 181 139 128 255 256 151 156 147 142 130 156 241 189 131 118 121 113 269 285 216 244 292 290 286
235 235 168 243 162 164 203 214 209 197 227 229 182 215 182 178 181 139 180 140 140 154 134 130 232 166 162 231 156 176 151 134 211 131 126 125 119 117 142 142 113 139 176 150 148 268 141
207 211 279 145 162 222 222 199 196 193 230 191 196 230 196 198 132 165 126 141 135 140 162 172 198 181 193 208 159 258 147 165 164 145 127 179 124 122 120 187 174 110 139 111 248 126 238
223 194 235 149 254 232 193 211 197 195 192 191 187 188 226 146 236 202 140 135 138 128 135 184 163 169 185 243 204 182 164 217 217 173 181 225 194 140 180 142 118 118 153 138 201 165 148
178 192 208 196 277 211 222 215 209 206 202 209 208 196 166 169 167 132 144 157 139 157 153 160 140 148 152 227 142 204 150 171 214 158 203 150 173 173 204 209 210 147 176 118 139 193 155
168 187 210 203 214 274 159 243 217 210 208 205 191 190 189 187 196 131 137 136 144 164 140 154 148 176 206 157 185 178 156 190 183 190 201 175 179 185 187 180 206 201 191 163 172 185 136
179 169 195 194 211 222 160 187 241 227 193 213 204 204 211 214 161 204 126 134 136 173 136 162 142 193 198 188 174 143 200 193 187 160 136 183 198 178 149 182 171 194 190 174 121 159 143
173 184 165 203 201 218 213 288 256 179 231 213 200 209 205 208 200 133 131 129 126 127 142 201 201 166 206 146 148 190 201 197 207 156 198 192 142 143 178 159 155 159 168 163 200 158 149
163 180 197 164 191 201 213 226 282 266 173 237 224 209 213 209 203 209 202 131 188 139 194 186 180 208 168 181 151 187 196 168 200 198 194 193 195 188 187 190 178 175 171 173 180 150 150
174 178 193 173 161 193 189 167 234 303 268 168 239 229 157 209 216 221 223 211 204 198 202 133 134 146 189 145 155 185 195 202 193 192 193 193 193 196 189 208 119 191 185 187 187 193 161

GFSGBSN_2pvu_pres_093.txt.gz
Presure
229 203 245 277 277 448 415 388 345 257 244 255 273 270 264 245 245 239 245 164 221 212 248 211 214 241 233 249 271 244 241 239 256 188 184 187 184 304 131 153 192 139 140 127 127 122 127
223 235 251 303 284 421 404 396 387 383 351 298 274 258 280 270 249 241 243 208 220 246 230 216 242 231 210 232 235 210 241 283 267 239 236 243 278 131 257 157 142 134 142 139 132 141 125
252 251 257 291 344 402 393 385 377 375 373 387 364 300 275 266 277 271 264 252 245 232 256 217 224 251 233 245 221 216 215 224 233 266 280 291 270 144 136 157 135 132 136 145 144 120 141
227 271 258 244 322 399 389 390 394 386 373 373 375 376 377 285 295 264 276 271 249 251 245 249 252 241 213 262 223 266 289 270 249 237 296 145 239 152 140 166 143 159 141 135 129 151 126
211 305 254 270 301 447 422 404 401 409 412 408 387 371 397 307 339 325 278 282 282 275 266 267 261 247 279 265 294 285 239 275 280 163 285 286 195 153 146 150 152 143 134 143 135 135 133
232 301 251 280 278 472 475 455 442 443 433 492 439 457 467 459 392 339 349 336 320 312 304 297 300 293 288 295 272 285 280 135 271 176 175 143 243 150 151 159 239 126 130 128 126 133 303
242 260 253 263 294 340 454 425 415 425 404 405 409 416 431 437 430 393 364 341 324 303 299 300 294 300 296 291 288 280 282 164 279 174 149 142 136 144 163 159 117 119 135 139 131 151 312
263 260 243 331 279 291 413 403 417 410 402 397 395 416 410 419 419 374 379 350 312 296 302 302 299 293 285 287 281 277 277 275 281 292 183 310 325 148 164 157 169 118 375 154 249 135 138
236 256 263 331 308 289 326 396 386 402 390 401 417 406 409 403 399 369 371 344 316 307 297 297 296 285 285 283 276 278 284 284 289 295 309 324 220 204 157 147 154 243 246 152 140 155 147
222 205 253 361 344 272 290 422 397 399 387 396 400 444 404 398 390 369 356 338 312 297 298 297 290 282 283 277 278 283 288 298 287 310 318 148 143 163 160 174 145 192 140 141 138 147 149
204 245 251 317 382 336 305 292 426 406 396 389 404 439 397 387 385 371 348 345 317 307 300 288 285 289 279 286 288 182 124 184 310 276 261 174 224 300 147 141 150 314 153 150 159 165 166
213 211 196 262 386 376 324 285 310 444 419 401 420 438 392 379 379 365 362 348 340 314 290 293 295 290 295 303 306 295 203 133 176 223 173 344 145 133 147 155 157 158 160 165 169 171 188
236 227 232 228 288 392 357 318 275 429 488 461 470 407 374 369 366 366 369 369 345 326 315 294 276 305 308 307 300 274 195 273 142 137 145 154 230 163 154 157 223 264 310 234 174 172 170
188 182 245 238 245 342 390 347 307 272 368 403 388 373 349 368 189 368 215 371 388 359 310 129 207 306 156 236 118 176 285 164 184 142 147 153 159 292 306 152 226 309 311 307 293 293 308
217 225 184 197 248 195 406 386 351 111 252 282 299 357 378 395 391 387 385 387 346 391 314 325 294 259 318 135 273 146 141 140 154 153 315 321 199 149 162 141 300 297 286 287 300 309 310
265 217 215 205 181 185 218 417 300 325 324 261 274 167 272 309 310 315 336 315 313 112 241 200 143 175 137 131 142 146 154 153 201 161 320 323 161 145 143 208 243 295 300 285 295 306 298
169 269 219 175 221 211 228 225 327 392 365 347 273 151 305 293 285 211 198 187 156 142 138 138 135 145 166 155 336 277 178 213 151 206 306 162 129 133 139 135 270 283 288 294 283 294 279
220 234 269 157 220 229 184 223 141 167 421 396 191 125 402 328 187 143 136 129 130 119 135 150 147 137 139 181 179 162 158 285 140 131 302 167 121 147 130 123 180 123 278 120 290 290 274
206 219 145 268 226 202 209 216 190 184 142 180 172 260 169 129 132 130 136 152 128 133 147 158 190 142 187 167 156 169 165 243 262 160 259 140 119 123 254 117 148 121 284 284 289 294 281
201 164 185 174 210 235 205 195 204 225 188 176 173 104 150 168 224 258 130 132 135 156 193 166 132 172 248 179 218 318 146 174 137 211 133 124 221 123 115 114 117 158 110 171 269 205 210
213 220 150 177 283 250 223 217 222 145 205 204 189 184 216 171 147 148 144 141 139 131 154 158 337 334 174 162 204 242 146 232 157 130 151 133 141 121 125 206 148 156 147 160 123 157 137
208 207 172 219 217 289 262 222 225 195 185 140 188 199 156 171 141 135 149 249 155 135 180 187 208 255 250 171 258 254 241 160 190 267 242 222 134 154 190 147 138 150 139 168 120 165 164
164 203 206 170 199 218 286 275 213 223 201 194 191 191 174 132 139 141 133 156 165 163 172 151 243 173 209 179 163 184 221 184 171 199 199 216 238 236 196 186 168 172 193 124 112 171 186
187 173 186 211 195 202 225 233 285 249 214 217 218 121 210 192 137 133 135 166 150 175 135 141 165 144 136 163 206 144 196 167 165 182 172 203 205 195 184 220 197 200 190 200 147 189 219
156 183 171 181 202 189 206 199 221 290 270 232 216 220 185 199 124 144 144 140 188 177 197 138 152 208 155 192 145 190 205 202 196 185 182 186 168 183 190 176 189 155 195 154 172 178 173
173 189 174 193 191 185 203 197 211 212 263 270 254 218 210 216 206 120 124 133 147 130 133 161 159 144 140 195 175 198 199 196 210 200 195 133 202 192 198 162 156 204 180 176 157 173 182
172 167 193 187 182 177 191 201 188 241 215 287 282 244 191 167 218 222 198 178 145 119 145 206 154 201 134 138 142 175 182 199 195 194 200 196 189 185 189 196 198 194 135 183 174 192 180
169 171 158 183 163 186 173 179 202 191 216 217 298 283 208 176 189 208 180 163 222 211 206 197 200 207 201 166 202 202 204 200 198 196 204 175 171 192 207 197 196 180 179 184 183 180 176
182 177 166 184 174 188 181 164 184 184 196 210 199 272 290 273 170 165 212 205 199 216 225 228 223 209 163 195 134 185 203 203 200 197 200 200 199 137 200 204 203 201 196 187 207 205 203

GFSGBSN_2pvu_pres_099.txt.gz
Presure
221 183 186 223 369 301 265 371 492 329 287 283 298 269 274 291 276 280 261 252 260 220 250 225 232 215 217 224 238 245 236 221 231 225 239 242 238 236 191 207 117 144 140 189 126 123 117
179 260 280 394 339 266 465 433 424 408 438 426 401 353 300 290 237 274 261 266 283 290 241 246 219 212 218 220 226 225 243 229 224 242 219 218 227 244 273 267 246 170 148 161 138 198 126
168 258 283 371 322 324 465 413 410 413 429 449 401 391 379 362 342 294 287 290 294 317 284 252 240 211 234 216 218 229 232 239 236 228 223 247 244 240 238 241 243 248 139 139 195 283 155
246 255 283 363 316 366 423 410 402 402 411 407 435 413 386 385 359 371 353 349 315 284 285 259 242 242 222 237 235 219 206 227 250 241 245 233 232 253 271 166 270 264 169 211 137 147 255
249 251 272 364 322 368 406 389 404 395 409 407 404 433 387 383 359 373 341 283 272 273 274 268 250 248 244 242 241 239 235 214 238 239 244 249 240 251 267 259 234 261 266 198 155 160 156
241 246 264 374 337 351 406 402 371 384 398 400 406 428 400 394 354 356 337 326 299 277 277 271 259 251 246 242 250 246 243 240 243 246 228 255 242 246 236 242 250 178 273 236 243 158 147
232 253 259 282 356 286 423 403 376 392 395 401 135 407 403 422 357 350 346 330 301 303 283 270 272 253 260 259 253 254 250 252 243 246 197 252 228 221 237 275 236 239 265 217 311 322 156
219 239 243 265 372 319 475 397 401 408 390 421 423 413 422 429 383 354 368 328 302 301 292 264 270 277 255 254 255 263 260 253 255 252 253 256 258 259 268 268 290 317 180 263 313 152 164
195 192 246 232 274 360 315 470 427 422 436 430 420 433 419 407 393 354 359 338 305 292 306 280 274 272 272 276 278 260 266 266 262 260 257 258 263 269 282 308 314 308 307 327 319 359 258
190 211 224 248 191 324 342 348 440 447 410 439 413 410 406 388 366 333 359 371 314 292 290 306 275 254 278 262 256 272 270 268 268 266 270 277 161 323 320 305 302 306 301 169 202 332 310
182 202 203 212 104 265 400 352 332 295 383 388 389 395 373 327 334 322 336 345 351 336 299 292 303 317 322 295 284 284 286 272 265 276 281 320 312 299 296 301 143 171 330 158 269 131 162
244 176 211 212 224 252 269 363 313 381 383 363 356 379 349 324 324 328 331 325 336 349 340 306 306 300 315 331 331 324 316 322 326 317 311 309 246 309 308 256 178 209 262 145 210 314 144
223 206 173 195 200 211 249 267 363 352 363 368 358 361 357 339 336 330 327 330 344 338 348 361 341 340 322 319 320 319 315 307 301 299 311 318 309 278 269 163 141 326 163 312 151 300 279
203 221 205 171 175 208 221 195 260 367 352 305 371 354 339 340 327 328 320 334 335 327 307 316 304 144 163 306 301 300 298 299 288 281 351 435 341 321 310 320 304 148 142 150 152 155 156
214 210 199 170 194 175 199 214 109 164 371 361 406 395 366 334 340 326 319 321 316 322 304 311 312 306 305 269 133 157 315 141 142 142 166 294 133 303 307 313 277 142 139 142 168 173 290
188 198 215 232 181 186 173 185 183 164 208 145 177 188 335 378 350 348 339 347 233 190 205 296 308 319 232 229 413 393 268 172 250 138 143 148 206 215 284 242 133 151 151 166 213 287 300
187 198 188 227 229 161 176 170 163 193 186 143 171 137 127 139 141 135 143 145 183 141 133 124 135 147 143 136 128 134 146 148 279 311 310 300 298 291 145 138 133 146 134 286 197 284 287
187 196 186 196 198 214 237 166 170 172 142 119 131 132 134 129 125 151 147 143 140 142 138 179 174 255 323 162 150 294 303 264 149 142 305 148 150 140 135 122 129 268 140 134 134 269 280
168 196 176 201 186 225 163 231 144 156 131 130 129 145 141 127 153 146 170 238 154 128 139 365 298 339 159 157 241 316 201 153 143 221 282 133 136 166 168 146 215 127 245 152 141 249 143
187 183 205 171 203 182 186 215 183 142 125 132 189 138 130 145 135 160 150 144 194 186 162 164 165 153 244 157 159 153 155 142 140 139 132 143 142 229 117 146 119 152 122 206 238 202 131
175 172 183 167 174 153 195 205 205 177 134 132 228 170 118 134 143 147 134 148 188 192 195 198 196 170 152 166 161 141 165 142 139 209 127 214 147 128 134 132 136 129 135 155 147 146 221
192 181 170 185 158 196 167 215 187 126 129 159 146 139 246 229 227 151 179 207 177 198 191 208 197 203 198 195 187 209 173 169 151 171 178 182 175 165 206 180 159 159 172 208 201 114 121
169 173 183 171 180 193 185 193 175 182 165 200 132 216 129 145 145 181 153 227 194 169 142 185 162 147 148 138 167 193 191 193 179 199 178 184 188 181 174 178 185 203 185 199 192 183 193
184 173 174 182 164 183 192 191 175 196 192 186 167 129 125 136 132 139 136 239 235 166 141 196 156 138 189 198 196 197 168 179 134 200 197 194 190 192 199 209 194 201 194 199 196 148 172
174 174 184 172 177 178 182 174 187 194 191 196 188 194 216 132 135 129 132 152 249 245 180 244 232 216 216 233 205 234 234 202 199 195 127 202 202 201 185 184 203 191 197 186 193 182 167
149 173 168 168 175 163 178 184 185 162 183 192 194 208 164 192 198 134 140 134 198 216 143 127 239 249 231 241 236 153 222 237 237 237 241 203 208 200 203 196 167 191 208 205 131 201 196
158 166 180 180 153 168 170 177 180 175 179 185 167 173 204 197 202 173 131 206 121 121 136 128 134 192 171 181 209 205 140 147 147 206 170 199 234 238 238 243 245 230 213 208 164 224 215
174 171 170 179 173 173 167 177 159 178 157 185 170 185 174 178 191 198 211 165 130 126 129 126 123 126 210 219 227 212 212 136 147 240 235 227 220 227 233 233 234 245 228 235 236 195 247
159 175 171 176 166 164 177 192 156 175 173 187 181 179 178 182 180 156 180 192 203 199 191 125 136 136 202 208 232 213 207 216 141 140 136 242 194 227 239 207 232 161 227 235 228 233 219

GFSGBSN_2pvu_pres_102.txt.gz
Presure
216 203 262 285 362 322 425 427 419 429 414 435 428 375 153 319 267 305 279 264 246 252 287 267 249 238 213 195 205 221 223 218 240 225 238 226 249 246 229 226 207 180 176 160 151 203 147
204 252 266 240 337 345 416 386 390 404 417 428 441 421 417 260 308 351 315 279 249 240 251 220 246 255 247 216 211 208 218 228 233 229 232 242 226 230 252 247 247 253 255 126 140 146 152
179 250 262 380 344 440 383 367 375 391 386 402 419 450 405 375 307 307 173 290 263 245 250 233 223 259 256 246 234 210 206 211 217 236 243 235 237 235 233 220 228 240 254 223 150 232 149
223 241 262 357 448 417 359 355 369 401 379 414 416 422 394 382 384 304 335 281 285 254 245 241 230 210 208 226 252 224 215 204 222 211 227 238 246 249 250 250 250 233 244 233 251 126 125
176 214 256 325 459 439 359 358 371 386 384 396 414 422 411 387 373 350 301 302 257 259 263 238 243 240 238 236 214 251 232 218 222 221 223 225 225 226 235 247 251 253 233 246 249 265 272
184 222 251 270 531 512 458 402 398 388 389 392 418 423 419 390 370 371 370 283 300 258 276 257 254 247 244 245 275 214 247 224 216 216 220 217 216 226 223 237 236 260 262 260 177 265 243
201 205 226 162 445 436 434 449 425 418 424 420 433 418 400 380 359 360 365 345 281 261 251 274 245 268 249 246 255 268 233 245 212 213 211 237 225 232 235 229 244 239 242 249 270 135 144
168 180 219 250 267 403 416 415 457 438 431 429 423 412 415 364 348 356 339 332 349 273 265 262 254 251 252 274 280 270 254 243 245 246 243 247 251 246 246 250 247 256 262 268 273 280 252
167 172 163 222 252 405 404 410 394 394 393 444 443 426 379 357 354 371 313 306 329 340 322 255 260 273 290 280 274 269 259 255 251 252 253 249 252 253 254 257 266 267 267 270 269 288 236
172 172 187 227 242 257 402 383 368 370 355 359 369 375 365 350 358 315 313 303 324 325 298 292 291 283 280 253 272 275 269 258 255 251 255 257 262 269 266 207 271 268 277 288 302 371 356
176 223 180 162 187 231 264 402 373 361 356 346 339 339 345 344 316 308 294 297 315 306 287 282 277 287 280 273 268 280 281 245 274 271 264 272 279 275 282 283 284 283 327 324 288 364 292
218 169 174 180 203 200 228 262 388 357 352 343 347 340 344 354 359 319 312 304 316 320 279 286 288 286 286 286 283 278 273 285 293 289 280 275 279 280 291 330 322 327 327 332 262 289 262
198 213 167 172 252 172 193 235 253 317 271 345 347 339 326 334 347 347 320 307 301 299 303 302 306 299 300 289 290 289 292 303 320 321 321 340 329 321 314 317 304 332 237 241 270 146 306
180 217 205 181 164 182 167 128 220 243 330 193 346 351 329 335 329 331 348 307 308 312 302 309 308 315 322 308 349 343 334 330 329 326 326 323 308 306 303 294 333 137 161 266 214 301 310
201 182 196 185 168 154 159 131 159 153 192 251 343 353 172 325 306 322 320 326 343 352 324 170 319 332 341 331 321 314 322 337 438 430 416 351 331 333 326 288 275 297 298 140 145 150 148
174 206 186 202 207 164 152 145 142 141 140 135 139 143 150 269 174 304 342 334 331 332 322 314 319 189 237 249 330 296 288 255 325 324 322 309 309 308 296 270 245 148 203 243 147 275 202
181 174 198 177 211 207 215 149 150 123 134 133 130 143 128 142 142 140 161 143 138 150 141 231 150 151 232 349 216 141 141 140 143 222 257 257 243 301 297 289 281 154 136 142 212 281 275
185 192 171 192 223 198 147 134 119 140 126 128 124 128 182 207 135 220 147 255 207 161 152 148 142 139 140 135 141 304 301 319 313 317 316 311 306 307 141 130 144 122 137 283 125 124 293
184 178 181 194 197 183 202 129 125 130 127 138 132 149 152 152 134 158 193 162 204 205 216 166 239 253 239 240 250 205 151 172 258 235 237 141 145 236 321 321 135 132 131 122 140 249 245
158 181 169 179 194 188 199 205 206 130 124 135 146 121 130 138 160 159 157 172 166 156 177 174 157 157 160 161 168 175 169 207 191 161 166 140 147 139 154 139 164 123 130 164 129 198 148
161 182 183 164 195 186 174 182 196 114 142 199 121 158 219 116 265 252 200 180 173 185 198 189 183 200 174 180 171 147 157 143 135 134 134 142 162 132 121 175 139 128 159 169 120 152 231
174 177 180 173 167 185 186 195 187 177 126 229 128 143 225 207 215 190 152 241 178 217 248 243 165 204 205 187 187 179 184 146 160 135 186 173 185 188 159 125 125 127 192 198 137 186 200
160 161 177 167 174 174 181 193 190 183 197 165 205 149 129 131 134 134 135 196 150 146 143 141 201 148 151 147 222 240 210 200 202 167 194 193 194 189 206 189 186 192 209 182 203 182 172
164 170 170 172 171 171 172 159 193 193 174 195 180 169 131 128 138 133 134 132 233 153 141 240 185 181 183 186 226 241 262 256 249 223 233 172 224 201 198 164 201 172 195 160 187 158 138
144 153 168 179 166 171 161 186 167 167 188 172 195 190 199 201 171 129 131 131 133 212 145 139 134 213 214 227 233 249 231 232 219 269 261 251 191 228 234 240 250 245 237 210 197 201 189
164 157 166 167 182 161 169 170 176 176 189 179 191 179 175 190 144 194 209 135 134 175 144 132 138 130 120 134 219 155 233 128 140 136 143 131 263 253 235 236 237 237 233 248 150 233 230
164 164 163 170 173 172 145 171 172 184 189 169 188 178 182 178 179 191 164 199 189 134 132 126 125 125 125 131 158 212 213 163 125 137 133 142 177 182 255 252 239 238 233 217 205 238 210
157 170 165 165 162 159 165 152 179 168 182 162 173 183 181 191 170 191 161 180 193 190 196 171 196 206 179 177 213 227 201 215 212 196 217 211 233 292 270 264 254 175 236 240 230 198 233
165 158 168 157 161 172 165 167 183 163 176 181 157 175 171 180 189 183 192 189 192 183 189 195 205 182 200 206 201 182 208 206 211 215 242 208 238 127 146 242 265 258 139 242 240 228 233

GFSGBSN_2pvu_pres_105.txt.gz
Presure
156 213 280 440 449 448 420 373 363 361 361 373 367 448 418 416 216 196 378 377 246 248 210 239 216 245 267 251 213 211 213 213 221 234 218 245 251 183 246 226 179 184 177 173 173 181 185
192 236 276 434 416 535 377 360 357 358 359 368 376 405 432 407 394 305 304 364 280 260 241 236 246 230 279 271 233 222 205 203 213 228 235 232 234 237 243 244 252 196 188 184 184 179 180
180 210 269 419 465 543 392 366 359 363 368 375 399 402 404 392 380 387 304 286 242 361 219 250 223 230 216 278 260 232 216 229 213 209 219 219 220 235 240 236 256 230 252 261 211 202 207
179 171 264 420 375 487 469 391 380 382 384 387 390 438 412 375 372 387 359 266 355 354 367 228 212 227 234 248 288 239 240 236 219 218 212 214 222 223 221 235 241 244 231 249 256 249 260
155 177 234 227 416 401 395 478 438 414 414 406 414 430 418 373 371 394 386 260 279 254 363 308 238 239 234 242 255 278 255 230 218 205 206 202 224 223 223 238 241 254 254 254 252 252 255
159 182 227 262 371 390 395 403 455 437 448 437 426 430 392 378 377 363 389 400 265 347 348 321 230 233 230 239 249 294 271 246 241 236 231 222 201 229 227 224 236 226 237 241 242 244 248
179 208 224 246 269 387 379 389 480 456 439 410 418 425 402 358 357 360 367 331 271 334 352 345 293 229 225 242 217 221 228 268 255 244 242 232 230 230 222 221 227 229 230 197 221 240 239
240 170 145 228 253 338 358 373 375 383 384 391 383 375 368 354 349 350 370 289 265 304 343 326 289 251 239 239 232 207 218 214 212 215 222 252 246 233 228 228 230 230 222 234 242 244 242
232 202 165 210 167 254 366 358 358 360 356 353 359 340 334 342 335 349 373 268 277 351 319 351 267 250 244 237 237 235 237 243 248 237 232 234 256 256 246 234 224 227 229 235 245 178 278
189 165 177 161 141 240 240 359 369 359 371 365 333 311 315 328 343 346 345 283 271 291 352 242 322 261 258 255 242 246 247 241 246 245 251 259 267 244 251 256 255 248 253 267 267 271 283
206 184 155 134 161 170 185 252 346 359 374 360 328 318 310 321 331 331 334 328 280 271 267 289 244 270 269 265 245 276 250 259 258 260 281 283 279 271 260 261 261 261 264 265 275 286 292
213 220 218 152 159 196 170 230 248 323 363 347 324 309 323 309 316 316 326 320 310 313 268 261 262 262 264 259 259 264 263 280 294 289 287 283 280 274 268 269 268 268 283 294 291 352 332
191 211 217 225 150 147 183 157 161 194 181 339 314 319 321 309 307 314 308 309 310 285 317 317 303 299 263 284 298 294 293 286 283 283 287 289 288 289 296 304 305 299 329 362 328 308 319
174 190 216 169 157 135 130 128 189 145 149 151 167 332 335 321 312 317 315 312 310 307 304 311 311 308 309 310 309 301 297 300 302 301 303 304 302 339 346 335 330 358 341 254 300 305 165
197 193 187 205 203 164 146 106 126 136 126 163 155 223 326 187 349 329 315 327 346 326 326 315 299 324 320 311 319 321 368 365 374 370 340 317 322 336 371 289 233 145 141 203 305 269 233
187 183 183 201 189 136 134 128 159 167 176 196 208 143 149 193 182 151 236 145 312 172 349 355 353 355 349 370 379 361 356 351 344 340 338 336 322 325 315 306 309 235 287 229 136 217 153
185 185 179 179 203 184 124 114 125 125 127 133 137 192 158 202 186 198 130 140 161 222 430 261 182 136 148 209 150 150 152 303 201 200 149 196 200 307 251 278 295 299 269 142 144 266 268
158 182 185 170 204 187 161 195 122 196 132 137 150 153 191 191 129 162 197 153 151 152 227 138 129 136 139 229 142 140 254 137 193 254 267 270 317 309 325 166 142 141 140 138 145 139 271
175 179 182 180 193 186 192 200 119 123 206 132 115 135 154 160 164 203 176 159 197 147 141 195 210 148 139 196 186 141 153 142 214 215 200 214 214 220 155 159 138 156 166 128 134 150 133
181 172 171 170 183 192 174 167 160 168 201 122 131 206 206 167 151 167 163 165 167 183 174 174 177 173 178 197 171 159 154 178 161 182 207 133 188 140 135 140 165 186 126 210 127 149 128
173 173 171 175 155 190 163 186 196 167 141 195 142 139 177 130 221 198 210 208 146 202 207 152 150 152 153 162 163 171 171 130 139 137 149 145 144 138 121 143 172 176 117 131 121 121 120
171 171 167 163 179 158 173 187 190 182 191 158 196 132 132 134 134 138 129 225 145 187 142 140 143 246 141 194 151 164 190 191 184 189 187 246 197 193 130 189 193 133 119 118 193 190 187
161 180 168 164 182 170 171 170 172 188 178 184 190 159 129 127 128 132 133 132 186 166 240 221 209 208 149 174 232 242 264 269 177 260 274 273 269 206 253 220 213 171 239 188 147 184 185
166 153 164 173 172 166 178 169 177 185 172 183 176 192 187 192 162 128 127 132 133 147 219 136 135 136 182 212 188 220 232 220 166 151 229 254 253 259 270 263 252 245 194 241 247 243 180
164 180 153 173 164 144 178 169 181 190 181 170 159 184 190 162 197 140 186 192 132 133 138 138 139 129 128 131 127 134 141 143 201 135 143 137 135 139 145 166 254 258 248 205 237 237 246
166 146 174 161 170 165 153 145 179 166 173 180 174 160 185 184 195 184 188 203 191 198 198 138 122 129 123 132 167 200 144 216 217 227 207 221 141 225 224 241 260 241 254 254 243 245 211
166 167 151 173 170 152 177 169 163 171 171 170 182 174 176 192 180 180 185 187 178 184 191 197 201 204 204 155 186 186 203 199 196 214 189 192 217 224 219 209 142 242 179 189 266 258 253
175 167 168 168 170 155 160 169 189 165 172 174 186 166 178 181 178 193 175 183 180 185 180 163 173 189 195 198 206 201 197 200 197 194 190 205 193 194 202 221 221 200 232 195 227 247 185
160 171 161 168 174 158 165 172 156 178 181 167 173 175 169 176 195 172 181 189 176 168 193 188 180 181 192 188 192 183 190 189 198 196 212 201 189 207 196 223 213 220 197 182 189 230 248

GFSGBSN_2pvu_pres_108.txt.gz
Presure
159 163 291 374 391 418 497 361 368 359 356 364 336 371 362 366 401 355 336 170 181 267 235 245 238 233 274 255 213 208 220 208 224 221 208 217 204 204 162 163 158 150 152 149 164 166 174
171 177 285 382 382 438 480 376 365 360 359 370 369 384 402 464 417 400 302 314 350 368 256 235 195 221 224 280 263 231 214 209 200 206 179 226 228 235 234 200 178 178 155 157 157 159 161
169 171 279 380 386 395 498 419 388 381 373 380 385 390 429 464 389 381 402 280 304 375 367 187 188 235 233 232 270 285 236 220 210 206 200 208 221 215 242 225 245 229 211 188 199 167 174
166 169 223 359 381 383 421 469 441 426 405 399 408 428 425 394 370 372 396 411 281 376 364 259 244 231 222 240 227 231 287 275 230 218 207 205 210 218 222 229 227 240 239 246 259 250 243
181 162 168 278 383 384 374 384 248 433 429 411 410 415 388 370 369 386 395 416 275 377 342 346 246 238 221 221 223 228 231 279 276 246 229 212 193 211 217 209 218 237 239 232 239 252 258
159 159 148 267 384 105 372 351 367 398 451 433 407 382 374 374 371 385 417 409 256 361 350 336 250 207 255 249 219 233 203 227 267 244 242 227 215 197 210 205 212 214 226 228 234 237 233
158 159 199 170 175 395 346 326 97 345 361 356 346 363 355 344 362 382 404 330 260 162 355 301 295 277 219 227 251 228 217 213 246 270 259 237 233 224 220 225 235 218 228 222 223 242 231
178 127 157 220 236 288 337 334 332 342 338 341 352 352 371 376 383 416 413 262 251 345 350 352 336 292 282 257 229 224 224 229 232 249 282 243 238 241 243 243 235 229 186 206 233 228 227
222 162 164 158 235 255 292 349 335 322 329 337 341 353 364 373 386 398 293 265 302 327 333 338 363 322 301 283 231 231 228 237 245 255 278 279 271 263 241 244 248 253 250 248 245 244 244
213 130 181 176 148 232 190 318 339 313 319 323 334 364 362 281 275 275 284 309 325 335 330 343 342 346 296 253 237 234 239 235 219 228 233 236 248 257 227 247 254 263 257 254 256 255 250
201 189 156 118 144 179 141 252 341 332 323 303 329 331 340 302 272 276 259 275 317 332 336 338 332 327 315 234 225 230 238 236 220 217 225 235 239 243 250 245 242 245 266 278 271 258 259
192 213 129 132 235 150 189 142 161 318 334 336 317 322 325 334 265 293 264 288 260 316 324 337 297 275 276 244 244 243 246 245 248 245 250 253 255 258 263 267 265 275 291 287 284 281 277
186 193 202 145 126 231 125 151 225 231 191 348 349 313 320 312 323 324 314 282 276 275 288 266 331 331 291 260 257 259 253 253 256 260 263 266 269 276 276 296 294 290 288 285 285 321 330
180 194 155 185 113 130 129 146 143 132 146 169 154 250 274 146 317 317 310 321 321 324 319 286 286 276 273 267 267 279 271 260 261 306 312 307 298 283 285 291 295 301 361 349 333 314 315
183 177 193 181 133 130 137 123 137 154 146 214 128 228 229 333 133 122 338 325 328 321 329 317 330 327 327 329 325 327 323 324 326 327 329 318 322 318 328 362 360 340 332 315 315 270 286
190 179 159 187 127 117 123 133 134 177 206 168 146 203 167 131 139 202 138 183 283 287 363 388 372 381 391 436 403 392 385 385 376 360 373 368 369 348 338 336 331 305 232 170 290 282 152
147 181 182 192 192 125 137 136 143 150 127 208 172 174 162 202 218 127 140 195 187 196 141 192 143 175 170 224 225 227 230 255 262 325 336 334 337 316 310 249 294 298 236 301 227 143 252
178 174 177 187 162 183 137 185 179 137 184 125 221 142 151 175 167 207 192 211 152 167 126 129 188 131 215 214 183 138 138 213 215 219 221 220 224 222 222 228 226 166 146 147 139 141 150
170 182 170 168 182 182 176 195 187 195 116 147 202 203 247 160 236 165 159 155 159 147 147 142 142 141 160 146 215 141 200 202 213 197 210 213 220 213 162 218 140 139 141 142 146 133 187
172 179 180 178 169 176 180 176 181 158 187 135 125 134 125 165 161 186 152 201 211 217 173 181 173 181 177 185 200 198 202 198 185 159 146 136 148 145 141 138 167 141 131 174 130 121 118
173 181 175 174 185 174 169 177 183 173 181 186 135 132 135 133 141 151 218 142 148 164 211 170 171 216 175 163 174 192 215 128 134 142 188 216 163 188 185 155 191 188 137 177 193 118 204
170 181 161 170 167 172 182 182 168 182 193 181 191 159 158 129 132 132 128 196 141 147 144 172 213 227 147 225 225 222 219 218 151 220 127 239 212 278 271 189 203 249 201 151 170 199 221
156 179 161 180 162 172 164 169 181 172 168 182 185 190 195 193 149 137 135 134 145 170 216 203 136 172 193 209 217 193 215 215 215 235 199 225 231 243 231 234 265 275 266 258 251 245 244
188 176 176 181 177 165 164 170 193 172 181 162 168 176 180 171 190 163 193 195 188 147 134 134 134 133 131 131 135 140 140 165 183 149 141 192 150 137 190 232 193 236 231 254 277 266 260
143 179 172 174 148 178 162 154 189 174 178 188 173 167 189 178 183 187 182 182 189 188 194 182 129 124 125 130 128 200 205 195 171 213 199 200 184 222 203 228 215 229 187 170 206 274 168
149 165 173 166 175 158 162 169 174 157 179 185 175 171 182 192 183 194 184 190 172 173 189 189 192 184 201 192 197 194 197 185 203 209 188 189 205 201 215 222 225 227 187 127 167 249 198
167 151 174 152 171 177 162 164 170 179 174 168 191 168 160 176 196 183 171 174 170 193 195 186 173 175 166 181 173 207 186 202 199 197 226 195 210 204 208 201 202 226 231 211 222 220 173
170 161 166 177 172 159 171 149 160 160 177 184 160 188 176 169 169 179 174 197 186 186 184 182 183 189 195 192 184 185 185 192 208 201 198 208 195 195 215 234 212 209 200 218 224 225 139
139 124 167 164 169 164 169 175 172 162 165 187 187 196 164 177 167 184 176 188 159 177 188 191 173 178 171 174 199 191 197 187 181 184 206 202 190 183 203 192 196 193 186 230 192 205 228

GFSGBSN_2pvu_pres_111.txt.gz
Presure
171 156 285 375 372 381 446 392 372 354 349 354 362 344 338 353 357 393 400 380 280 240 240 244 240 224 210 260 233 213 203 224 210 196 220 190 188 185 177 177 170 156 151 154 151 153 160
154 164 163 361 361 360 415 476 402 381 366 355 351 365 375 349 358 392 400 442 356 383 283 220 231 226 221 200 264 232 229 213 222 183 218 217 214 193 185 190 189 173 195 157 156 155 155
149 161 234 357 338 356 355 381 520 428 387 383 371 368 383 374 351 355 378 421 341 364 419 267 249 238 232 231 251 263 241 219 237 218 212 226 221 224 221 193 217 192 188 176 173 158 140
149 147 222 356 337 343 352 354 375 436 441 426 428 428 466 470 446 386 359 412 315 341 367 387 255 241 241 250 231 224 276 237 225 212 221 211 216 202 210 222 220 222 194 186 149 181 171
147 148 179 338 334 327 342 349 356 364 379 270 381 376 368 384 361 377 383 406 304 323 385 380 251 250 235 245 224 220 243 273 255 237 222 213 215 215 216 207 219 225 228 225 216 214 218
149 224 189 257 360 328 336 361 367 333 363 357 358 354 361 380 366 385 406 366 302 313 372 349 322 252 222 212 234 252 226 154 220 281 269 237 223 197 207 202 195 203 211 218 224 231 229
130 144 173 203 349 344 320 339 332 336 366 371 370 359 358 371 400 400 374 295 276 370 328 309 235 266 227 216 216 229 244 215 225 232 276 278 246 232 225 216 209 207 207 213 217 223 236
126 131 255 143 243 349 333 330 306 286 292 310 380 399 394 392 414 385 360 262 252 278 297 300 295 273 244 226 223 215 212 223 218 214 218 231 264 280 274 250 240 232 229 225 210 215 215
140 116 129 179 204 275 341 336 333 322 286 306 307 297 301 290 283 280 269 257 301 293 288 287 270 201 290 265 241 209 209 196 208 217 223 222 222 242 267 262 252 257 242 239 237 236 244
193 125 127 133 232 148 275 342 334 322 282 283 297 327 320 276 268 265 262 354 333 294 292 267 222 195 204 300 195 269 216 203 217 228 229 232 225 228 244 266 273 259 250 250 250 241 241
139 135 123 124 118 127 178 236 355 335 322 335 313 281 263 318 337 340 333 359 353 333 316 302 290 298 297 296 307 223 217 222 225 223 221 227 238 249 256 268 279 283 276 259 259 260 267
156 194 125 127 140 223 135 171 146 304 258 329 311 329 266 271 259 318 342 341 342 316 296 307 298 304 312 303 284 233 227 224 225 225 236 244 235 232 230 231 231 231 232 235 244 251 256
188 155 165 138 133 145 177 163 124 168 232 359 333 323 319 320 319 299 294 323 331 318 354 311 307 309 287 242 243 233 230 231 235 239 236 228 228 233 243 253 259 262 265 273 276 299 302
183 186 159 117 124 162 189 144 173 167 127 129 253 287 334 329 318 308 317 318 277 269 274 325 327 251 269 252 249 250 244 248 252 253 255 261 267 264 263 271 277 273 300 303 305 312 342
177 195 175 127 112 127 204 190 250 253 256 168 130 209 232 144 159 328 330 329 315 318 321 321 317 285 284 282 295 275 284 288 290 285 287 285 317 317 314 325 330 334 372 362 344 318 307
176 174 187 177 121 123 130 162 175 196 130 229 164 157 132 192 126 185 223 245 248 249 311 320 335 374 378 410 404 387 382 397 396 405 403 399 371 370 367 367 359 338 333 330 308 299 295
181 180 185 188 129 179 177 129 111 178 181 204 208 232 160 125 151 129 142 193 143 140 230 231 231 231 173 231 232 235 237 237 240 240 241 237 236 233 261 262 236 260 260 259 269 293 279
184 175 172 179 174 187 184 168 123 151 172 183 190 175 145 230 167 118 156 132 125 136 191 129 158 167 210 210 207 216 214 216 219 222 223 221 223 224 225 227 229 228 227 133 169 145 141
202 161 173 183 179 162 198 180 189 188 123 132 167 154 175 206 176 223 224 171 150 145 142 146 154 171 253 267 190 213 204 207 205 225 232 221 211 221 111 178 178 199 146 198 138 133 133
153 189 178 173 167 188 164 181 179 181 190 160 156 138 197 164 172 150 172 208 172 219 221 219 180 160 155 196 180 231 207 151 141 145 150 162 186 221 147 154 149 140 164 164 152 219 132
168 154 185 184 164 166 186 167 168 187 168 177 138 120 145 145 191 161 181 147 148 167 192 152 181 170 155 157 215 151 128 154 228 234 218 151 229 230 232 182 127 233 257 273 267 262 256
134 161 186 186 155 163 164 198 175 178 159 200 170 165 154 135 131 129 136 214 141 159 141 142 141 144 152 194 197 213 203 158 150 135 225 223 231 231 230 229 229 138 124 236 237 269 270
185 144 174 184 181 153 175 170 188 186 169 178 158 205 179 179 199 187 185 147 164 149 136 136 135 136 202 144 165 185 200 209 185 203 199 216 219 236 234 205 180 205 205 214 226 228 216
144 175 138 170 179 169 147 162 170 180 169 176 172 167 162 174 180 179 182 187 185 190 167 173 130 132 128 128 163 134 167 169 201 210 220 224 220 187 179 141 213 212 224 225 224 237 223
151 166 174 168 179 172 170 172 163 185 181 177 160 190 176 178 184 169 181 181 198 171 186 182 203 190 183 193 193 191 131 205 199 199 194 203 211 215 214 208 207 205 232 214 154 155 166
169 163 142 140 170 172 170 176 151 169 152 179 170 187 160 200 181 184 183 203 166 190 184 181 181 196 195 184 153 163 191 179 193 179 189 196 190 183 187 186 204 186 131 219 174 132 134
154 136 165 170 175 159 166 174 181 161 179 173 178 174 180 167 180 169 176 193 184 180 173 189 187 184 190 186 178 182 186 202 194 190 188 204 215 197 209 204 201 195 225 202 206 229 223
164 125 156 157 127 169 164 151 174 170 169 160 167 168 174 181 166 176 174 189 177 171 182 183 166 188 170 169 194 197 172 174 176 170 210 173 179 189 197 216 205 213 201 199 219 233 217
162 161 155 166 168 173 150 168 161 145 179 172 152 179 175 179 177 162 161 170 187 176 193 172 198 168 191 185 173 188 196 175 193 189 206 178 168 188 170 204 206 199 224 207 194 222 181

GFSGBSN_2pvu_pres_114.txt.gz
Presure
150 159 142 339 334 384 383 399 417 383 369 359 354 343 348 363 358 360 388 421 258 208 226 208 183 205 212 292 214 205 220 221 204 189 182 199 188 179 190 144 166 136 144 152 158 149 130
144 180 255 363 298 296 385 380 507 401 372 355 356 356 335 350 360 370 400 421 400 264 241 227 215 205 219 198 281 211 227 226 221 210 213 204 201 181 171 180 168 144 158 139 118 127 156
137 117 126 355 303 325 321 374 376 431 456 382 371 368 361 340 343 374 384 419 403 376 258 244 232 238 233 182 200 267 228 207 205 195 202 213 217 207 207 187 178 173 167 174 170 174 175
132 189 134 360 354 319 310 368 376 366 375 388 432 415 393 381 384 362 364 417 394 377 374 261 248 207 238 240 206 249 280 226 206 180 207 213 237 212 219 215 207 215 179 181 182 191 188
124 163 163 317 348 299 355 287 358 377 364 359 372 373 404 521 404 353 379 289 377 370 370 386 276 248 249 234 228 218 208 271 254 237 227 214 186 202 205 207 217 216 216 206 207 196 196
128 155 132 197 356 346 334 319 307 320 386 372 370 383 387 389 376 357 402 375 341 356 437 331 319 260 257 195 233 231 229 201 222 256 244 232 230 221 211 185 217 221 213 221 219 225 222
124 127 144 197 240 336 302 342 335 300 307 404 388 396 362 393 397 409 356 336 340 351 424 337 318 321 259 257 248 232 222 223 198 202 264 256 245 233 228 209 233 181 221 211 211 223 219
146 121 123 128 138 364 343 276 322 345 274 298 398 418 419 441 359 321 311 299 283 383 395 328 246 316 338 259 254 246 231 225 237 214 215 274 277 258 245 236 231 204 208 196 216 205 211
132 120 137 208 121 140 360 341 298 283 355 309 279 286 275 278 297 297 335 330 320 316 261 263 315 183 300 335 257 264 234 235 227 215 214 213 220 250 260 283 287 284 282 250 234 216 222
146 118 136 157 249 133 144 358 331 311 301 348 333 350 334 299 306 317 330 322 286 311 312 188 268 271 164 288 194 255 220 229 233 197 215 213 215 217 229 234 241 252 264 273 277 282 275
183 119 158 133 205 174 129 192 334 326 318 313 345 337 361 386 313 319 318 290 297 286 287 180 271 198 190 142 315 171 228 201 217 213 203 225 228 225 223 230 230 227 231 241 251 282 279
130 155 127 177 182 172 199 178 202 218 339 331 289 336 357 320 307 305 309 294 287 294 215 295 296 208 297 297 310 262 259 212 245 221 216 208 217 222 230 234 237 233 242 256 256 257 259
170 120 119 159 143 168 151 222 202 138 162 216 334 320 303 312 320 277 267 300 286 310 310 297 294 299 308 303 312 309 219 226 217 221 215 221 227 230 231 233 241 249 240 239 243 246 251
181 158 152 130 185 184 139 145 152 153 160 150 192 224 335 329 327 294 285 301 291 301 300 260 252 263 305 237 230 245 240 309 232 240 232 233 232 237 243 243 246 247 252 271 278 282 288
199 180 135 122 122 126 203 151 204 163 200 131 164 168 191 211 252 332 340 322 304 335 317 323 323 316 330 262 241 241 242 244 240 241 242 243 251 259 275 309 344 350 366 383 393 368 344
157 157 172 158 182 118 124 167 192 192 195 171 233 210 125 127 195 191 114 218 242 255 311 317 317 323 373 371 405 408 414 431 387 412 433 399 393 391 370 370 373 367 366 348 348 327 320
159 192 155 179 156 175 121 161 113 189 189 157 167 188 209 211 202 124 182 171 168 188 203 213 217 222 225 231 235 244 246 245 244 237 237 234 239 234 232 233 234 231 233 235 238 234 234
150 177 184 156 175 174 175 179 135 182 122 171 178 190 158 212 140 142 149 131 139 169 174 160 174 185 192 196 197 200 204 208 210 212 214 215 216 218 223 219 219 218 216 213 212 211 214
165 167 181 160 193 176 171 181 183 128 125 154 143 195 182 185 173 183 198 202 215 222 159 153 146 146 134 164 167 167 172 189 199 182 200 199 235 184 181 188 178 180 157 158 149 140 139
158 156 188 185 161 173 178 173 185 180 178 123 156 186 141 157 174 182 180 162 177 147 169 191 199 207 215 182 184 161 154 190 218 225 155 155 196 216 178 173 143 145 188 173 139 143 186
170 154 179 164 171 182 158 185 183 170 195 167 151 122 181 146 156 188 178 170 180 180 181 168 149 195 197 199 198 206 201 205 208 204 211 214 220 220 198 226 235 233 229 233 146 140 243
170 157 172 144 169 164 150 161 197 183 171 167 181 175 173 127 181 155 183 132 148 188 200 142 190 174 199 200 194 195 197 195 201 207 197 209 212 214 221 223 227 230 227 237 243 240 123
153 170 154 173 190 172 179 155 190 170 173 169 174 185 184 170 185 154 181 134 165 129 127 164 175 182 183 184 157 181 195 198 187 194 196 193 193 193 207 199 214 210 217 215 222 213 206
169 161 156 163 172 162 167 170 179 162 182 189 184 177 171 165 183 188 168 169 181 179 179 190 183 186 139 156 190 173 178 191 187 212 191 193 208 190 169 190 202 199 214 209 215 185 208
158 138 152 171 167 146 161 175 178 163 152 187 156 189 176 164 186 194 170 185 171 193 169 170 179 173 126 126 126 169 190 183 207 187 147 179 189 198 186 187 213 197 195 187 202 211 210
135 167 151 165 161 175 152 166 180 163 170 154 156 176 196 169 171 164 174 192 183 181 166 175 199 186 191 184 175 168 176 176 121 176 215 179 178 175 184 174 209 197 196 193 137 205 143
156 147 149 164 135 138 167 137 173 166 166 176 176 152 152 169 178 168 163 174 180 182 173 187 188 173 188 178 197 193 181 191 191 193 203 204 185 143 194 184 208 202 192 193 183 187 194
168 163 152 148 160 141 135 173 168 167 172 157 173 173 168 178 152 172 181 173 176 161 185 179 160 162 199 201 178 181 167 190 176 176 193 177 203 198 193 187 193 212 193 189 190 205 217
146 167 177 144 151 165 165 160 163 137 159 170 171 170 147 179 173 144 179 157 161 198 185 173 171 197 174 209 167 174 193 169 163 199 186 170 176 168 169 201 192 205 179 180 179 180 172

GFSGBSN_2pvu_pres_117.txt.gz
Presure
275 200 211 331 283 306 399 388 490 390 364 358 344 374 371 377 362 369 381 395 246 221 211 149 189 217 241 269 204 202 233 226 198 209 182 184 174 166 154 185 148 132 149 153 157 128 147
136 195 221 352 298 332 287 390 380 472 376 360 358 340 367 356 355 362 379 413 392 253 179 191 186 189 185 273 236 203 196 192 226 223 211 191 187 187 164 180 144 168 168 167 155 166 153
302 134 143 362 307 351 286 408 377 374 403 375 360 343 343 352 350 346 359 374 403 340 258 239 204 189 142 190 222 239 219 217 204 225 185 217 204 191 176 184 170 161 180 175 134 121 177
132 138 143 137 290 368 311 283 392 379 387 396 390 370 352 340 349 355 354 368 396 394 283 256 244 203 194 191 180 226 250 229 223 206 205 228 228 211 184 187 185 177 203 197 181 183 155
119 145 172 239 349 368 349 299 361 396 390 384 402 453 390 346 346 353 371 415 388 384 393 265 245 245 137 164 192 188 189 200 269 227 227 202 232 232 214 190 201 193 179 188 186 189 190
128 158 211 137 250 240 360 332 302 297 407 393 391 384 517 414 369 367 401 383 373 394 378 331 244 248 179 241 189 183 204 191 230 280 260 214 212 227 221 221 211 211 204 212 187 209 216
126 185 232 184 135 280 359 361 331 315 281 401 389 402 397 415 383 396 395 366 370 374 328 327 266 258 256 234 160 169 199 199 188 205 284 279 227 199 226 228 229 229 201 206 211 238 210
183 123 216 251 145 230 341 364 363 366 314 313 242 187 331 347 376 370 363 367 373 340 327 319 328 275 265 263 257 175 212 193 197 190 222 274 271 265 214 198 184 199 223 223 211 203 201
122 163 169 216 273 134 229 361 370 324 362 324 365 347 305 371 302 322 343 364 335 329 324 326 322 322 324 262 240 249 236 236 229 198 203 222 244 260 276 273 267 258 225 247 235 234 205
195 172 137 150 155 237 214 209 373 366 329 297 326 303 324 329 342 348 175 218 403 324 326 315 127 166 306 304 305 234 239 236 219 216 216 208 199 196 204 211 237 275 290 285 282 279 252
140 179 188 184 132 157 184 274 219 288 345 289 317 323 286 317 285 190 170 354 217 317 168 322 317 306 345 323 156 320 303 225 229 217 216 222 221 209 212 228 229 234 238 239 248 253 257
148 128 166 194 207 191 174 229 130 153 225 333 317 298 290 280 306 278 265 296 290 295 268 305 220 228 301 197 271 212 323 262 249 230 221 231 237 227 218 227 223 222 229 240 237 247 253
169 138 127 164 192 190 197 183 177 187 262 216 228 323 321 303 303 275 282 290 297 268 282 303 272 263 209 225 260 259 343 287 261 252 229 235 235 232 224 229 230 234 240 248 251 250 255
151 182 128 121 120 191 195 209 163 190 159 126 204 248 214 313 308 304 309 301 296 291 288 266 227 283 298 290 235 207 197 303 248 218 225 218 221 228 230 239 247 247 247 253 255 257 263
169 165 164 164 121 169 169 174 198 191 164 137 124 168 173 260 209 220 260 294 320 311 327 324 330 298 259 265 277 317 332 225 240 241 225 228 229 240 240 251 277 400 409 407 416 414 400
175 149 190 164 142 126 143 162 183 137 178 187 186 144 132 225 118 240 279 229 198 231 260 267 273 282 290 352 320 269 242 241 244 243 271 272 305 315 288 278 267 265 256 252 270 274 266
161 157 181 173 180 160 125 175 128 178 176 176 177 164 205 140 126 170 212 214 252 267 252 196 191 194 216 254 261 266 269 265 260 254 249 236 227 221 219 215 214 213 210 207 207 201 210
159 164 173 168 157 166 157 126 125 129 161 177 182 184 183 136 151 206 189 198 151 200 218 239 240 171 243 183 212 252 186 188 188 187 187 190 186 185 185 185 185 185 183 182 185 182 182
173 157 145 170 170 163 152 188 193 126 136 192 186 150 172 188 192 180 196 156 183 168 130 197 134 195 206 213 227 231 235 237 237 239 241 228 238 242 233 237 244 161 157 156 237 153 150
160 174 173 176 167 183 171 191 162 175 126 148 168 156 162 174 187 169 188 190 176 167 159 202 189 188 170 177 156 211 212 211 215 216 214 215 221 232 147 171 147 141 190 142 141 143 141
137 175 143 179 174 144 201 154 169 183 180 158 157 124 121 172 180 180 190 182 170 183 183 188 187 188 152 165 196 195 198 181 181 202 202 167 213 205 218 219 200 224 215 222 215 224 203
157 163 163 172 173 171 160 187 181 198 179 205 171 160 167 219 181 158 132 133 177 178 185 181 186 184 192 178 182 146 128 128 197 203 188 198 192 193 208 196 194 199 201 204 206 204 205
150 164 159 162 178 172 178 162 160 182 167 183 189 177 186 190 165 171 191 148 164 170 180 175 181 177 183 184 208 200 199 189 187 180 178 185 184 199 197 187 202 187 190 194 189 202 161
158 154 157 162 133 170 180 150 179 171 164 180 190 171 167 190 171 196 178 185 185 171 149 159 182 176 180 151 174 168 175 181 169 169 174 172 179 190 192 185 193 176 214 198 218 181 168
164 170 161 153 154 162 162 185 182 156 189 164 160 172 179 155 163 189 167 164 165 187 180 168 166 201 168 135 133 153 126 181 203 188 179 189 182 180 200 204 223 179 187 199 212 143 194
149 163 167 154 152 151 166 169 155 178 142 186 154 177 180 187 171 181 172 167 161 174 188 184 182 169 192 172 169 178 127 203 176 167 191 176 198 191 179 143 165 213 204 188 186 193 199
128 164 159 160 174 153 148 165 169 136 164 146 172 179 172 180 195 177 180 164 173 179 172 164 166 183 166 188 182 194 187 166 163 190 166 180 191 169 172 186 197 191 211 175 175 188 187
177 144 160 162 157 155 159 158 164 154 164 171 146 142 167 162 171 151 153 178 176 178 171 170 164 183 164 181 176 185 188 174 190 172 189 162 174 206 199 190 188 196 198 198 193 192 196
189 169 168 152 153 165 155 155 144 139 163 156 155 163 159 132 155 175 172 173 170 177 177 181 180 170 178 159 169 171 159 170 185 181 193 173 174 160 192 179 192 180 173 183 194 196 181

GFSGBSN_2pvu_pres_120.txt.gz
Presure
226 134 323 261 346 328 412 393 404 382 362 342 357 345 342 357 349 346 356 267 200 190 175 241 136 259 269 217 224 207 207 233 213 189 180 176 163 164 158 156 155 151 149 144 149 142 145
124 267 243 152 397 344 424 406 392 426 366 353 347 357 347 343 352 355 361 428 252 220 201 180 159 322 266 271 229 211 222 228 221 184 183 191 182 178 168 169 158 137 163 138 143 146 146
132 270 213 307 407 359 318 413 363 388 412 356 343 371 376 339 341 350 352 369 263 241 217 204 167 229 162 152 277 225 214 206 221 233 189 180 190 179 196 181 176 185 166 154 159 178 141
127 146 260 180 398 386 357 353 405 375 414 410 355 350 342 356 355 345 364 388 352 255 246 225 196 176 167 146 294 287 216 214 199 211 235 228 192 202 180 173 172 173 174 179 176 158 160
143 134 173 237 341 370 335 395 351 394 400 495 379 343 353 273 355 348 363 375 375 264 256 259 203 190 180 224 160 235 261 270 219 207 197 210 234 208 199 186 184 183 197 181 175 187 179
123 160 228 231 142 334 361 337 352 351 417 514 416 360 343 359 355 357 355 375 373 414 258 251 130 202 184 172 210 197 248 216 271 264 219 194 189 218 228 220 213 205 208 194 192 193 189
124 155 146 224 219 129 314 351 352 349 343 368 362 202 345 361 346 359 371 372 411 390 292 256 249 239 192 194 209 211 170 169 273 243 263 199 194 196 197 196 187 236 235 235 220 207 195
144 139 141 200 173 240 244 298 313 343 343 225 300 348 411 374 342 350 379 404 352 353 329 241 260 209 247 188 164 184 180 183 185 228 241 247 256 255 231 223 218 220 203 211 232 243 237
145 139 205 143 160 198 244 323 313 284 329 332 216 257 378 249 357 250 333 322 316 316 318 157 213 261 185 247 199 188 187 183 184 192 197 188 187 249 270 284 278 270 210 209 215 225 198
162 172 182 202 141 181 165 276 264 317 299 297 304 356 391 168 320 314 262 307 315 318 337 198 342 328 265 258 251 208 195 202 153 187 194 175 199 182 207 263 275 273 275 238 206 217 218
181 129 175 174 202 141 182 171 287 228 318 314 296 307 175 300 212 306 318 326 314 302 157 319 151 322 354 266 250 245 217 223 222 197 190 194 187 206 191 200 240 245 247 255 257 253 252
154 132 120 125 198 204 182 206 165 220 259 234 327 315 295 292 302 299 291 280 274 281 200 139 157 308 324 340 291 256 251 185 254 232 226 212 204 201 205 214 211 211 208 210 217 234 243
170 179 129 176 157 161 202 200 222 128 228 253 270 238 322 317 302 286 294 297 291 213 301 303 208 154 177 333 193 202 315 322 224 247 229 214 226 221 224 229 233 235 225 229 229 234 233
138 174 171 130 145 152 141 181 191 150 209 135 219 256 270 228 259 311 316 319 291 269 270 300 301 293 178 301 167 341 339 314 326 346 258 251 231 228 236 241 241 221 229 238 245 272 284
161 173 170 170 170 125 189 162 150 187 146 206 199 131 222 248 277 246 229 249 334 331 337 272 259 287 313 209 304 216 319 327 310 289 235 236 238 228 244 241 263 399 421 426 425 421 409
161 162 166 167 150 146 160 127 202 192 165 160 191 163 171 208 211 234 264 283 234 229 249 277 354 383 359 346 256 225 224 235 238 224 251 309 302 383 325 275 219 215 213 234 226 212 213
169 175 175 181 159 208 164 131 128 198 188 167 182 192 202 126 129 212 207 211 238 240 252 277 246 249 243 284 243 279 279 280 281 284 277 284 255 255 267 238 252 256 254 255 240 246 217
151 173 157 157 159 190 179 153 169 126 126 175 167 139 194 177 185 166 209 215 213 218 212 217 235 237 234 235 234 235 237 231 233 238 237 237 217 215 218 225 228 228 229 228 227 230 239
149 168 174 171 139 155 173 163 192 128 127 161 170 183 175 174 176 182 184 135 129 197 192 222 222 211 214 213 211 222 225 228 221 217 220 207 219 221 225 209 214 216 218 219 221 222 224
166 166 164 159 175 167 161 189 178 178 152 122 164 187 189 164 158 168 134 177 180 184 183 164 152 132 134 166 168 192 180 205 206 199 202 207 208 205 208 194 208 153 184 211 209 179 209
162 167 146 169 165 171 168 145 160 188 194 184 186 118 173 172 166 166 184 177 178 183 160 168 169 156 155 198 191 198 181 198 186 186 198 180 147 197 144 142 155 143 141 141 141 179 144
142 172 157 146 179 166 169 169 154 155 174 152 165 180 199 167 168 189 168 135 171 175 143 167 194 172 172 217 179 178 179 178 179 178 183 185 198 191 136 196 159 180 191 195 188 197 200
151 165 136 169 154 165 162 170 161 172 157 168 156 177 160 169 162 169 169 180 143 173 183 190 167 172 168 172 172 205 188 190 187 188 189 203 185 186 188 201 185 206 189 197 201 204 186
165 158 169 170 154 166 150 172 158 161 176 155 175 160 183 166 171 157 162 164 176 162 166 152 152 180 164 176 170 167 163 176 167 173 169 183 177 188 194 191 203 174 189 182 178 182 160
154 149 156 152 156 165 172 163 170 172 161 180 152 180 153 179 173 173 181 154 182 188 165 169 188 173 171 186 178 173 173 127 162 144 169 166 198 178 172 174 178 191 174 199 175 190 182
159 162 166 146 164 163 167 171 166 164 165 166 152 157 176 167 153 158 169 168 182 180 180 189 162 190 187 161 166 167 163 178 174 165 159 193 175 168 128 170 171 195 204 188 214 192 183
167 140 159 153 152 164 188 171 164 152 181 156 160 163 170 146 173 154 167 173 166 171 174 180 182 181 169 189 181 182 189 197 173 173 191 169 191 196 169 185 185 187 195 189 176 172 171
135 168 177 162 142 166 158 159 147 159 164 127 161 170 180 151 148 149 144 161 157 171 181 170 175 170 172 178 171 180 175 191 185 187 160 183 174 185 197 185 180 166 177 165 174 177 181
166 189 191 183 181 171 184 182 193 178 173 165 131 154 158 151 148 157 162 157 161 168 170 158 173 174 183 185 176 174 171 176 179 177 179 185 156 181 181 195 180 188 183 180 187 189 191

GFSGBSN_2pvu_pres_123.txt.gz
Presure
128 129 262 309 374 381 407 398 410 373 351 352 336 326 323 333 345 339 369 366 343 174 166 162 265 285 246 278 215 201 217 180 216 206 190 166 153 158 153 138 154 138 142 141 149 141 151
217 134 224 193 370 357 405 414 434 384 350 359 340 327 344 338 327 330 372 395 397 180 191 179 260 178 270 227 216 210 213 222 223 219 188 188 200 163 154 157 147 138 147 132 138 144 144
206 151 155 196 283 354 243 428 424 397 359 349 346 338 333 326 324 334 344 372 393 220 181 182 168 154 155 218 215 207 204 215 217 196 209 207 195 166 170 158 157 164 158 134 138 142 154
193 122 165 255 316 362 291 369 264 407 371 366 364 339 336 356 338 332 339 374 384 235 203 228 172 153 163 133 196 271 249 223 226 232 212 201 211 206 196 168 168 163 162 161 157 159 160
166 138 156 288 332 318 360 357 501 340 359 341 360 365 344 327 326 340 340 381 397 253 234 199 201 169 164 143 286 236 211 219 218 209 215 215 195 205 190 199 198 173 171 170 170 178 170
140 219 185 158 287 333 335 351 372 401 318 354 359 361 360 359 348 351 338 394 338 257 238 218 177 217 164 229 150 177 250 213 212 208 207 201 217 214 221 226 213 208 201 178 185 191 200
125 172 215 151 239 144 309 361 360 274 163 351 342 346 371 363 358 355 347 382 321 297 249 234 188 155 234 238 164 137 275 270 202 200 205 217 207 198 222 222 247 222 189 186 187 186 212
146 181 209 213 210 155 293 313 330 325 253 192 323 302 336 371 371 371 369 368 389 307 263 257 213 196 209 187 165 140 157 268 229 275 235 224 214 214 201 197 196 226 248 245 226 210 203
185 124 139 210 188 195 260 252 316 315 303 315 234 145 137 311 300 354 391 333 324 326 273 252 209 208 202 183 222 223 193 201 240 171 231 214 268 275 268 200 202 204 198 188 194 205 211
136 182 176 179 200 193 220 247 268 324 306 308 302 257 187 311 320 320 346 340 340 342 294 253 227 235 153 160 188 204 187 168 220 221 226 197 166 278 275 182 269 260 189 201 280 298 280
173 140 142 174 195 204 179 218 236 287 252 317 262 306 298 308 266 299 308 326 157 330 349 279 214 178 223 211 193 184 182 204 191 178 204 185 184 180 268 237 235 232 232 176 250 258 258
162 173 134 163 183 194 167 144 216 231 249 275 303 317 262 280 293 296 198 320 292 138 148 354 347 252 135 158 198 223 190 189 168 155 159 181 163 189 180 204 194 199 202 196 195 236 245
157 169 153 131 146 186 195 196 170 185 238 231 261 259 309 317 262 266 297 308 226 318 156 325 344 299 277 242 181 245 241 229 199 142 192 197 195 199 198 195 195 190 210 225 230 235 240
157 150 165 202 119 145 153 162 145 145 177 216 235 232 267 274 279 322 260 314 296 214 151 156 281 340 339 346 283 275 266 253 216 208 214 190 237 210 196 217 211 221 241 254 284 432 459
183 163 161 173 132 133 130 133 177 204 200 201 206 207 234 236 258 272 270 360 308 252 213 317 170 228 338 347 243 350 162 302 280 265 255 263 230 213 225 236 257 317 398 247 233 222 223
173 152 157 162 154 191 153 129 178 185 191 203 142 156 153 204 227 229 244 254 267 279 329 263 326 210 243 298 327 338 330 340 343 316 250 228 216 266 287 278 239 278 288 273 263 259 260
167 143 175 167 178 143 176 136 134 132 141 179 186 184 171 201 194 200 207 216 226 246 253 257 270 279 288 309 309 346 349 310 354 334 337 283 274 262 260 244 243 239 232 228 218 214 208
172 162 159 177 181 179 142 189 189 182 153 127 172 184 191 141 200 172 184 212 215 213 234 222 245 250 253 260 274 278 277 276 263 253 243 240 236 226 222 220 217 188 215 217 202 220 215
176 170 153 160 170 164 162 159 143 178 149 161 168 147 184 165 180 174 175 149 182 184 204 206 217 221 218 221 224 221 225 224 219 219 219 218 214 206 211 202 195 207 214 215 214 202 204
173 172 171 149 165 170 186 167 173 155 183 161 178 167 170 181 171 161 166 171 166 173 190 163 191 182 197 199 208 206 212 207 207 207 198 194 199 197 202 204 195 213 209 206 205 203 202
155 167 162 173 151 165 161 172 168 167 159 157 185 182 158 138 158 173 173 176 164 144 132 144 197 173 164 141 136 155 185 150 168 149 158 158 193 191 180 150 144 149 138 153 140 155 144
160 165 164 175 152 166 145 166 173 175 154 180 157 190 188 170 132 158 157 165 141 168 169 177 172 216 159 183 177 186 167 204 150 186 189 176 184 179 194 196 187 187 191 187 201 192 199
163 148 154 161 162 164 164 173 170 148 176 163 160 174 164 165 189 163 183 161 139 161 163 172 142 163 175 205 160 203 197 163 174 172 190 169 176 179 169 177 177 189 173 209 186 174 176
169 167 162 160 154 167 158 174 174 171 180 163 182 161 181 183 187 178 158 166 177 160 175 168 169 165 174 158 205 163 191 188 173 185 172 164 158 164 178 177 179 218 194 177 188 178 182
164 173 174 163 164 164 151 166 159 173 146 168 155 157 164 174 182 173 182 173 184 174 171 155 167 162 162 167 174 156 155 172 169 170 169 205 168 183 166 175 137 173 181 157 208 174 199
141 138 162 137 164 157 164 151 165 163 162 139 160 186 160 149 167 170 164 155 153 150 177 179 168 161 179 173 188 161 159 170 176 188 159 177 164 182 179 174 184 207 207 172 194 173 195
152 159 153 160 132 183 175 161 173 177 191 180 151 185 142 173 179 156 189 160 165 168 160 163 162 179 175 183 175 175 189 157 188 173 159 160 160 163 173 168 192 163 197 198 178 173 170
147 133 137 167 153 172 181 174 139 184 178 190 185 174 182 147 158 175 177 162 154 142 154 189 167 163 177 175 181 181 190 187 190 179 169 180 183 188 194 209 192 194 191 192 197 202 186
179 180 174 161 127 182 145 147 196 163 169 153 139 181 163 171 146 166 170 178 180 178 173 171 179 180 196 194 188 190 192 190 190 193 176 178 185 193 198 203 188 195 190 181 180 192 196